[[{"header":{"parameterUnit":"m.s-1","parameterCategory":1,"la1":31.0,"la2":29.5877,"lo1":-88.7671,"lo2":-86.6584,"dy":0.0162,"dx":0.0185,"nx":115,"ny":88,"refTime":"2024-04-07T06:00:00:Z","depth":0,"parameterNumber":2,"parameterNumberName":"U-component_of_WINDS"},"data":[0.0,0.0,0.0,0.0,0.0,0.0,0.0,0.0,0.0,0.0,0.0,0.0,0.0,0.0,0.0,0.0,0.0,0.0,0.0,0.0,0.0,0.0,0.0,0.0,0.0,0.0,0.0,0.0,0.0,0.0,0.0,0.0,0.0,0.0,0.0,0.0,0.0,0.0,0.0,0.0,0.0,0.0,0.0,0.0,0.0,0.0,0.0,0.0,0.0,0.0,0.0,0.0,0.0,0.0,0.0,0.0,0.0,0.0,0.0,0.0,0.0,0.0,0.0,0.0,0.0,0.0,0.0,0.0,0.0,0.0,0.0,0.0,0.0,0.0,0.0,0.0,0.0,0.0,0.0,0.0,0.0,0.0,0.0,0.0,0.0,0.0,0.0,0.0,0.0,0.0,0.0,0.0,0.0,0.0,0.0,0.0,0.0,0.0,0.0,0.0,0.0,0.0,0.0,0.0,0.0,0.0,0.0,0.0,0.0,0.0,0.0,0.0,0.0,0.0,0.0,0.0,0.0,0.0,0.0,0.0,0.0,0.0,0.0,0.0,0.0,0.0,0.0,0.0,0.0,0.0,0.0,0.0,0.0,0.0,0.0,0.0,0.0,0.0,0.0,0.0,0.0,0.0,0.0,0.0,0.0,0.0,0.0,0.0,0.0,0.0,0.0,0.0,0.0,0.0,0.0,0.0,0.0,0.0,0.0,0.0,0.0,0.0,0.0,0.0,0.0,0.0,0.0,0.0,0.0,0.0,0.0,0.0,0.0,0.0,0.0,0.0,0.0,0.0,0.0,0.0,0.0,0.0,0.0,0.0,0.0,0.0,0.0,0.0,0.0,0.0,0.0,0.0,0.0,0.0,0.0,0.0,0.0,0.0,0.0,0.0,0.0,0.0,0.0,0.0,0.0,0.0,0.0,0.0,0.0,0.0,0.0,0.0,0.0,0.0,0.0,0.0,0.0,0.0,0.0,0.0,0.0,0.0,0.0,0.0,0.0,0.0,0.0,0.0,0.0,0.0,0.0,0.0,0.0,0.0,0.0,0.0,0.0,0.0,0.0,0.0,0.0,0.0,0.0,0.0,0.0,0.0,0.0,0.0,0.0,0.0,0.0,0.0,0.0,0.0,0.0,0.0,0.0,0.0,0.0,0.0,0.0,0.0,0.0,0.0,0.0,0.0,0.0,0.0,0.0,0.0,0.0,0.0,0.0,0.0,0.0,0.0,0.0,0.0,0.0,0.0,0.0,0.0,0.0,0.0,0.0,0.0,0.0,0.0,0.0,0.0,0.0,0.0,0.0,0.0,0.0,0.0,0.0,0.0,0.0,0.0,0.0,0.0,0.0,0.0,0.0,0.0,0.0,0.0,0.0,0.0,0.0,0.0,0.0,0.0,0.0,0.0,0.0,0.0,0.0,0.0,0.0,0.0,0.0,0.0,0.0,0.0,0.0,0.0,0.0,0.0,0.0,0.0,0.0,0.0,0.0,0.0,0.0,0.0,0.0,0.0,0.0,0.0,0.0,0.0,0.0,0.0,0.0,0.0,0.0,0.0,0.0,0.0,0.0,0.0,0.0,0.0,0.0,0.0,0.0,0.0,0.0,0.0,0.0,0.0,0.0,0.0,0.0,0.0,0.0,0.0,0.0,0.0,0.0,0.0,0.0,0.0,0.0,0.0,0.0,0.0,0.0,0.0,0.0,0.0,0.0,0.0,0.0,0.0,0.0,0.0,0.0,0.0,0.0,0.0,0.0,0.0,0.0,0.0,0.0,0.0,0.0,0.0,0.0,0.0,0.0,0.0,0.0,0.0,0.0,0.0,0.0,0.0,0.0,0.0,0.0,0.0,0.0,0.0,0.0,0.0,0.0,0.0,0.0,0.0,0.0,0.0,0.0,0.0,0.0,0.0,0.0,0.0,0.0,0.0,0.0,0.0,0.0,0.0,0.0,0.0,0.0,0.0,0.0,0.0,0.0,0.0,0.0,0.0,0.0,0.0,0.0,0.0,0.0,0.0,0.0,0.0,0.0,0.0,0.0,0.0,0.0,0.0,0.0,0.0,0.0,0.0,0.0,0.0,0.0,0.0,0.0,0.0,0.0,0.0,0.0,0.0,0.0,0.0,0.0,0.0,0.0,0.0,0.0,0.0,0.0,0.0,0.0,0.0,0.0,0.0,0.0,0.0,0.0,0.0,0.0,0.0,0.0,0.0,0.0,0.0,0.0,0.0,0.0,0.0,0.0,0.0,0.0,0.0,0.0,0.0,0.0,0.0,0.0,0.0,0.0,0.0,0.0,0.0,0.0,0.0,0.0,0.0,0.0,0.0,0.0,0.0,0.0,0.0,0.0,0.0,0.0,0.0,0.0,0.0,0.0,0.0,0.0,0.0,0.0,0.0,0.0,0.0,0.0,0.0,0.0,0.0,0.0,0.0,0.0,0.0,0.0,0.0,0.0,0.0,0.0,0.0,0.0,0.0,0.0,0.0,0.0,0.0,0.0,0.0,0.0,0.0,0.0,0.0,0.0,0.0,0.0,0.0,0.0,0.0,0.0,0.0,0.0,0.0,0.0,0.0,0.0,0.0,0.0,0.0,0.0,0.0,0.0,0.0,0.0,0.0,0.0,0.0,0.0,0.0,0.0,0.0,0.0,0.0,0.0,0.0,0.0,0.0,0.0,0.0,0.0,0.0,0.0,0.0,0.0,0.0,0.0,0.0,0.0,0.0,0.0,0.0,0.0,0.0,0.0,0.0,0.0,0.0,0.0,0.0,0.0,0.0,0.0,0.0,0.0,0.0,0.0,0.0,0.0,0.0,0.0,0.0,0.0,0.0,0.0,0.0,0.0,0.0,0.0,0.0,0.0,0.0,0.0,0.0,0.0,0.0,0.0,0.0,0.0,0.0,0.0,0.0,0.0,0.0,0.0,0.0,0.0,0.0,0.0,0.0,0.0,0.0,0.0,0.0,0.0,0.0,0.0,0.0,0.0,0.0,0.0,0.0,0.0,0.0,0.0,0.0,0.0,0.0,0.0,0.0,0.0,0.0,0.0,0.0,0.0,0.0,0.0,0.0,0.0,0.0,0.0,0.0,0.0,0.0,0.0,0.0,0.0,0.0,0.0,0.0,0.0,0.0,0.0,0.0,0.0,0.0,0.0,0.0,0.0,0.0,0.0,0.0,0.0,0.0,0.0,0.0,0.0,0.0,0.0,0.0,0.0,0.0,0.0,0.0,0.0,0.0,0.0,0.0,0.0,0.0,0.0,0.0,0.0,0.0,0.0,0.0,0.0,0.0,0.0,0.0,0.0,0.0,0.0,0.0,0.0,0.0,0.0,0.0,0.0,0.0,0.0,0.0,0.0,0.0,0.0,0.0,0.0,0.0,0.0,0.0,0.0,0.0,0.0,0.0,0.0,0.0,0.0,0.0,0.0,0.0,0.0,0.0,0.0,0.0,0.0,0.0,0.0,0.0,0.0,0.0,0.0,0.0,0.0,0.0,0.0,0.0,0.0,0.0,0.0,0.0,0.0,0.0,0.0,0.0,0.0,0.0,0.0,0.0,0.0,0.0,0.0,0.0,0.0,0.0,0.0,0.0,0.0,0.0,0.0,0.0,0.0,0.0,0.0,0.0,0.0,0.0,0.0,0.0,0.0,0.0,0.0,0.0,0.0,0.0,0.0,0.0,0.0,0.0,0.0,0.0,0.0,0.0,0.0,0.0,0.0,0.0,0.0,0.0,0.0,0.0,0.0,0.0,0.0,0.0,0.0,0.0,0.0,0.0,0.0,0.0,0.0,0.0,0.0,0.0,0.0,0.0,0.0,0.0,0.0,0.0,0.0,0.0,0.0,0.0,0.0,0.0,0.0,0.0,0.0,0.0,0.0,0.0,0.0,0.0,0.0,0.0,0.0,0.0,0.0,0.0,0.0,0.0,0.0,0.0,0.0,0.0,0.0,0.0,0.0,0.0,0.0,0.0,0.0,0.0,0.0,0.0,0.0,0.0,0.0,0.0,0.0,0.0,0.0,0.0,0.0,0.0,0.0,0.0,0.0,0.0,0.0,0.0,0.0,0.0,0.0,0.0,0.0,0.0,0.0,0.0,0.0,0.0,0.0,0.0,0.0,0.0,0.0,0.0,0.0,0.0,0.0,0.0,0.0,0.0,0.0,0.0,0.0,0.0,0.0,0.0,0.0,0.0,0.0,0.0,0.0,0.0,0.0,0.0,0.0,0.0,0.0,0.0,0.0,0.0,0.0,0.0,0.0,0.0,0.0,0.0,0.0,0.0,-0.9738,0.0,0.0,0.0,0.0,0.0,0.0,0.0,0.0,0.0,0.0,0.0,0.0,0.0,0.0,0.0,0.0,0.0,0.0,0.0,0.0,0.0,0.0,0.0,0.0,0.0,0.0,0.0,0.0,0.0,0.0,0.0,0.0,0.0,0.0,0.0,0.0,0.0,0.0,0.0,0.0,0.0,0.0,0.0,0.0,0.0,0.0,0.0,0.0,0.0,0.0,0.0,0.0,0.0,0.0,0.0,0.0,0.0,0.0,0.0,0.0,0.0,0.0,0.0,0.0,0.0,0.0,0.0,0.0,0.0,0.0,0.0,0.0,0.0,0.0,0.0,0.0,0.0,0.0,0.0,0.0,0.0,0.0,0.0,0.0,0.0,0.0,0.0,0.0,0.0,0.0,0.0,0.0,0.0,0.0,0.0,0.0,0.0,0.0,0.0,0.0,0.0,0.0,0.0,0.0,0.0,0.0,0.0,0.0,0.0,0.0,-0.2188,-0.2691,-0.3991,-0.6755,-1.084,0.0,0.0,0.0,0.0,0.0,0.0,0.0,0.0,0.0,0.0,0.0,0.0,0.0,0.0,0.0,0.0,0.0,0.0,0.0,0.0,0.0,0.0,0.0,0.0,0.0,0.0,0.0,0.0,0.0,0.0,0.0,0.0,0.0,0.0,0.0,0.0,0.0,0.0,0.0,0.0,0.0,0.0,0.0,0.0,0.0,0.0,0.0,0.0,0.0,0.0,0.0,0.0,0.0,0.0,0.0,0.0,0.0,0.0,0.0,0.0,0.0,0.0,0.0,0.0,0.0,0.0,0.0,0.0,0.0,0.0,0.0,0.0,0.0,0.0,0.0,0.0,0.0,0.0,0.0,0.0,0.0,0.0,0.0,0.0,0.0,0.0,0.0,0.0,0.0,0.0,0.0,0.0,0.0,0.0,0.0,0.0,0.0,0.0,0.0,0.0,0.0,0.0,0.0,0.0,0.0,0.0,0.0,0.0,0.0,0.0,0.0,0.0,-0.3498,-0.6612,-1.203,0.0,0.0,0.0,0.0,0.0,0.0,0.0,0.0,0.0,0.0,0.0,0.0,0.0,0.0,0.0,0.0,0.0,0.0,0.0,0.0,0.0,0.0,0.0,0.0,0.0,0.0,0.0,0.0,0.0,0.0,0.0,0.0,0.0,0.0,0.0,0.0,0.0,0.0,0.0,0.0,0.0,0.0,0.0,0.0,0.0,0.0,0.0,0.0,0.0,0.0,0.0,0.0,0.0,0.0,0.0,0.0,0.0,0.0,0.0,0.0,0.0,0.0,0.0,0.0,0.0,0.0,0.0,0.0,0.0,0.0,0.0,0.0,0.0,0.0,0.0,0.0,0.0,0.0,0.0,0.0,0.0,0.0,0.0,0.0,0.0,0.0,0.0,0.0,0.0,0.0,0.0,0.0,0.0,0.0,0.0,0.0,0.0,0.0,0.0,0.0,0.0,0.0,0.0,0.0,0.0,0.0,0.0,0.0,0.0,0.0,-0.1682,-0.2692,-0.3523,0.0,-1.2372,0.0,0.0,0.0,0.0,0.0,0.0,0.0,0.0,0.0,0.0,0.0,0.0,0.0,0.0,0.0,0.0,0.0,0.0,0.0,0.0,0.0,0.0,0.0,0.0,0.0,0.0,0.0,0.0,0.0,0.0,0.0,0.0,0.0,0.0,0.0,0.0,0.0,0.0,0.0,0.0,0.0,0.0,0.0,0.0,0.0,0.0,0.0,0.0,0.0,0.0,0.0,0.0,0.0,0.0,0.0,0.0,0.0,0.0,0.0,0.0,0.0,0.0,0.0,0.0,0.0,0.0,0.0,0.0,0.0,0.0,0.0,0.0,0.0,0.0,0.0,0.0,0.0,0.0,0.0,0.0,0.0,0.0,0.0,0.0,0.0,0.0,0.0,0.0,0.0,0.0,0.0,0.0,0.0,0.0,0.0,0.0,0.0,0.0,0.0,0.0,0.0,0.0,0.0,0.0,0.0,0.0,0.0,0.0,0.0,0.0,-0.1682,-0.2692,-0.6047,-0.9307,0.0,0.0,0.0,0.0,0.0,0.0,0.0,0.0,0.0,0.0,0.0,0.0,0.0,0.0,0.0,0.0,0.0,0.0,0.0,0.0,0.0,0.0,0.0,0.0,0.0,0.0,0.0,0.0,0.0,0.0,0.0,0.0,0.0,0.0,0.0,0.0,0.0,0.0,0.0,0.0,0.0,0.0,0.0,0.0,0.0,0.0,0.0,0.0,0.0,0.0,0.0,0.0,0.0,0.0,0.0,0.0,0.0,0.0,0.0,0.0,0.0,0.0,0.0,0.0,0.0,0.0,0.0,0.0,0.0,0.0,0.0,0.0,0.0,0.0,0.0,0.0,0.0,0.0,0.0,0.0,0.0,0.0,0.0,0.0,0.0,0.0,0.0,0.0,0.0,0.0,0.0,0.0,0.0,0.0,0.0,0.0,0.0,0.0,0.0,0.0,0.0,0.0,0.0,0.0,0.0,0.0,0.0,0.0,0.0,0.0,-0.1346,-0.185,-0.3195,-0.7562,-1.0314,-1.0895,0.0,0.0,0.0,0.0,0.0,0.0,0.0,0.0,0.0,0.0,0.0,0.0,0.0,0.0,0.0,0.0,0.0,0.0,0.0,0.0,0.0,0.0,0.0,0.0,0.0,0.0,0.0,0.0,0.0,0.0,0.0,0.0,0.0,0.0,0.0,0.0,0.0,0.0,0.0,0.0,0.0,0.0,0.0,0.0,0.0,0.0,0.0,0.0,0.0,0.0,0.0,0.0,0.0,0.0,0.0,0.0,0.0,0.0,0.0,0.0,0.0,0.0,0.0,0.0,0.0,0.0,0.0,0.0,0.0,0.0,0.0,0.0,0.0,0.0,0.0,0.0,0.0,0.0,0.0,0.0,0.0,0.0,0.0,0.0,0.0,0.0,0.0,0.0,0.0,0.0,0.0,0.0,0.0,0.0,0.0,0.0,0.0,0.0,0.0,0.0,0.0,0.0,0.0,0.0,0.0,0.0,0.0,0.0,-0.1179,-0.1346,-0.2186,-0.3864,-0.6714,-0.8475,0.0,0.0,0.0,0.0,0.0,0.0,0.0,0.0,0.0,0.0,0.0,0.0,0.0,0.0,0.0,0.0,0.0,0.0,0.0,0.0,0.0,0.0,0.0,0.0,0.0,0.0,0.0,0.0,0.0,0.0,0.0,0.0,0.0,0.0,0.0,0.0,0.0,0.0,0.0,0.0,0.0,0.0,0.0,0.0,0.0,0.0,0.0,0.0,0.0,0.0,0.0,0.0,0.0,0.0,0.0,0.0,0.0,0.0,0.0,0.0,0.0,0.0,0.0,0.0,0.0,0.0,0.0,0.0,0.0,0.0,0.0,0.0,0.0,0.0,0.0,0.0,0.0,0.0,0.0,0.0,0.0,0.0,0.0,0.0,0.0,0.0,0.0,0.0,0.0,0.0,0.0,0.0,0.0,0.0,0.0,0.0,0.0,0.0,0.0,0.0,0.0,0.0,0.0,0.0,0.0,0.0,0.0,0.0,0.0,-0.0505,-0.1515,-0.2523,-0.3192,-0.4669,-0.6101,0.0,0.0,0.0,0.0,0.0,0.0,0.0,0.0,0.0,0.0,0.0,0.0,0.0,0.0,0.0,0.0,0.0,0.0,0.0,0.0,0.0,0.0,0.0,0.0,0.0,0.0,0.0,0.0,0.0,0.0,0.0,0.0,0.0,0.0,0.0,0.0,0.0,0.0,0.0,0.0,0.0,0.0,0.0,0.0,0.0,0.0,0.0,0.0,0.0,0.0,0.0,0.0,0.0,0.0,0.0,0.0,0.0,0.0,0.0,0.0,0.0,0.0,0.0,0.0,0.0,0.0,0.0,0.0,0.0,0.0,0.0,0.0,0.0,0.0,0.0,0.0,0.0,0.0,0.0,0.0,0.0,0.0,0.0,0.0,0.0,0.0,0.0,0.0,0.0,0.0,0.0,0.0,0.0,0.0,0.0,0.0,0.0,0.0,0.0,0.0,0.0,0.0,0.0,0.0,0.0,0.0,0.0,0.0,0.0,-0.0,0.0,-0.2188,-0.269,-0.3158,-0.4108,0.0,0.0,0.0,0.0,0.0,0.0,0.0,0.0,0.0,0.0,0.0,0.0,0.0,0.0,0.0,0.0,0.0,0.0,0.0,0.0,0.0,0.0,0.0,0.0,0.0,0.0,0.0,0.0,0.0,0.0,0.0,0.0,0.0,0.0,0.0,0.0,0.0,0.0,0.0,0.0,0.0,0.0,0.0,0.0,0.0,0.0,0.0,0.0,0.0,0.0,0.0,0.0,0.0,0.0,0.0,0.0,0.0,0.0,0.0,0.0,0.0,0.0,0.0,0.0,0.0,0.0,0.0,0.0,0.0,0.0,0.0,0.0,0.0,0.0,0.0,0.0,0.0,0.0,0.0,0.0,0.0,0.0,0.0,0.0,0.0,0.0,0.0,0.0,0.0,0.0,0.0,0.0,0.0,0.0,0.0,0.0,0.0,0.0,0.0,0.0,0.0,0.0,0.0,0.0,0.0,0.0,0.0,0.0,-0.0,-0.0,-0.0,-0.0842,-0.2524,-0.2662,-0.2631,0.0,0.0,0.0,0.0,0.0,0.0,0.0,0.0,0.0,0.0,0.0,0.0,0.0,0.0,0.0,0.0,0.0,0.0,0.0,0.0,0.0,0.0,0.0,0.0,0.0,0.0,0.0,0.0,0.0,0.0,0.0,0.0,0.0,0.0,0.0,0.0,0.0,0.0,0.0,0.0,0.0,0.0,0.0,0.0,0.0,0.0,0.0,0.0,0.0,0.0,0.0,0.0,0.0,0.0,0.0,0.0,0.0,0.0,0.0,0.0,0.0,0.0,0.0,0.0,0.0,0.0,0.0,0.0,0.0,0.0,0.0,0.0,0.0,0.0,0.0,0.0,0.0,0.0,0.0,0.0,0.0,0.0,0.0,0.0,0.0,0.0,0.0,0.0,0.0,0.0,0.0,0.0,0.0,0.0,0.0,0.0,0.0,0.0,0.0,0.0,0.0,0.0,0.0,0.0,0.0,0.0,0.0,0.0,0.0,-0.0,-0.0,-0.0338,-0.085,-0.0836,-0.0823,0.0,0.0,0.0,0.0,0.0,0.0,0.0,0.0,0.0,0.0,0.0,0.0,0.0,0.0,0.0,0.0,0.0,0.0,0.0,0.0,0.0,0.0,0.0,0.0,0.0,0.0,0.0,0.0,0.0,0.0,0.0,0.0,0.0,0.0,0.0,0.0,0.0,0.0,0.0,0.0,0.0,0.0,0.0,0.0,0.0,0.0,0.0,0.0,0.0,0.0,0.0,0.0,0.0,0.0,0.0,0.0,0.0,0.0,0.0,0.0,0.0,0.0,0.0,0.0,0.0,0.0,0.0,0.0,0.0,0.0,0.0,0.0,0.0,0.0,0.0,0.0,0.0,0.0,0.0,0.0,0.0,0.0,0.0,0.0,0.0,0.0,0.0,0.0,0.0,0.0,0.0,0.0,0.0,0.0,0.0,0.0,0.0,0.0,0.0,0.0,0.0,0.0,0.0,0.0,0.0,0.0,0.0,0.0,0.0,-0.0,-0.0,-0.0,-0.0,-0.0,-0.0,-0.0,0.0,0.0,0.0,0.0,0.0,0.0,0.0,0.0,0.0,0.0,0.0,0.0,0.0,0.0,0.0,0.0,0.0,0.0,0.0,0.0,0.0,0.0,0.0,0.0,0.0,0.0,0.0,0.0,0.0,0.0,0.0,0.0,0.0,0.0,0.0,0.0,0.0,0.0,0.0,0.0,0.0,0.0,0.0,0.0,0.0,0.0,0.0,0.0,0.0,0.0,0.0,0.0,0.0,0.0,0.0,0.0,0.0,0.0,0.0,0.0,0.0,0.0,0.0,0.0,0.0,0.0,0.0,0.0,0.0,0.0,0.0,0.0,0.0,0.0,0.0,0.0,0.0,0.0,0.0,0.0,0.0,0.0,0.0,0.0,0.0,0.0,0.0,0.0,0.0,0.0,0.0,0.0,0.0,0.0,0.0,0.0,0.0,0.0,0.0,0.0,0.0,0.0,0.0,0.0,0.0,0.0,0.0,0.0,-0.0,-0.0,-0.0,-0.0,-0.0,-0.0,0.0,0.0,0.0,0.0,0.0,0.0,0.0,0.0,0.0,0.0,0.0,0.0,0.0,0.0,0.0,0.0,0.0,0.0,0.0,0.0,0.0,0.0,0.0,0.0,0.0,0.0,0.0,0.0,0.0,0.0,0.0,0.0,0.0,0.0,0.0,0.0,0.0,0.0,0.0,0.0,0.0,0.0,0.0,0.0,0.0,0.0,0.0,0.0,0.0,0.0,0.0,0.0,0.0,0.0,0.0,0.0,0.0,0.0,0.0,0.0,0.0,0.0,0.0,0.0,0.0,0.0,0.0,0.0,0.0,0.0,0.0,0.0,0.0,0.0,0.0,0.0,0.0,0.0,0.0,0.0,0.0,0.0,0.0,0.0,0.0,0.0,0.0,0.0,0.0,0.0,0.0,0.0,0.0,0.0,0.0,0.0,0.0,0.0,0.0,0.0,0.0,0.0,0.0,0.0,0.0,0.0,0.0,0.0,0.0,-0.0,-0.0,-0.0,-0.0,-0.0,-0.0,0.0,0.0,0.0,0.0,0.0,0.0,0.0,0.0,0.0,0.0,0.0,0.0,0.0,0.0,0.0,0.0,0.0,0.0,0.0,0.0,0.0,0.0,0.0,0.0,0.0,0.0,0.0,0.0,0.0,0.0,0.0,0.0,0.0,0.0,0.0,0.0,0.0,0.0,0.0,0.0,0.0,0.0,0.0,0.0,0.0,0.0,0.0,0.0,0.0,0.0,0.0,0.0,0.0,0.0,0.0,0.0,0.0,0.0,0.0,0.0,0.0,0.0,0.0,0.0,0.0,0.0,0.0,0.0,0.0,0.0,0.0,0.0,0.0,0.0,0.0,0.0,0.0,0.0,0.0,0.0,0.0,0.0,0.0,0.0,0.0,0.0,0.0,0.0,0.0,0.0,0.0,0.0,0.0,0.0,0.0,0.0,0.0,0.0,0.0,0.0,0.0,0.0,0.0,0.0,0.0,0.0,0.0,0.0,-0.0,-0.0,-0.0,-0.0,-0.0,-0.0,-0.0,0.0,0.0,0.0,0.0,0.0,0.0,0.0,0.0,0.0,0.0,0.0,0.0,0.0,0.0,0.0,0.0,0.0,0.0,0.0,0.0,0.0,0.0,0.0,0.0,0.0,0.0,0.0,0.0,0.0,0.0,0.0,0.0,0.0,0.0,0.0,0.0,0.0,0.0,0.0,0.0,0.0,0.0,0.0,0.0,0.0,0.0,0.0,0.0,0.0,0.0,0.0,0.0,0.0,0.0,0.0,0.0,0.0,0.0,0.0,0.0,0.0,0.0,0.0,0.0,0.0,0.0,0.0,0.0,0.0,0.0,0.0,0.0,0.0,0.0,0.0,0.0,0.0,0.0,0.0,0.0,0.0,0.0,0.0,0.0,0.0,0.0,0.0,0.0,0.0,0.0,0.0,0.0,0.0,0.0,0.0,0.0,0.0,0.0,0.0,0.0,0.0,0.0,0.0,0.0,0.0,0.0,0.0,0.0,-0.0,-0.0,-0.0,-0.0,-0.0,-0.0,-0.0,0.0,0.0,0.0,0.0,0.0,0.0,0.0,0.0,0.0,0.0,0.0,0.0,0.0,0.0,0.0,0.0,0.0,0.0,0.0,0.0,0.0,0.0,0.0,0.0,0.0,0.0,0.0,0.0,0.0,0.0,0.0,0.0,0.0,0.0,0.0,0.0,0.0,0.0,0.0,0.0,0.0,0.0,0.0,0.0,0.0,0.0,0.0,0.0,0.0,0.0,0.0,0.0,0.0,0.0,0.0,0.0,0.0,0.0,0.0,0.0,0.0,0.0,0.0,0.0,0.0,0.0,0.0,0.0,0.0,0.0,0.0,0.0,0.0,0.0,0.0,0.0,0.0,0.0,0.0,0.0,0.0,0.0,0.0,0.0,0.0,0.0,0.0,0.0,0.0,0.0,0.0,0.0,0.0,0.0,0.0,0.0,0.0,0.0,0.0,0.0,0.0,0.0,0.0,0.0,0.0,0.0,0.0,0.0,-0.0,-0.0,-0.0,-0.0,-0.0,-0.0,-0.0,0.0,0.0,0.0,0.0,0.0,0.0,0.0,0.0,0.0,0.0,0.0,0.0,0.0,0.0,0.0,0.0,0.0,0.0,0.0,0.0,0.0,0.0,0.0,0.0,0.0,0.0,0.0,0.0,0.0,0.0,0.0,0.0,0.0,0.0,0.0,0.0,0.0,0.0,0.0,0.0,0.0,0.0,0.0,0.0,0.0,0.0,0.0,0.0,-1.4394,0.0,0.0,0.0,0.0,0.0,0.0,0.0,0.0,0.0,0.0,0.0,0.0,0.0,0.0,0.0,0.0,0.0,0.0,0.0,0.0,0.0,0.0,0.0,0.0,0.0,0.0,0.0,0.0,0.0,0.0,0.0,0.0,0.0,0.0,0.0,0.0,0.0,0.0,0.0,0.0,0.0,0.0,0.0,0.0,0.0,0.0,0.0,0.0,0.0,0.0,0.0,0.0,0.0,0.0,0.0,0.0,0.0,0.0,0.0,-0.0,-0.0,-0.0,-0.0,-0.0,-0.0,-0.0,0.0,0.0,0.0,0.0,0.0,0.0,0.0,0.0,0.0,0.0,0.0,0.0,0.0,0.0,0.0,0.0,0.0,0.0,0.0,0.0,0.0,0.0,0.0,0.0,0.0,0.0,0.0,0.0,0.0,0.0,0.0,0.0,0.0,0.0,0.0,0.0,0.0,0.0,0.0,0.0,0.0,0.0,0.0,0.0,0.0,0.0,0.0,0.0,0.0,0.0,0.0,0.0,0.0,0.0,0.0,0.0,0.0,0.0,0.0,0.0,0.0,0.0,0.0,0.0,0.0,0.0,0.0,0.0,0.0,0.0,0.0,0.0,0.0,0.0,0.0,0.0,0.0,0.0,0.0,0.0,0.0,0.0,0.0,0.0,0.0,0.0,0.0,0.0,0.0,0.0,0.0,0.0,0.0,0.0,0.0,0.0,0.0,0.0,0.0,0.0,0.0,0.0,0.0,0.0,0.0,0.0,0.0,-0.0,-0.0,-0.0,-0.0,-0.0,-0.0,-0.0,-0.0,-0.0,0.0,0.0,0.0,0.0,0.0,0.0,0.0,0.0,0.0,0.0,0.0,0.0,0.0,0.0,0.0,0.0,0.0,0.0,0.0,0.0,0.0,0.0,0.0,0.0,0.0,0.0,0.0,0.0,0.0,0.0,0.0,0.0,0.0,0.0,0.0,0.0,0.0,0.0,-1.3535,-1.4258,0.0,0.0,0.0,0.0,0.0,0.0,0.0,0.0,-1.4638,0.0,0.0,0.0,0.0,0.0,0.0,0.0,0.0,0.0,0.0,0.0,0.0,0.0,0.0,0.0,0.0,0.0,0.0,0.0,0.0,0.0,0.0,0.0,0.0,0.0,0.0,0.0,0.0,0.0,0.0,0.0,0.0,0.0,0.0,0.0,0.0,0.0,0.0,0.0,0.0,0.0,0.0,0.0,0.0,0.0,0.0,0.0,0.0,0.0,0.0,0.0,0.0,0.0,0.0,0.0,0.0,-0.0,-0.0,-0.0,-0.0,-0.0,-0.0,-0.0,-0.0,-0.0,-0.0,0.0,0.0,0.0,0.0,0.0,0.0,0.0,0.0,0.0,0.0,0.0,0.0,0.0,0.0,0.0,0.0,0.0,0.0,0.0,0.0,0.0,0.0,0.0,0.0,0.0,0.0,0.0,0.0,0.0,0.0,0.0,0.0,0.0,0.0,0.0,0.0,0.0,0.0,0.0,-1.4757,-1.4931,0.0,0.0,0.0,0.0,0.0,0.0,0.0,0.0,-1.4584,0.0,0.0,0.0,0.0,0.0,0.0,0.0,0.0,0.0,0.0,0.0,0.0,0.0,0.0,0.0,0.0,0.0,0.0,0.0,0.0,0.0,0.0,0.0,0.0,0.0,0.0,0.0,0.0,0.0,0.0,0.0,0.0,0.0,0.0,0.0,0.0,0.0,0.0,0.0,0.0,0.0,0.0,0.0,0.0,0.0,0.0,0.0,0.0,0.0,0.0,0.0,0.0,0.0,0.0,0.0,-0.0,-0.0,-0.0,-0.0,-0.0,-0.0,-0.0,-0.0,-0.0,0.0,0.0,0.0,0.0,0.0,0.0,0.0,0.0,0.0,0.0,0.0,0.0,0.0,0.0,0.0,0.0,0.0,0.0,0.0,0.0,0.0,0.0,0.0,0.0,0.0,0.0,0.0,0.0,0.0,0.0,0.0,0.0,0.0,0.0,0.0,0.0,0.0,0.0,0.0,0.0,-1.4903,-1.5063,-1.4841,0.0,0.0,0.0,0.0,0.0,0.0,-1.4794,-1.4746,0.0,0.0,0.0,0.0,0.0,0.0,0.0,0.0,0.0,0.0,0.0,0.0,0.0,0.0,0.0,0.0,0.0,0.0,0.0,0.0,0.0,0.0,0.0,0.0,0.0,0.0,0.0,0.0,0.0,0.0,0.0,0.0,0.0,0.0,0.0,0.0,0.0,0.0,0.0,0.0,0.0,0.0,0.0,0.0,0.0,0.0,0.0,0.0,0.0,0.0,0.0,0.0,0.0,0.0,0.0,-0.0,-0.0,-0.0,-0.0,-0.0,-0.0,-0.0,-0.0,-0.0,0.0,0.0,0.0,0.0,0.0,0.0,0.0,0.0,0.0,0.0,0.0,0.0,0.0,0.0,0.0,0.0,0.0,0.0,0.0,0.0,0.0,0.0,0.0,0.0,0.0,0.0,0.0,0.0,0.0,0.0,0.0,0.0,0.0,0.0,0.0,0.0,0.0,0.0,0.0,0.0,0.0,-1.5174,-1.495,-1.4862,0.0,0.0,0.0,0.0,-1.4957,-1.4943,0.0,0.0,0.0,0.0,0.0,0.0,0.0,0.0,0.0,0.0,0.0,0.0,0.0,0.0,0.0,0.0,0.0,0.0,0.0,0.0,0.0,0.0,0.0,0.0,0.0,0.0,0.0,0.0,0.0,0.0,0.0,0.0,0.0,0.0,0.0,0.0,0.0,0.0,0.0,0.0,0.0,0.0,0.0,0.0,0.0,0.0,0.0,0.0,0.0,0.0,0.0,0.0,0.0,0.0,0.0,0.0,-0.0,-0.0,-0.0,-0.0,-0.0,-0.0,-0.0,-0.0,-0.0,0.0,0.0,0.0,0.0,0.0,0.0,0.0,0.0,0.0,0.0,0.0,0.0,0.0,0.0,0.0,0.0,0.0,0.0,0.0,0.0,0.0,0.0,0.0,0.0,0.0,0.0,0.0,0.0,0.0,0.0,0.0,0.0,0.0,0.0,0.0,0.0,0.0,0.0,0.0,0.0,0.0,-1.5174,-1.495,-1.4957,-1.4943,0.0,0.0,-1.495,-1.497,-1.4855,0.0,0.0,0.0,0.0,0.0,0.0,0.0,0.0,0.0,0.0,0.0,0.0,0.0,0.0,0.0,0.0,0.0,0.0,0.0,0.0,0.0,0.0,0.0,0.0,0.0,0.0,0.0,0.0,0.0,0.0,0.0,0.0,0.0,0.0,0.0,0.0,0.0,0.0,0.0,0.0,0.0,0.0,0.0,0.0,0.0,0.0,0.0,0.0,0.0,0.0,0.0,0.0,0.0,0.0,0.0,-0.0,-0.0,-0.0,-0.0,-0.0,-0.0,-0.0,-0.0,-0.0,-0.0,0.0,0.0,0.0,0.0,0.0,0.0,0.0,0.0,0.0,0.0,0.0,0.0,0.0,0.0,0.0,0.0,0.0,0.0,0.0,0.0,0.0,0.0,0.0,0.0,0.0,0.0,0.0,0.0,0.0,0.0,0.0,0.0,0.0,0.0,0.0,0.0,0.0,0.0,0.0,0.0,0.0,0.0,-1.4936,-1.497,0.0,0.0,0.0,-1.4997,-1.5079,0.0,0.0,0.0,0.0,0.0,0.0,0.0,0.0,0.0,0.0,0.0,0.0,0.0,0.0,0.0,0.0,0.0,0.0,0.0,0.0,0.0,0.0,0.0,0.0,0.0,0.0,0.0,0.0,0.0,0.0,0.0,0.0,0.0,0.0,0.0,0.0,0.0,0.0,0.0,0.0,0.0,0.0,0.0,0.0,0.0,0.0,0.0,0.0,0.0,0.0,0.0,0.0,0.0,0.0,0.0,0.0,0.0,-0.0,-0.0,-0.0,-0.0,-0.0,-0.0,-0.0,-0.0,0.0,0.0,0.0,0.0,0.0,0.0,0.0,0.0,0.0,0.0,0.0,0.0,0.0,0.0,0.0,0.0,0.0,0.0,0.0,0.0,0.0,0.0,0.0,0.0,0.0,0.0,0.0,-1.3082,0.0,0.0,0.0,0.0,0.0,0.0,0.0,0.0,0.0,0.0,0.0,0.0,0.0,0.0,-1.484,-1.4882,-1.4977,-1.5059,0.0,0.0,-1.5059,-1.5167,-1.5031,-1.4875,0.0,0.0,0.0,0.0,0.0,0.0,0.0,0.0,0.0,0.0,0.0,0.0,0.0,0.0,0.0,0.0,0.0,0.0,0.0,0.0,0.0,0.0,0.0,0.0,0.0,0.0,0.0,0.0,0.0,0.0,0.0,0.0,0.0,0.0,0.0,0.0,0.0,0.0,0.0,0.0,0.0,0.0,0.0,0.0,0.0,0.0,0.0,0.0,0.0,0.0,0.0,0.0,0.0,0.0,-0.0,-0.0,-0.0,-0.0,-0.0,-0.0,-0.0,-0.0,-0.0,-0.0,0.0,0.0,0.0,0.0,0.0,0.0,0.0,0.0,0.0,0.0,0.0,0.0,0.0,0.0,0.0,0.0,0.0,0.0,0.0,0.0,0.0,0.0,0.0,0.0,0.0,0.0,0.0,0.0,0.0,0.0,0.0,0.0,0.0,0.0,0.0,0.0,0.0,0.0,0.0,0.0,0.0,-1.4733,-1.4753,-1.4991,-1.5174,0.0,-1.5174,-1.5174,-1.5181,-1.4943,-1.4753,-1.5118,0.0,0.0,0.0,0.0,0.0,0.0,0.0,0.0,0.0,0.0,0.0,0.0,0.0,0.0,0.0,0.0,0.0,0.0,0.0,0.0,0.0,0.0,0.0,0.0,0.0,0.0,0.0,0.0,0.0,0.0,0.0,0.0,0.0,0.0,0.0,0.0,0.0,0.0,0.0,0.0,0.0,0.0,0.0,0.0,0.0,0.0,0.0,0.0,0.0,0.0,0.0,0.0,0.0,-0.0,-0.0,-0.0,-0.0,-0.0,-0.0,-0.0,-0.0,-0.0,-0.0,0.0,0.0,0.0,0.0,0.0,0.0,0.0,0.0,0.0,0.0,0.0,0.0,0.0,0.0,0.0,0.0,0.0,0.0,0.0,0.0,0.0,0.0,0.0,0.0,0.0,0.0,0.0,0.0,-1.4071,-1.4034,-1.3939,0.0,0.0,0.0,0.0,0.0,0.0,0.0,0.0,0.0,0.0,-1.4672,-1.4855,-1.5052,0.0,0.0,-1.5181,-1.5181,-1.5181,-1.5018,-1.4848,-1.476,-1.4634,0.0,0.0,0.0,0.0,0.0,0.0,0.0,0.0,0.0,0.0,0.0,0.0,0.0,0.0,0.0,0.0,0.0,0.0,0.0,0.0,0.0,0.0,0.0,0.0,0.0,0.0,0.0,0.0,0.0,0.0,0.0,0.0,0.0,0.0,0.0,0.0,0.0,0.0,0.0,0.0,0.0,0.0,0.0,0.0,0.0,0.0,0.0,0.0,0.0,0.0,0.0,0.0,-0.0,-0.0,-0.0,-0.0,-0.0,-0.0,-0.0,-0.0,-0.0,-0.0,0.0,0.0,0.0,0.0,0.0,0.0,0.0,0.0,0.0,0.0,0.0,0.0,0.0,0.0,0.0,0.0,0.0,0.0,0.0,0.0,0.0,0.0,0.0,0.0,0.0,0.0,0.0,0.0,-1.4153,-1.3994,-1.3797,0.0,0.0,0.0,0.0,0.0,0.0,0.0,0.0,0.0,0.0,-1.486,-1.4936,-1.5092,-1.5181,-1.5181,-1.5181,-1.5181,-1.5181,-1.5065,-1.4936,-1.4638,0.0,0.0,0.0,0.0,0.0,0.0,0.0,0.0,0.0,0.0,0.0,0.0,0.0,0.0,0.0,0.0,0.0,0.0,0.0,0.0,0.0,0.0,0.0,0.0,0.0,0.0,0.0,0.2559,0.0,0.0,-0.0,0.0,0.0,0.0,0.0,0.0,0.0,0.0,0.0,0.0,0.0,0.0,0.0,0.0,0.0,0.0,0.0,0.0,0.0,0.0,0.0,0.0,0.0,-0.0,-0.0,-0.0,-0.0,-0.0,-0.0,-0.0,-0.0,-0.0,-0.0,-0.0,0.0,0.0,0.0,0.0,0.0,0.0,0.0,0.0,0.0,0.0,0.0,0.0,0.0,0.0,0.0,0.0,0.0,0.0,0.0,0.0,0.0,0.0,0.0,0.0,0.0,0.0,-1.4217,-1.415,-1.3946,0.0,0.0,0.0,0.0,0.0,0.0,0.0,0.0,0.0,-1.4258,-1.4737,-1.5167,-1.4957,-1.5092,-1.5181,-1.5181,-1.5181,-1.5181,-1.5181,-1.5065,-1.497,0.0,0.0,0.0,0.0,0.0,0.0,0.0,0.0,0.0,0.0,0.0,0.0,0.0,0.0,0.0,0.0,0.0,0.0,0.0,0.0,0.0,0.0,0.0,0.0,0.0,0.0,0.0,0.4303,0.2456,0.0,0.0,0.0,0.0,0.0,0.0,0.0,0.0,0.0,0.0,0.0,-0.0,-0.0,0.0,0.0,0.0,0.0,0.0,0.0,0.0,0.0,0.0,0.0,0.0,0.0,-0.0,-0.0,-0.0,-0.0,-0.0,-0.0,-0.0,-0.0,-0.0,-0.0,-0.0,0.0,0.0,0.0,0.0,0.0,0.0,0.0,0.0,0.0,0.0,0.0,0.0,0.0,0.0,0.0,0.0,0.0,0.0,0.0,0.0,0.0,0.0,0.0,0.0,0.0,-1.3939,0.0,0.0,0.0,0.0,0.0,0.0,0.0,0.0,0.0,0.0,0.0,-1.3892,-1.4557,-1.4956,-1.5135,-1.5092,-1.5153,-1.5181,0.0,0.0,0.0,0.0,0.0,0.0,0.0,0.0,0.0,0.0,0.0,0.0,0.0,0.0,-1.438,-1.4183,-1.4143,-1.4143,-1.415,0.0,0.0,0.0,0.0,0.0,0.0,0.0,0.0,0.0,0.0,0.0,0.0,0.0,0.0,0.4274,0.0,0.0674,0.0,0.0,0.0,0.0,0.0,0.0,0.0,0.0,-0.0,-0.0,-0.0,-0.0,-0.0,0.0,-0.0,-0.0,0.0,0.0,0.0,0.0,0.0,0.0,0.0,0.0,-0.0,-0.0,-0.0,-0.0,-0.0,-0.0,-0.0,-0.0,-0.0,-0.0,-0.0,-0.0,-0.0,0.0,0.0,0.0,0.0,0.0,0.0,0.0,0.0,0.0,0.0,0.0,0.0,0.0,0.0,0.0,0.0,0.0,0.0,0.0,0.0,0.0,0.0,0.0,-1.4014,0.0,0.0,0.0,0.0,0.0,0.0,0.0,0.0,0.0,-1.3844,-1.3934,-1.4242,-1.4774,-1.4862,-1.5128,-1.5092,0.0,0.0,0.0,0.0,0.0,0.0,0.0,-1.4909,-1.4964,-1.4889,-1.4821,-1.4821,-1.478,-1.476,-1.4814,0.0,0.0,-1.4502,-1.4455,-1.4455,-1.4455,-1.4269,-1.4269,-1.4455,-1.4641,-1.4847,0.0,0.0,0.0,0.0,0.0,0.0,0.0,0.0,0.4633,0.4265,0.0,0.0696,0.0,0.0,0.0,0.0,0.0,-0.0,0.0,0.0,-0.0,-0.0,-0.0,-0.0,-0.0,-0.0,-0.0,-0.0,-0.0,-0.0,0.0,0.0,0.0,0.0,0.0,0.0,-0.0,-0.0,-0.0,-0.0,-0.0,-0.0,-0.0,-0.0,-0.0,-0.0,-0.0,-0.0,-0.0,-0.0,-0.0,0.0,0.0,0.0,0.0,0.0,0.0,0.0,0.0,0.0,0.0,0.0,0.0,0.0,0.0,0.0,0.0,0.0,0.0,0.0,0.0,-1.3994,0.0,0.0,0.0,0.0,0.0,0.0,0.0,0.0,0.0,-1.4122,-1.4272,-1.4306,-1.4468,-1.4903,0.0,0.0,0.0,0.0,-1.474,-1.4746,-1.474,-1.4746,-1.4746,-1.474,-1.4794,-1.4936,0.0,0.0,-1.5169,-1.4862,-1.4808,-1.495,-1.4977,-1.493,-1.478,-1.4753,-1.4753,-1.4753,-1.4753,-1.4753,-1.4753,-1.4943,-1.5132,0.7127,0.0,0.0,0.0,0.0,0.1609,0.0719,0.09,0.2739,0.2552,0.072,0.018,0.0,0.0,0.0,0.0,0.0,0.0,-0.0,-0.0,-0.0,-0.0,-0.0,-0.0,-0.0,-0.0,-0.0,-0.0,-0.0,-0.0,-0.0,-0.0,0.0,0.0,0.0,0.0,-0.0,-0.0,-0.0,-0.0,-0.0,-0.0,-0.0,-0.0,-0.0,-0.0,-0.0,-0.0,-0.0,-0.0,-0.0,0.0,0.0,0.0,0.0,0.0,0.0,0.0,0.0,0.0,0.0,0.0,0.0,0.0,0.0,0.0,0.0,0.0,0.0,0.0,-1.4292,-1.4272,-1.4129,0.0,0.0,0.0,0.0,0.0,0.0,0.0,0.0,0.0,-1.4414,-1.4455,-1.4723,0.0,0.0,-1.4753,-1.4801,-1.4767,-1.474,-1.474,-1.474,0.0,-1.474,-1.474,-1.4753,-1.4801,-1.4896,-1.5004,-1.5106,-1.5086,-1.5072,-1.5113,-1.512,-1.5106,-1.5072,-1.5059,-1.5052,-1.5059,-1.5059,-1.5052,-1.5059,-1.5059,-1.5238,0.5997,0.5189,0.5488,0.3999,0.1638,0.0551,-0.0,-0.0,0.1307,0.1118,-0.0,-0.0,-0.0,-0.0,-0.0,0.0,0.0,0.0,-0.0,-0.0,-0.0,-0.0,-0.0,-0.0,-0.0,-0.0,-0.0,-0.0,-0.0,-0.0,-0.0,-0.0,0.0,0.0,-0.0,-0.0,-0.0,-0.0,-0.0,-0.0,-0.0,-0.0,-0.0,-0.0,-0.0,-0.0,-0.0,-0.0,-0.0,-0.0,-0.0,-0.0,0.0,0.0,0.0,0.0,0.0,0.0,0.0,0.0,0.0,0.0,0.0,-0.7641,-0.9366,0.0,0.0,0.0,-1.376,-1.4258,-1.4489,-1.4387,0.0,0.0,0.0,0.0,0.0,0.0,0.0,-1.4055,-1.4122,-1.4224,-1.4401,-1.4428,-1.4509,-1.4713,-1.4685,-1.4645,-1.4652,0.0,-1.4563,-1.4563,-1.4563,-1.4563,-1.4563,-1.4563,-1.4584,-1.4457,-1.478,-1.4903,-1.4984,-1.5052,-1.5099,-1.5106,-1.514,-1.5181,-1.5181,-1.5181,-1.5181,-1.5181,-1.5181,-1.5181,-1.5181,-1.5181,-1.5181,0.551,0.4369,0.2237,0.0926,-0.0,-0.0,-0.0,-0.0,-0.0,-0.0,-0.0,-0.0,-0.0,-0.0,-0.0,0.0,-0.0,-0.0,-0.0,-0.0,-0.0,-0.0,-0.0,-0.0,-0.0,-0.0,-0.0,-0.0,-0.0,-0.0,-0.0,-0.0,-0.0,-0.0,-0.0,-0.0,-0.0,-0.0,-0.0,-0.0,-0.0,-0.0,-0.0,-0.0,-0.0,-0.0,-0.0,-0.0,-0.0,-0.0,-0.0,-0.0,-0.0,0.0,0.0,0.0,0.0,0.0,0.0,0.0,0.0,0.0,0.0,0.0,0.0,0.0,0.0,-1.3013,-1.3813,0.0,-1.4536,-1.4428,0.0,0.0,0.0,-1.3905,-1.3892,-1.4021,-1.4102,-1.4089,0.0,0.0,-1.4299,-1.4299,-1.4401,-1.4665,-1.4397,-1.4309,-1.4496,-1.4387,-1.4299,-1.4319,-1.4306,-1.4306,-1.4326,-1.4326,-1.4373,-1.4323,-1.4443,-1.4726,-1.4753,-1.4862,-1.4943,-1.495,-1.5072,-1.516,-1.516,-1.5167,-1.5181,-1.5181,-1.5181,-1.5181,-1.5181,-1.5181,-1.5181,0.5773,0.4473,0.2412,0.0934,-0.0,-0.0,-0.0,-0.0,-0.0,-0.0,-0.0,-0.0,-0.0,-0.0,-0.0,-0.0,-0.0,-0.0,-0.0,-0.0,-0.0,-0.0,-0.0,-0.0,-0.0,-0.0,-0.0,-0.0,-0.0,-0.0,-0.0,-0.0,-0.0,-0.0,-0.0,-0.0,-0.0,-0.0,-0.0,-0.0,-0.0,-0.0,-0.0,-0.0,-0.0,-0.0,-0.0,-0.0,-0.0,-0.0,-0.0,-0.0,-0.0,-0.0,0.0,0.0,0.0,0.0,0.0,0.0,0.0,0.0,0.0,-0.7493,-0.9,0.0,-1.1969,0.0,-1.4022,-1.4828,-1.4855,-1.4828,0.0,0.0,-1.455,-1.4482,-1.4367,-1.4387,-1.4367,-1.4258,-1.4278,-1.4299,-1.4299,-1.4299,-1.4326,-1.4394,-1.4373,-1.4346,-1.4346,-1.4326,-1.4299,-1.4299,-1.4299,-1.4299,-1.4299,-1.4299,-1.4346,-1.4303,-1.4356,-1.4423,-1.4348,-1.4577,-1.4794,-1.4808,-1.4916,-1.5011,-1.5018,-1.5106,-1.5174,-1.5181,-1.5181,-1.5181,-1.5181,-1.5181,-1.5181,0.5734,0.4444,0.2408,0.0932,-0.0,-0.0,-0.0,-0.0,-0.0,-0.0,-0.0,-0.0,-0.0,-0.0,-0.0,-0.0,-0.0,-0.0,-0.0,-0.0,-0.0,-0.0,-0.0,-0.0,-0.0,-0.0,-0.0,-0.0,-0.0,-0.0,-0.0,-0.0,-0.0,-0.0,-0.0,-0.0,-0.0,-0.0,-0.0,-0.0,-0.0,-0.0,-0.0,-0.0,-0.0,-0.0,-0.0,-0.0,-0.0,-0.0,-0.0,-0.0,-0.0,-0.0,-0.0,0.0,0.0,0.0,0.0,0.0,0.0,0.0,0.0,0.0,0.0,0.0,-1.2045,-1.3307,-1.4454,-1.497,-1.497,-1.4909,-1.4808,-1.4652,-1.4584,-1.4509,-1.4428,-1.4414,-1.4387,-1.4312,-1.4299,-1.4299,-1.4299,-1.4299,-1.4299,-1.4299,-1.4299,-1.4299,-1.4299,-1.4299,-1.4299,-1.4299,-1.4299,-1.4299,-1.4299,-1.4299,-1.4326,-1.4394,-1.4414,-1.4448,-1.4343,-1.441,-1.4638,-1.4645,-1.4767,-1.4869,-1.4875,-1.4984,-1.5086,-1.5099,-1.514,-1.5174,-1.5181,-1.5181,-1.5181,0.5345,0.4428,0.2583,0.1107,-0.0,-0.0,-0.0,-0.0,-0.0,-0.0,-0.0,-0.0,-0.0,-0.0,-0.0,-0.0,-0.0,-0.0,-0.0,-0.0,-0.0,-0.0,-0.0,-0.0,-0.0,-0.0,-0.0,-0.0,-0.0,-0.0,-0.0,-0.0,-0.0,-0.0,-0.0,-0.0,-0.0,-0.0,-0.0,-0.0,-0.0,-0.0,-0.0,-0.0,-0.0,-0.0,-0.0,-0.0,-0.0,-0.0,-0.0,-0.0,-0.0,-0.0,-0.0,0.0,-0.0,0.0,0.0,0.0,0.0,0.0,0.0,0.0,0.0,-1.0814,-1.25,-1.4018,-1.4593,-1.497,-1.5162,-1.4835,-1.4685,-1.4557,-1.4434,-1.4346,-1.4333,-1.4326,-1.4319,-1.4306,-1.4299,-1.4299,-1.4299,-1.4299,-1.4299,-1.4299,-1.4299,-1.4299,-1.4299,-1.4299,-1.4299,-1.4299,-1.4299,-1.4299,-1.4299,-1.4299,-1.4299,-1.4299,-1.4306,-1.4299,-1.4312,-1.4407,-1.4489,-1.4502,-1.4611,-1.4706,-1.4713,-1.4835,-1.4936,-1.4943,-1.5045,-1.5147,-1.5174,-1.5181,-1.5181,0.5238,0.5243,0.3433,0.1626,-0.0,-0.0,-0.0,-0.0,-0.0,-0.0,-0.0,-0.0,-0.0,-0.0,-0.0,-0.0,-0.0,-0.0,-0.0,-0.0,-0.0,-0.0,-0.0,-0.0,-0.0,-0.0,-0.0,-0.0,-0.0,-0.0,-0.0,-0.0,-0.0,-0.0,-0.0,0.0,0.0,0.0,-0.0,-0.0,-0.0,-0.0,-0.0,-0.0,-0.0,0.0,-0.0,-0.0,-0.0,-0.0,-0.0,0.0,0.0,0.0,0.0,0.0,0.0,0.0,0.0,0.0,0.0,0.0,-0.8132,-0.8538,-0.8757,-1.118,-1.287,-1.366,-1.4414,-1.497,-1.5162,-1.4835,-1.4544,-1.4329,-1.4484,-1.4611,-1.4496,-1.4468,-1.4428,-1.4312,-1.4299,-1.4299,-1.4299,-1.4299,-1.4299,-1.4299,-1.4299,-1.4299,-1.4299,-1.4299,-1.4299,-1.4299,-1.4299,-1.4299,-1.4299,-1.4299,-1.4299,-1.4299,-1.4299,-1.4299,-1.4299,-1.4319,-1.434,-1.4346,-1.4462,-1.4557,-1.4557,-1.4679,-1.478,-1.478,-1.4909,-1.5238,-1.516,-1.5181,-1.5181,0.431,0.4314,0.3234,0.1796,0.0,-0.0,-0.0,-0.0,-0.0,-0.0,-0.0,-0.0,-0.0,-0.0,-0.0,-0.0,-0.0,-0.0,-0.0,-0.0,-0.0,-0.0,-0.0,-0.0,-0.0,-0.0,-0.0,-0.0,-0.0,-0.0,-0.0,-0.0,-0.0,-0.0,-0.0,-0.0,-0.0,-0.0,-0.0,-0.0,-0.0,-0.0,-0.0,-0.0,-0.0,0.0,0.0,0.0,0.0,0.0,0.0,0.0,0.0,-0.0,0.0,-0.0,-0.0,-0.0353,-0.1413,-0.5147,-0.7655,-0.8542,-0.9866,-1.0456,-1.0456,-1.2249,-1.3486,-1.3738,-1.4487,-1.4855,-1.4855,-1.4719,-1.4443,-1.4256,-1.4383,-1.4489,-1.4421,-1.4407,-1.438,-1.4319,-1.4299,-1.4299,-1.4299,-1.4299,-1.4299,-1.4299,-1.4299,-1.4299,-1.4299,-1.4299,-1.4299,-1.4299,-1.4299,-1.4299,-1.4299,-1.4299,-1.4299,-1.4299,-1.4299,-1.4299,-1.4299,-1.4299,-1.4299,-1.4306,-1.436,-1.4407,-1.4421,-1.4523,-1.4624,-1.4638,-1.4753,-1.5059,-1.5149,-1.5272,-1.5181,0.3052,0.2335,0.2335,0.1436,-0.0,-0.0,-0.0,-0.0,0.0,0.0,0.0,-0.0,-0.0,-0.0,-0.0,-0.0,-0.0,-0.0,-0.0,-0.0,-0.0,-0.0,-0.0,-0.0,-0.0,-0.0,-0.0,-0.0,-0.0,-0.0,-0.0,-0.0,-0.0,-0.0,-0.0,-0.0,-0.0,-0.0,-0.0,-0.0,-0.0,-0.0,-0.0,-0.0,-0.0,-0.0,-0.0,-0.0,-0.0,-0.0,-0.0,-0.0,-0.0,-0.0,-0.018,-0.0539,-0.0538,-0.1256,-0.287,-0.6828,-0.9173,-0.9514,-1.1368,-1.2501,-1.2525,-1.3269,-1.3881,-1.3997,-1.4348,-1.4699,-1.4699,-1.4563,-1.4475,-1.4289,-1.4367,-1.4299,-1.4299,-1.4299,-1.4306,-1.4299,-1.4299,-1.4299,-1.4299,-1.4299,-1.4299,-1.4299,-1.4299,-1.4299,-1.4299,-1.4299,-1.4299,-1.4299,-1.4299,-1.4299,-1.4299,-1.4299,-1.4299,-1.4299,-1.4299,-1.4299,-1.4299,-1.4299,-1.4299,-1.4299,-1.4299,-1.4306,-1.4312,-1.4401,-1.4468,-1.4475,-1.459,-1.4699,-1.4915,-1.5101,-1.5092,0.1256,0.0359,0.0359,0.018,-0.0,-0.0,-0.0,-0.0,-0.0,-0.0,-0.0,-0.0,-0.0,-0.0,-0.0,-0.0,-0.0,-0.0,-0.0,-0.0,-0.0,-0.0,-0.0,-0.0,-0.0,-0.0,-0.0,-0.0,-0.0,-0.0,-0.0,-0.0,-0.0,-0.0,-0.0,-0.0,-0.0,-0.0,-0.0,-0.0,-0.0,-0.0,-0.0,-0.0,-0.0,-0.0,-0.0,-0.0,-0.0,-0.0,-0.0,-0.0,-0.0,-0.0,-0.0718,-0.2335,-0.2513,-0.2689,-0.3045,-0.7952,-1.1453,-1.2315,-1.2955,-1.3311,-1.3071,-1.3544,-1.3984,-1.3997,-1.4256,-1.4543,-1.4716,-1.4421,-1.434,-1.4333,-1.4312,-1.4299,-1.4299,-1.4299,-1.4299,-1.4299,-1.4299,-1.4299,-1.4299,-1.4299,-1.4299,-1.4299,-1.4299,-1.4299,-1.4299,-1.4299,-1.4299,-1.4299,-1.4299,-1.4299,-1.4299,-1.4299,-1.4299,-1.4299,-1.4299,-1.4299,-1.4299,-1.4299,-1.4299,-1.4299,-1.4299,-1.4299,-1.4299,-1.4312,-1.434,-1.4353,-1.4455,-1.4356,-1.455,-1.451,-1.4658,0.0897,-0.0,-0.0,-0.0,-0.0,-0.0,-0.0,-0.0,-0.0,-0.0,-0.0,-0.0,-0.0,-0.0,-0.0,-0.0,-0.0,-0.0,-0.0,-0.0,-0.0,-0.0,-0.0,-0.0,-0.0,-0.0,-0.0,-0.0,-0.0,-0.0,-0.0,-0.0,-0.0,-0.0,-0.0,-0.0,-0.0,-0.0,-0.0,-0.0,-0.0,-0.0,-0.0,-0.0,-0.0,-0.0,-0.0,-0.0,-0.0,-0.0,-0.0,-0.0535,-0.1426,-0.1612,-0.1975,-0.2872,-0.2871,-0.3406,-0.4295,-0.9715,-1.2997,-1.3324,-1.38,-1.3971,-1.3681,-1.3925,-1.4143,-1.4137,-1.4256,-1.4394,-1.4401,-1.434,-1.4299,-1.4299,-1.4299,-1.4299,-1.4299,-1.4299,-1.4299,-1.4299,-1.4299,-1.4299,-1.4299,-1.4299,-1.4299,-1.4299,-1.4299,-1.4299,-1.4299,-1.4299,-1.4299,-1.4299,-1.4299,-1.4299,-1.4299,-1.4299,-1.4299,-1.4299,-1.4299,-1.4299,-1.4299,-1.4299,-1.4299,-1.4299,-1.4299,-1.4299,-1.4299,-1.4299,-1.4299,-1.4306,-1.434,-1.4394,-1.4229,-1.433,-1.4504,0.1256,-0.0,-0.0,-0.0,-0.0,-0.0,-0.0,-0.0,-0.0,-0.0,-0.0,-0.0,-0.0,-0.0,-0.0,-0.0,-0.0,-0.0,-0.0,-0.0,-0.0,-0.0,-0.0,-0.0,-0.0,-0.0,-0.0,-0.0,-0.0,-0.0,-0.0,-0.0,-0.0,-0.0,-0.0,-0.0,-0.0,-0.0,-0.0,-0.0,-0.0,-0.0,-0.0,-0.0,-0.0,-0.0,-0.0,-0.0,-0.0,-0.0,-0.0,-0.0898,-0.2694,-0.3234,-0.3592,-0.3588,-0.3587,-0.4659,-0.7335,-1.1638,-1.4155,-1.3768,-1.4122,-1.4299,-1.4299,-1.4299,-1.4299,-1.4299,-1.4306,-1.4306,-1.4306,-1.4299,-1.4299,-1.4299,-1.4299,-1.4299,-1.4299,-1.4299,-1.4299,-1.4299,-1.4299,-1.4299,-1.4299,-1.4299,-1.4299,-1.4299,-1.4299,-1.4299,-1.4299,-1.4299,-1.4299,-1.4299,-1.4299,-1.4299,-1.4299,-1.4299,-1.4299,-1.4299,-1.4299,-1.4299,-1.4299,-1.4299,-1.4299,-1.4299,-1.4299,-1.4299,-1.4299,-1.4299,-1.4299,-1.4299,-1.4312,-1.4306,-1.4319,-1.4249,-1.441,0.2511,-0.0,-0.0,-0.0,-0.0,-0.0,-0.0,-0.0,-0.0,-0.0,-0.0,-0.0,-0.0,-0.0,-0.0,-0.0,-0.0,-0.0,-0.0,-0.0,-0.0,-0.0,-0.0,-0.0,-0.0,-0.0,-0.0,-0.0,-0.0,-0.0,-0.0,-0.0,-0.0,-0.0,-0.0,-0.0,-0.0,-0.0,-0.0,-0.0,-0.0,-0.0,-0.0,-0.0,-0.0,-0.0,-0.0,-0.0,-0.0,-0.0,-0.0,-0.0898,-0.2694,-0.4493,-0.5391,-0.5383,-0.5378,-0.7342,-1.1632,-1.3604,-1.4312,-1.4306,-1.4299,-1.4299,-1.4299,-1.4299,-1.4299,-1.4299,-1.4299,-1.4299,-1.4299,-1.4299,-1.4299,-1.4299,-1.4299,-1.4299,-1.4299,-1.4299,-1.4299,-1.4299,-1.4299,-1.4299,-1.4299,-1.4299,-1.4299,-1.4299,-1.4299,-1.4299,-1.4299,-1.4299,-1.4299,-1.4299,-1.4299,-1.4299,-1.4299,-1.4299,-1.4299,-1.4299,-1.4299,-1.4299,-1.4299,-1.4299,-1.4299,-1.4299,-1.4299,-1.4299,-1.4299,-1.4299,-1.4299,-1.4299,-1.4299,-1.4299,-1.4312,-1.4401,-1.4376,0.2688,0.0718,0.0179,-0.0,-0.0,-0.0,-0.0,-0.0,-0.0,-0.0,-0.0,-0.0,-0.0,-0.0,-0.0,-0.0,-0.0,-0.0,-0.0,-0.0,-0.0,-0.0,-0.0,-0.0,-0.0,-0.0,-0.0,-0.0,-0.0,-0.0,-0.0,-0.0,-0.0,-0.0,-0.0,-0.0,-0.0,-0.0,-0.0,-0.0,-0.0,-0.0,-0.0,-0.0,-0.0,-0.0,-0.0,-0.0,-0.0,-0.0,-0.0,-0.0898,-0.2871,-0.4671,-0.5926,-0.6454,-0.7153,-0.9291,-1.3432,-1.4142,-1.4312,-1.4299,-1.4299,-1.4299,-1.4299,-1.4299,-1.4299,-1.4299,-1.4299,-1.4299,-1.4299,-1.4299,-1.4299,-1.4299,-1.4299,-1.4299,-1.4299,-1.4299,-1.4299,-1.4299,-1.4299,-1.4299,-1.4299,-1.4299,-1.4299,-1.4299,-1.4299,-1.4299,-1.4299,-1.4299,-1.4299,-1.4299,-1.4299,-1.4299,-1.4299,-1.4299,-1.4299,-1.4299,-1.4299,-1.4299,-1.4299,-1.4299,-1.4299,-1.4299,-1.4299,-1.4299,-1.4299,-1.4299,-1.4299,-1.4299,-1.4299,-1.4299,-1.4299,-1.4346,-1.4414,0.3404,0.1794,0.0538,-0.0,-0.0,-0.0,-0.0,-0.0,-0.0,-0.0,-0.0,-0.0,-0.0,-0.0,-0.0,-0.0,-0.0,-0.0,-0.0,-0.0,-0.0,-0.0,-0.0,-0.0,-0.0,-0.0,-0.0,-0.0,-0.0,-0.0,-0.0,-0.0,-0.0,-0.0,-0.0,-0.0,-0.0,-0.0,-0.0,-0.0,-0.0,-0.0,-0.0,-0.0,-0.0,-0.0,-0.0,-0.0,-0.0,-0.0,-0.0539,-0.1436,-0.2871,-0.5027,-0.6819,-0.8238,-0.9286,-1.1067,-1.4149,-1.4319,-1.4312,-1.4299,-1.4299,-1.4299,-1.4299,-1.4299,-1.4299,-1.4299,-1.4299,-1.4299,-1.4299,-1.4299,-1.4299,-1.4299,-1.4326,-1.4353,-1.436,-1.4387,-1.4434,-1.4421,-1.4448,-1.4401,-1.4373,-1.436,-1.4353,-1.4312,-1.4299,-1.4299,-1.4299,-1.4299,-1.4299,-1.4299,-1.4299,-1.4299,-1.4299,-1.4299,-1.4299,-1.4299,-1.4299,-1.4299,-1.4299,-1.4299,-1.4299,-1.4299,-1.4299,-1.4299,-1.4299,-1.4299,-1.4306,-1.4299,-1.4306,-1.4306,-1.4299,-1.4306,-1.4306,0.4483,0.2692,0.0718,-0.0,-0.0,-0.0,-0.0,-0.0,-0.0,-0.0,-0.0,-0.0,-0.0,-0.0,-0.0,-0.0,-0.0,-0.0,-0.0,-0.0,-0.0,-0.0,-0.0,-0.0,-0.0,-0.0,-0.0,-0.0,-0.0,-0.0,-0.0,-0.0,-0.0,-0.0,-0.0,-0.0,-0.0,-0.0,-0.0,-0.0,-0.0,-0.0,-0.0,-0.0,-0.0,-0.0,-0.0,-0.0,-0.0,-0.0,-0.1617,-0.2693,-0.305,-0.5565,-0.8429,-1.0748,-1.1982,-1.3046,-1.4135,-1.4306,-1.4299,-1.4299,-1.4312,-1.4306,-1.4319,-1.434,-1.434,-1.4312,-1.434,-1.4333,-1.4333,-1.4333,-1.4326,-1.434,-1.4434,-1.4496,-1.4502,-1.4611,-1.4706,-1.4699,-1.4679,-1.4624,-1.4516,-1.4316,-1.4263,-1.4367,-1.4312,-1.4312,-1.4319,-1.4312,-1.4299,-1.4299,-1.4299,-1.4299,-1.4299,-1.4299,-1.4299,-1.4299,-1.4299,-1.4299,-1.4299,-1.4299,-1.4299,-1.4299,-1.4299,-1.4299,-1.4299,-1.4306,-1.4312,-1.4312,-1.4326,-1.4326,-1.4401,-1.4333,-1.4346,0.537,0.1794,0.0538,-0.0,-0.0,-0.0,-0.0,-0.0,-0.0,-0.0,-0.0,-0.0,-0.0,-0.0,-0.0,-0.0,-0.0,-0.0,-0.0,-0.0,-0.0,-0.0,-0.0,-0.0,-0.0,-0.0,-0.0,-0.0,-0.0,-0.0,-0.0,-0.0,-0.0,-0.0,-0.0,-0.0,-0.0,-0.0,-0.0,-0.0,-0.0,-0.0,-0.0,-0.0,-0.0,-0.0,-0.0,-0.0,-0.0,-0.0,-0.1796,-0.2872,-0.323,-0.6809,-0.9852,-1.1821,-1.3059,-1.3945,-1.4306,-1.4306,-1.4299,-1.4306,-1.4387,-1.4434,-1.4455,-1.4523,-1.4584,-1.4577,-1.4577,-1.4577,-1.4376,-1.4316,-1.4475,-1.457,-1.4624,-1.4658,-1.4665,-1.4706,-1.474,-1.474,-1.474,-1.4713,-1.4679,-1.447,-1.445,-1.4584,-1.4496,-1.4441,-1.4414,-1.4367,-1.4306,-1.4299,-1.4299,-1.4299,-1.4299,-1.4299,-1.4299,-1.4299,-1.4299,-1.4299,-1.4299,-1.4299,-1.4299,-1.4299,-1.4299,-1.4299,-1.4299,-1.4326,-1.4333,-1.4407,-1.4414,-1.4475,-1.4563,-1.4516,-1.4536,0.5191,0.1614,0.0359,-0.0,-0.0,-0.0,-0.0,-0.0,-0.0,-0.0,-0.0,-0.0,-0.0,-0.0,-0.0,-0.0,-0.0,-0.0,-0.0,-0.0,-0.0,-0.0,-0.0,-0.0,-0.0,-0.0,-0.0,-0.0,-0.0,-0.0,-0.0,-0.0,-0.0,-0.0,-0.0,-0.0,-0.0,-0.0,-0.0,-0.0,-0.0,-0.0,-0.0,-0.0,-0.0,-0.0,-0.0,-0.0,-0.0,-0.0,-0.1616,-0.3052,-0.4485,-0.752,-1.0377,-1.1999,-1.3458,-1.4373,-1.4373,-1.4414,-1.4448,-1.4441,-1.4529,-1.4584,-1.459,-1.4679,-1.4726,-1.474,-1.474,-1.4564,-1.4591,-1.4531,-1.4685,-1.4746,-1.4787,-1.4814,-1.4814,-1.4862,-1.4882,-1.4896,-1.4903,-1.4875,-1.4828,-1.4631,-1.4598,-1.4753,-1.4645,-1.459,-1.457,-1.4462,-1.4367,-1.4367,-1.4326,-1.4306,-1.4299,-1.4299,-1.4299,-1.4299,-1.4299,-1.4299,-1.4299,-1.4299,-1.4299,-1.4299,-1.4299,-1.4299,-1.4312,-1.434,-1.4414,-1.4502,-1.4563,-1.4611,-1.4672,-1.4713,-1.4713,0.4122,0.1614,-0.0,-0.0,-0.0,-0.0,-0.0,-0.0,-0.0,-0.0,-0.0,-0.0,-0.0,-0.0,-0.0,-0.0,-0.0,-0.0,-0.0,-0.0,-0.0,-0.0,-0.0,-0.0,-0.0,-0.0,-0.0,-0.0,-0.0,-0.0,-0.0,-0.0,-0.0,-0.0,-0.0,-0.0,-0.0,-0.0,-0.0,-0.0,-0.0,-0.0,-0.0,-0.0,-0.0,-0.0,-0.0,-0.0,-0.0,-0.0,-0.09,-0.3233,-0.6299,-0.8083,-0.9496,-1.1498,-1.3195,-1.433,-1.4529,-1.4631,-1.4692,-1.4699,-1.4733,-1.474,-1.4746,-1.4767,-1.4787,-1.4794,-1.4794,-1.4638,-1.4758,-1.495,-1.5094,-1.5174,-1.5087,-1.497,-1.4991,-1.5092,-1.5174,-1.5147,-1.5133,-1.5113,-1.5018,-1.497,-1.493,-1.4835,-1.4956,-1.4936,-1.4726,-1.4611,-1.4523,-1.4489,-1.4421,-1.4353,-1.4326,-1.4306,-1.4299,-1.4299,-1.4299,-1.4299,-1.4299,-1.4299,-1.4299,-1.4299,-1.4299,-1.4306,-1.4373,-1.4414,-1.4509,-1.4597,-1.4665,-1.476,-1.4828,-1.4869,-1.5018,0.4838,0.3227,0.0897,-0.0,-0.0,-0.0,-0.0,-0.0,-0.0,-0.0,-0.0,-0.0,-0.0,-0.0,-0.0,-0.0,-0.0,-0.0,-0.0,-0.0,-0.0,-0.0,-0.0,-0.0,-0.0,-0.0,-0.0,-0.0,-0.0,-0.0,-0.0,-0.0,-0.0,-0.0,-0.0,-0.0,-0.0,-0.0,-0.0,-0.0,-0.0,-0.0,-0.0,-0.0,-0.0,-0.0,-0.0,-0.0,-0.0,-0.0,-0.0917,-0.2934,-0.5864,-0.7871,-0.9689,-1.1518,-1.3369,-1.449,-1.4672,-1.4901,-1.4943,-1.4767,-1.4835,-1.4889,-1.4909,-1.4984,-1.5025,-1.5038,-1.5045,-1.5072,-1.5106,-1.5113,-1.5086,-1.5238,-1.5092,-1.5106,-1.5106,-1.5153,-1.5174,-1.5181,-1.5181,-1.5153,-1.5126,-1.5113,-1.5086,-1.5031,-1.5142,-1.5094,-1.4875,-1.4767,-1.4672,-1.4658,-1.4543,-1.4434,-1.4407,-1.4367,-1.4326,-1.4312,-1.4299,-1.4299,-1.4299,-1.4299,-1.4299,-1.4306,-1.4306,-1.4346,-1.4421,-1.4523,-1.4624,-1.474,-1.4848,-1.4936,-1.5018,-1.5018,-1.4977,0.5733,0.4124,0.1614,0.0359,-0.0,-0.0,-0.0,-0.0,-0.0,-0.0,-0.0,-0.0,-0.0,-0.0,-0.0,-0.0,-0.0,-0.0,-0.0,-0.0,-0.0,-0.0,-0.0,-0.0,-0.0,-0.0,-0.0,-0.0,-0.0,-0.0,-0.0,-0.0,-0.0,-0.0,-0.0,-0.0,-0.0,-0.0,-0.0,-0.0,-0.0,-0.0,-0.0,-0.0,-0.0,-0.0,-0.0,-0.0,-0.0,-0.0,-0.0926,-0.2962,-0.5736,-0.7572,-0.9228,-1.1446,-1.3138,-1.4087,-1.4644,-1.5073,-1.5094,-1.4923,-1.4997,-1.5045,-1.5065,-1.5147,-1.5174,-1.5181,-1.5174,-1.5181,-1.5181,-1.5181,-1.5181,-1.5181,-1.5174,-1.5181,-1.5181,-1.5181,-1.5181,-1.5181,-1.5181,-1.5181,-1.5181,-1.5181,-1.5181,-1.5167,-1.5106,-1.5238,-1.5025,-1.4916,-1.4862,-1.4794,-1.4692,-1.459,-1.4509,-1.4441,-1.4367,-1.4326,-1.4299,-1.4299,-1.4299,-1.4299,-1.4299,-1.4333,-1.434,-1.4407,-1.4489,-1.4658,-1.4787,-1.4909,-1.5004,-1.5065,-1.512,-1.5133,-1.5106,0.6981,0.4303,0.2331,0.0897,-0.0,-0.0,-0.0,-0.0,-0.0,-0.0,-0.0,-0.0,-0.0,-0.0,-0.0,-0.0,-0.0,-0.0,-0.0,-0.0,-0.0,-0.0,-0.0,-0.0,-0.0,-0.0,-0.0,-0.0,-0.0,-0.0,-0.0,-0.0,-0.0,-0.0,-0.0,-0.0,-0.0,-0.0,-0.0,-0.0,-0.0,-0.0,-0.0,-0.0,-0.0,-0.0,-0.0,-0.0,-0.0,-0.0,-0.1116,-0.3162,-0.5567,-0.7035,-0.8893,-1.1678,-1.2864,-1.3845,-1.4819,-1.5072,-1.514,-1.5133,-1.5147,-1.5181,-1.5167,-1.5167,-1.5181,-1.5181,-1.5181,-1.5181,-1.5181,-1.5181,-1.5181,-1.5181,-1.5181,-1.5181,-1.5181,-1.5181,-1.5181,-1.5181,-1.5181,-1.5181,-1.5181,-1.5181,-1.5181,-1.5181,-1.5167,-1.5153,-1.514,-1.5052,-1.4997,-1.4923,-1.4841,-1.476,-1.4679,-1.4584,-1.4516,-1.4475,-1.4407,-1.434,-1.4312,-1.4299,-1.434,-1.4367,-1.4421,-1.4489,-1.4604,-1.478,-1.4909,-1.5004,-1.5086,-1.5153,-1.5181,-1.5181,-1.5181,0.7702,0.6102,0.287,0.0897,-0.0,-0.0,-0.0,-0.0,-0.0,-0.0,-0.0,-0.0,-0.0,-0.0,-0.0,-0.0,-0.0,-0.0,-0.0,-0.0,-0.0,-0.0,-0.0,-0.0,-0.0,-0.0,-0.0,-0.0,-0.0,-0.0,-0.0,-0.0,-0.0,-0.0,-0.0,-0.0,-0.0,-0.0,-0.0,-0.0,-0.0,-0.0,-0.0,-0.0,-0.0,-0.0,-0.0,-0.0,-0.0,-0.0,-0.1704,-0.3784,-0.6044,-0.7733,-0.9603,-1.1678,-1.3017,-1.3983,-1.4939,-1.5153,-1.5181,-1.5181,-1.5181,-1.5181,-1.5181,-1.5181,-1.5181,-1.5181,-1.5181,-1.5181,-1.5181,-1.5181,-1.5181,-1.5181,-1.5181,-1.5181,-1.5181,-1.5181,-1.5181,-1.5181,-1.5181,-1.5181,-1.5181,-1.5181,-1.5181,-1.5181,-1.5181,-1.5181,-1.5167,-1.516,-1.5086,-1.5072,-1.5011,-1.493,-1.4848,-1.4746,-1.4679,-1.4457,-1.4363,-1.4414,-1.436,-1.4312,-1.4373,-1.4441,-1.4529,-1.4604,-1.476,-1.493,-1.5018,-1.5092,-1.5133,-1.5181,-1.5181,-1.5181,-1.5181,0.8421,0.6822,0.3409,0.1256,-0.0,-0.0,-0.0,-0.0,-0.0,-0.0,-0.0,-0.0,-0.0,-0.0,-0.0,-0.0,-0.0,-0.0,-0.0,-0.0,-0.0,-0.0,-0.0,-0.0,-0.0,-0.0,-0.0,-0.0,-0.0,-0.0,-0.0,-0.0,-0.0,-0.0,-0.0,-0.0,-0.0,-0.0,-0.0,-0.0,-0.0,-0.0,-0.0,-0.0,-0.0,-0.0,-0.0,-0.0,-0.0,-0.0,-0.1907,-0.4194,-0.6479,-0.8182,-1.0072,-1.1978,-1.3099,-1.4222,-1.4993,-1.5181,-1.5181,-1.5181,-1.5181,-1.5181,-1.5181,-1.5181,-1.5181,-1.5181,-1.5181,-1.5181,-1.5181,-1.5181,-1.5181,-1.5181,-1.5181,-1.5181,-1.5181,-1.5181,-1.5181,-1.5181,-1.5181,-1.5181,-1.5181,-1.5181,-1.5181,-1.5181,-1.5181,-1.5181,-1.5181,-1.5181,-1.5174,-1.5147,-1.512,-1.5038,-1.4964,-1.4875,-1.478,-1.4746,-1.4699,-1.4557,-1.4434,-1.4367,-1.4434,-1.4529,-1.4624,-1.4746,-1.4896,-1.5018,-1.5092,-1.5147,-1.5174,-1.5181,-1.5181,-1.5181,-1.5181,0.8956,0.7001,0.4126,0.1795,-0.0,-0.0,-0.0,-0.0,-0.0,-0.0,-0.0,-0.0,-0.0,-0.0,-0.0,-0.0,-0.0,-0.0,-0.0,-0.0,-0.0,-0.0,-0.0,-0.0,-0.0,-0.0,-0.0,-0.0,-0.0,-0.0,-0.0,-0.0,-0.0,-0.0,-0.0,-0.0,-0.0,-0.0,-0.0,-0.0,-0.0,-0.0,-0.0,-0.0,-0.0,-0.0,-0.0,-0.0,-0.0,-0.0,-0.0,-0.4385,-0.7052,-0.8561,-1.0077,-1.1978,-1.3293,-1.4422,-1.4993,-1.5181,-1.5181,-1.5181,-1.5181,-1.5181,-1.5181,-1.5181,-1.5181,-1.5181,-1.5181,-1.5181,-1.5181,-1.5181,-1.5181,-1.5181,-1.5181,-1.5181,-1.5181,-1.5181,-1.5181,-1.5181,-1.5181,-1.5181,-1.5181,-1.5181,-1.5181,-1.5181,-1.5181,-1.5181,-1.5181,-1.5181,-1.5181,-1.5174,-1.5147,-1.5126,-1.5065,-1.4997,-1.4903,-1.5018,-1.4814,-1.4713,-1.455,-1.4675,-1.4543,-1.4618,-1.4753,-1.4875,-1.4984,-1.5092,-1.5153,-1.5174,-1.5181,-1.5181,-1.5181,-1.5181,-1.5181,0.896,0.7001,0.4128,0.1795,-0.0,-0.0,-0.0,-0.0,-0.0,-0.0,-0.0,-0.0,-0.0,-0.0,-0.0,-0.0,-0.0,-0.0,-0.0,-0.0,-0.0,-0.0,-0.0,-0.0,-0.0,-0.0,-0.0,-0.0,-0.0,-0.0,-0.0,-0.0,-0.0,-0.0,-0.0,-0.0,-0.0,-0.0,-0.0,-0.0,-0.0,-0.0,-0.0,-0.0,-0.0,-0.0,-0.0,-0.0,-0.0,-0.0,-0.1335,-0.3623,-0.6672,-0.8565,-1.0072,-1.1978,-1.387,-1.4999,-1.5181,-1.5181,-1.5181,-1.5181,-1.5181,-1.5181,-1.5181,-1.5181,-1.5181,-1.5181,-1.5181,-1.5181,-1.5181,-1.5181,-1.5181,-1.5181,-1.5181,-1.5181,-1.5181,-1.5181,-1.5181,-1.5181,-1.5181,-1.5181,-1.5181,-1.5181,-1.5181,-1.5181,-1.5181,-1.5181,-1.5181,-1.5181,-1.5181,-1.5181,-1.5174,-1.5153,-1.5133,-1.5079,-1.5025,-1.5142,-1.5121,-1.5094,-1.4922,-1.4853,-1.4733,-1.4814,-1.4903,-1.5011,-1.5086,-1.512,-1.5181,-1.5181,-1.5181,-1.5181,-1.5181,-1.5181,-1.5181,0.8956,0.7001,0.4126,0.1795,-0.0,-0.0,-0.0,-0.0,-0.0,-0.0,-0.0,-0.0,-0.0,-0.0,-0.0,-0.0,-0.0,-0.0,-0.0,-0.0,-0.0,-0.0,-0.0,-0.0,-0.0,-0.0,-0.0,-0.0,-0.0,-0.0,-0.0,-0.0,-0.0,-0.0,-0.0,-0.0,-0.0,-0.0,-0.0,-0.0,-0.0,-0.0,-0.0,-0.0,-0.0,-0.0,-0.0,-0.0,-0.0,-0.0,-0.0954,-0.286,-0.5908,-0.7992,-0.9883,-1.1784,-1.3876,-1.5006,-1.5187,-1.5181,-1.5181,-1.5181,-1.5181,-1.5181,-1.5181,-1.5181,-1.5181,-1.5181,-1.5181,-1.5181,-1.5181,-1.5181,-1.5181,-1.5181,-1.5181,-1.5181,-1.5181,-1.5181,-1.5181,-1.5181,-1.5181,-1.5181,-1.5181,-1.5181,-1.5181,-1.5181,-1.5181,-1.5181,-1.5181,-1.5181,-1.5181,-1.5181,-1.5181,-1.5174,-1.5174,-1.5153,-1.5133,-1.5092,-1.5079,-1.5059,-1.4984,-1.4957,-1.4957,-1.4991,-1.5011,-1.5079,-1.5147,-1.5174,-1.5181,-1.5181,-1.5181,-1.5181,-1.5181,-1.5181,-1.5181,0.8956,0.7001,0.4126,0.1795,-0.0,-0.0,-0.0,-0.0,-0.0,-0.0,-0.0,-0.0,-0.0,-0.0,-0.0,-0.0,-0.0,-0.0,-0.0,-0.0,-0.0,-0.0,-0.0,-0.0,-0.0,-0.0,-0.0,-0.0,-0.0,-0.0,-0.0,-0.0,-0.0,-0.0,-0.0,-0.0,-0.0,-0.0,-0.0,-0.0,-0.0,-0.0,-0.0,-0.0,-0.0,-0.0,-0.0,-0.0,-0.0,-0.0,-0.0763,-0.2287,-0.4191,-0.685,-0.969,-1.1212,-1.3682,-1.4818,-1.5187,-1.5181,-1.5181,-1.5181,-1.5181,-1.5181,-1.5181,-1.5181,-1.5181,-1.5181,-1.5181,-1.5181,-1.5181,-1.5181,-1.5181,-1.5181,-1.5181,-1.5181,-1.5181,-1.5181,-1.5181,-1.5181,-1.5181,-1.5181,-1.5181,-1.5181,-1.5181,-1.5181,-1.5181,-1.5181,-1.5181,-1.5181,-1.5181,-1.5181,-1.5181,-1.5181,-1.5181,-1.5181,-1.5167,-1.516,-1.516,-1.5153,-1.514,-1.5113,-1.5065,-1.5059,-1.5092,-1.5147,-1.5174,-1.5181,-1.5181,-1.5181,-1.5181,-1.5181,-1.5181,-1.5181,-1.5181,0.896,0.7001,0.4126,0.1795,-0.0,-0.0,-0.0,-0.0,-0.0,-0.0,-0.0,-0.0,-0.0,-0.0,-0.0,-0.0,-0.0,-0.0,-0.0,-0.0,-0.0,-0.0,-0.0,-0.0,-0.0,-0.0,-0.0,-0.0,-0.0,-0.0,-0.0,-0.0,-0.0,-0.0,-0.0,-0.0,-0.0,-0.0,-0.0,-0.0,-0.0,-0.0,-0.0,-0.0,-0.0,-0.0,-0.0,-0.0,-0.0,-0.0,-0.0,-0.0954,-0.2478,-0.514,-0.7985,-1.0834,-1.2928,-1.4442,-1.4999,-1.5181,-1.5181,-1.5181,-1.5181,-1.5181,-1.5181,-1.5181,-1.5181,-1.5181,-1.5181,-1.5181,-1.5181,-1.5181,-1.5181,-1.5181,-1.5181,-1.5181,-1.5181,-1.5181,-1.5181,-1.5181,-1.5181,-1.5181,-1.5181,-1.5181,-1.5181,-1.5181,-1.5181,-1.5181,-1.5181,-1.5181,-1.5181,-1.5181,-1.5181,-1.5181,-1.5181,-1.5181,-1.5174,-1.5174,-1.5174,-1.5174,-1.5167,-1.5174,-1.516,-1.5133,-1.5126,-1.516,-1.5181,-1.5181,-1.5181,-1.5181,-1.5181,-1.5181,-1.5181,-1.5181,-1.5181,0.896,0.7001,0.4126,0.1795,-0.0,-0.0,-0.0,-0.0,-0.0,-0.0,-0.0,-0.0,-0.0,-0.0,-0.0,-0.0,-0.0,-0.0,-0.0,-0.0,-0.0,-0.0,-0.0,-0.0,-0.0,-0.0,-0.0,-0.0,-0.0,-0.0,-0.0,-0.0,-0.0,-0.0,-0.0,-0.0,-0.0,-0.0,-0.0,-0.0,-0.0,-0.0,-0.0,-0.0,-0.0,-0.0,-0.0,-0.0,-0.0,-0.0,-0.0,-0.0,-0.1906,-0.4,-0.685,-0.9883,-1.2361,-1.4071,-1.4623,-1.4993,-1.5181,-1.5181,-1.5181,-1.5181,-1.5181,-1.5181,-1.5181,-1.5181,-1.5181,-1.5181,-1.5181,-1.5181,-1.5181,-1.5181,-1.5181,-1.5181,-1.5181,-1.5181,-1.5181,-1.5181,-1.5181,-1.5181,-1.5181,-1.5181,-1.5181,-1.5181,-1.5181,-1.5181,-1.5181,-1.5181,-1.5181,-1.5181,-1.5181,-1.5181,-1.5181,-1.5181,-1.5181,-1.5181,-1.5181,-1.5181,-1.5181,-1.5181,-1.5181,-1.5167,-1.5181,-1.5181,-1.5181,-1.5181,-1.5181,-1.5181,-1.5181,-1.5181,-1.5181,-1.5181,-1.5181,0.8956,0.7001,0.4126,0.1795,-0.0,-0.0,-0.0,-0.0,-0.0,-0.0,-0.0,-0.0,-0.0,-0.0,-0.0,-0.0,-0.0,-0.0,-0.0,-0.0,-0.0,-0.0,-0.0,-0.0,-0.0,-0.0,-0.0,-0.0,-0.0,-0.0,-0.0,-0.0,-0.0,-0.0,-0.0,-0.0,-0.0,-0.0,-0.0,-0.0,-0.0,-0.0,-0.0,-0.0,-0.0,-0.0,-0.0,-0.0,-0.0,-0.0,-0.0,-0.0382,-0.1526,-0.324,-0.5522,-0.8178,-1.1217,-1.311,-1.4429,-1.4993,-1.5181,-1.5181,-1.5181,-1.5181,-1.5181,-1.5181,-1.5181,-1.5181,-1.5181,-1.5181,-1.5181,-1.5181,-1.5181,-1.5181,-1.5181,-1.5181,-1.5181,-1.5181,-1.5181,-1.5181,-1.5181,-1.5181,-1.5181,-1.5181,-1.5181,-1.5181,-1.5181,-1.5181,-1.5181,-1.5181,-1.5181,-1.5181,-1.5181,-1.5181,-1.5181,-1.5181,-1.5181,-1.5181,-1.5181,-1.5181,-1.5181,-1.5181,-1.5181,-1.5181,-1.5181,-1.5181,-1.5181,-1.5181,-1.5181,-1.5181,-1.5181,-1.5181,-1.5181,-1.5181,-1.5181,0.8956,0.7001,0.4126,0.1795,-0.0,-0.0,-0.0,-0.0,-0.0,-0.0,-0.0,-0.0,-0.0,-0.0,-0.0,-0.0,-0.0,-0.0,-0.0,-0.0,-0.0,-0.0,-0.0,-0.0,-0.0,-0.0,-0.0,-0.0,-0.0,-0.0,-0.0,-0.0,-0.0,-0.0,-0.0,-0.0,-0.0,-0.0,-0.0,-0.0,-0.0,-0.0,-0.0,-0.0,-0.0,-0.0,-0.0,-0.0,-0.0,-0.0,-0.0,-0.0,-0.1526,-0.2669,-0.4002,-0.609,-0.8932,-1.1962,-1.3858,-1.4805,-1.5181,-1.5181,-1.5181,-1.5181,-1.5181,-1.5181,-1.5181,-1.5181,-1.5181,-1.5181,-1.5181,-1.5181,-1.5181,-1.5181,-1.5181,-1.5181,-1.5181,-1.5181,-1.5181,-1.5181,-1.5181,-1.5181,-1.5181,-1.5181,-1.5181,-1.5181,-1.5181,-1.5181,-1.5181,-1.5181,-1.5181,-1.5181,-1.5181,-1.5181,-1.5181,-1.5181,-1.5181,-1.5181,-1.5181,-1.5181,-1.5181,-1.5181,-1.5181,-1.5181,-1.5181,-1.5181,-1.5181,-1.5181,-1.5181,-1.5181,-1.5181,-1.5181,-1.5181,-1.5181,-1.5181,0.8421,0.7001,0.4126,0.1795,-0.0,-0.0,-0.0,-0.0,-0.0,-0.0,-0.0,-0.0,-0.0,-0.0,-0.0,-0.0,-0.0,-0.0,-0.0,-0.0,-0.0,-0.0,-0.0,-0.0,-0.0,-0.0,-0.0,-0.0,-0.0,-0.0,-0.0,-0.0,-0.0,-0.0,-0.0,-0.0,-0.0,-0.0,-0.0,-0.0,-0.0,-0.0,-0.0,-0.0,-0.0,-0.0,-0.0,-0.0,-0.0,-0.0,-0.0,-0.0,-0.0763,-0.1716,-0.2858,-0.3998,-0.6461,-0.9492,-1.2345,-1.4052,-1.4805,-1.4993,-1.4993,-1.5181,-1.5181,-1.5181,-1.5181,-1.5181,-1.5181,-1.5181,-1.5181,-1.5181,-1.5181,-1.5181,-1.5181,-1.5181,-1.5181,-1.5181,-1.5181,-1.5181,-1.5181,-1.5181,-1.5181,-1.5181,-1.5181,-1.5181,-1.5181,-1.5181,-1.5181,-1.5181,-1.5181,-1.5181,-1.5181,-1.5181,-1.5181,-1.5181,-1.5181,-1.5181,-1.5181,-1.5181,-1.5181,-1.5181,-1.5181,-1.5181,-1.5181,-1.5181,-1.5181,-1.5181,-1.5181,-1.5181,-1.5181,-1.5181,-1.5181,-1.5181,-1.5181,0.7881,0.664,0.3947,0.1795,-0.0,-0.0,-0.0,-0.0,-0.0,-0.0,-0.0,-0.0,-0.0,-0.0,-0.0,-0.0,-0.0,-0.0,-0.0,-0.0,-0.0,-0.0,-0.0,-0.0,-0.0,-0.0,-0.0,-0.0,-0.0,-0.0,-0.0,-0.0,-0.0,-0.0,-0.0,-0.0,-0.0,-0.0,-0.0,-0.0,-0.0,-0.0,-0.0,-0.0,-0.0,-0.0,-0.0,-0.0,-0.0,-0.0,-0.0,-0.0,-0.0,-0.0763,-0.1906,-0.3047,-0.4943,-0.703,-1.0257,-1.2727,-1.4241,-1.4617,-1.4805,-1.5181,-1.5181,-1.5181,-1.5181,-1.5181,-1.5181,-1.5181,-1.5181,-1.5181,-1.5181,-1.5181,-1.5181,-1.5181,-1.5181,-1.5181,-1.5181,-1.5181,-1.5181,-1.5181,-1.5181,-1.5181,-1.5181,-1.5181,-1.5181,-1.5181,-1.5181,-1.5181,-1.5181,-1.5181,-1.5181,-1.5181,-1.5181,-1.5181,-1.5181,-1.5181,-1.5181,-1.5181,-1.5181,-1.5181,-1.5181,-1.5181,-1.5181,-1.5181,-1.5181,-1.5181,-1.5181,-1.5181,-1.5181,-1.5181,-1.5181,-1.5181,-1.5181,0.752,0.5562,0.3768,0.1795,-0.0,-0.0,-0.0,-0.0,-0.0,-0.0,-0.0,-0.0,-0.0,-0.0,-0.0,-0.0,-0.0,-0.0,-0.0,-0.0,-0.0,-0.0,-0.0,-0.0,-0.0,-0.0,-0.0,-0.0,-0.0,-0.0,-0.0,-0.0,-0.0,-0.0,-0.0,-0.0,-0.0,-0.0,-0.0,-0.0,-0.0,-0.0,-0.0,-0.0,-0.0,-0.0,-0.0,-0.0,-0.0,-0.0,-0.0,-0.0,-0.0,-0.0,-0.0,-0.2286,-0.3426,-0.5137,-0.7799,-1.1401,-1.367,-1.4422,-1.4798,-1.5181,-1.5181,-1.5181,-1.5181,-1.5181,-1.5181,-1.5181,-1.5181,-1.5181,-1.5181,-1.5181,-1.5181,-1.5181,-1.5181,-1.5181,-1.5181,-1.5181,-1.5181,-1.5181,-1.5215,-1.5221,-1.5194,-1.5194,-1.5181,-1.5181,-1.5181,-1.5181,-1.5181,-1.5181,-1.5181,-1.5181,-1.5181,-1.5181,-1.5181,-1.5181,-1.5181,-1.5181,-1.5181,-1.5181,-1.5181,-1.5181,-1.5181,-1.5181,-1.5181,-1.5181,-1.5181,-1.5181,-1.5181,-1.5181,-1.5181,-1.5181,-1.5181,0.7173,0.5565,0.359,0.1795,-0.0,-0.0,-0.0,-0.0,-0.0,-0.0,-0.0,-0.0,-0.0,-0.0,-0.0,-0.0,-0.0,-0.0,-0.0,-0.0,-0.0,-0.0,-0.0,-0.0,-0.0,-0.0,-0.0,-0.0,-0.0,-0.0,-0.0,-0.0,-0.0,-0.0,-0.0,-0.0,-0.0,-0.0,-0.0,-0.0,-0.0,-0.0,-0.0,-0.0,-0.0,-0.0,-0.0,-0.0,-0.0,-0.0,-0.0,-0.0,-0.0,-0.0,-0.0,-0.0,-0.2286,-0.3808,-0.552,-0.9694,-1.3116,-1.4241,-1.4805,-1.5181,-1.5181,-1.5181,-1.5181,-1.5181,-1.5181,-1.5181,-1.5181,-1.5181,-1.5181,-1.5181,-1.5181,-1.5181,-1.5181,-1.5181,-1.5181,-1.5181,-1.5181,-1.5181,-1.5228,-1.5276,-1.5242,-1.5208,-1.5194,-1.5187,-1.5201,-1.5181,-1.5181,-1.5181,-1.5181,-1.5181,-1.5181,-1.5181,-1.5181,-1.5181,-1.5181,-1.5181,-1.5181,-1.5181,-1.5181,-1.5181,-1.5181,-1.5181,-1.5181,-1.5181,-1.5181,-1.5181,-1.5181,-1.5181,-1.5181,-1.5181,-1.5181,0.6461,0.4848,0.3412,0.1796,-0.0,-0.0,-0.0,-0.0,-0.0,-0.0,-0.0,-0.0,-0.0,-0.0,-0.0,-0.0,-0.0,-0.0,-0.0,-0.0,-0.0,-0.0,-0.0,-0.0,-0.0,-0.0,-0.0,-0.0,-0.0,-0.0,-0.0,-0.0,-0.0,-0.0,-0.0,-0.0,-0.0,-0.0,-0.0,-0.0,-0.0,-0.0,-0.0,-0.0,-0.0,-0.0,-0.0,-0.0,-0.0,-0.0,-0.0,-0.0,-0.0,-0.0,-0.0,-0.0,-0.1716,-0.3048,-0.4569,-0.8368,-1.255,-1.4052,-1.4617,-1.4993,-1.5181,-1.5181,-1.5181,-1.5181,-1.5181,-1.5181,-1.5181,-1.5181,-1.5181,-1.5181,-1.5181,-1.5181,-1.5181,-1.5181,-1.5181,-1.5181,-1.5208,-1.5269,-1.533,-1.5398,-1.5438,-1.5377,-1.5316,-1.5303,-1.5282,-1.5248,-1.5181,-1.5181,-1.5181,-1.5181,-1.5181,-1.5181,-1.5181,-1.5181,-1.5181,-1.5181,-1.5181,-1.5181,-1.5181,-1.5181,-1.5181,-1.5181,-1.5181,-1.5181,-1.5181,-1.5181,-1.5181,-1.5181,-1.5181,-1.5181,-1.5181,0.5201,0.305,0.2874,0.1797,-0.0,-0.0,-0.0,-0.0,-0.0,-0.0,-0.0,-0.0,-0.0,-0.0,-0.0,-0.0,-0.0,-0.0,-0.0,-0.0,-0.0,-0.0,-0.0,-0.0,-0.0,-0.0,-0.0,-0.0,-0.0,-0.0,-0.0,-0.0,-0.0,-0.0,-0.0,-0.0,-0.0,-0.0,-0.0,-0.0,-0.0,-0.0,-0.0,-0.0,-0.0,-0.0,-0.0,-0.0,-0.0,-0.0,-0.0,-0.0,-0.0,-0.0,-0.0,-0.0,-0.0,-0.3051,-0.3619,-0.894,-1.1595,-1.3104,-1.367,-1.4241,-1.4805,-1.4993,-1.4993,-1.4993,-1.4993,-1.5181,-1.5181,-1.5181,-1.5181,-1.5181,-1.5181,-1.5181,-1.5181,-1.5235,-1.5248,-1.5276,-1.5343,-1.5418,-1.5466,-1.5527,-1.5615,-1.5588,-1.5486,-1.5425,-1.5398,-1.5323,-1.5255,-1.5221,-1.5221,-1.5181,-1.5181,-1.5181,-1.5181,-1.5181,-1.5181,-1.5181,-1.5181,-1.5181,-1.5181,-1.5181,-1.5181,-1.5181,-1.5181,-1.5181,-1.5181,-1.5181,-1.5181,-1.5181,-1.5181,-1.5181,-1.5181,0.4848,0.2875,0.2896,0.1815,-0.0,-0.0,-0.0,-0.0,-0.0,-0.0,-0.0,-0.0,-0.0,-0.0,-0.0,-0.0,-0.0,-0.0,-0.0,-0.0,-0.0,-0.0,-0.0,-0.0,-0.0,-0.0,-0.0,-0.0,-0.0,-0.0,-0.0,-0.0,-0.0,-0.0,-0.0,-0.0,-0.0,-0.0,-0.0,-0.0,-0.0,-0.0,-0.0,-0.0,-0.0,-0.0,-0.0,-0.0,-0.0,-0.0,-0.0,-0.0,-0.0,-0.0,-0.0,-0.0,-0.1908,-0.3051,-0.3431,-0.609,-0.8557,-1.064,-1.235,-1.3104,-1.3676,-1.3676,-1.4052,-1.4422,-1.4429,-1.4617,-1.4993,-1.5181,-1.5181,-1.5181,-1.5181,-1.5181,-1.5201,-1.5303,-1.5357,-1.5398,-1.5459,-1.5601,-1.5689,-1.571,-1.5784,-1.5791,-1.5703,-1.5601,-1.556,-1.5445,-1.5357,-1.5309,-1.5276,-1.5215,-1.5181,-1.5181,-1.5181,-1.5181,-1.5181,-1.5181,-1.5181,-1.5181,-1.5181,-1.5181,-1.5181,-1.5181,-1.5181,-1.5181,-1.5181,-1.5181,-1.5181,-1.5181,-1.5181,-1.5181,-1.5181,0.4695,0.2893,0.2191,0.1103,-0.0,-0.0,-0.0,-0.0,-0.0,-0.0,-0.0,-0.0,-0.0,-0.0,-0.0,-0.0,-0.0,-0.0,-0.0,-0.0,-0.0,-0.0,-0.0,-0.0,-0.0,-0.0,-0.0,-0.0,-0.0,-0.0,-0.0,-0.0,-0.0,-0.0,-0.0,-0.0,-0.0,-0.0,-0.0,-0.0,-0.0,-0.0,-0.0,-0.0,-0.0,-0.0,-0.0,-0.0,-0.0,-0.0,-0.0,-0.0,-0.0,-0.0,-0.0,-0.0,-0.0954,-0.2288,-0.324,-0.3619,-0.609,-0.7989,-1.0077,-1.1406,-1.1978,-1.2356,-1.2727,-1.3104,-1.3481,-1.4253,-1.4838,-1.4831,-1.4279,-1.409,-1.4121,-1.4128,-1.4203,-1.4297,-1.4527,-1.4565,-1.5041,-1.5178,-1.5689,-1.592,-1.5954,-1.594,-1.592,-1.5818,-1.571,-1.5588,-1.5472,-1.5411,-1.5343,-1.5276,-1.5221,-1.5181,-1.5181,-1.5181,-1.5181,-1.5181,-1.5181,-1.5181,-1.5181,-1.5181,-1.5181,-1.5181,-1.5181,-1.5181,-1.5181,-1.5181,-1.5181,-1.5181,-1.5181,-1.5194,-1.5208,0.4561,0.2743,0.0738,-0.0,-0.0,-0.0,-0.0,-0.0,-0.0,-0.0,-0.0,-0.0,-0.0,-0.0,-0.0,-0.0,-0.0,-0.0,-0.0,-0.0,-0.0,-0.0,-0.0,-0.0,-0.0,-0.0,-0.0,-0.0,-0.0,-0.0,-0.0,-0.0,-0.0,-0.0,-0.0,-0.0,-0.0,-0.0,-0.0,-0.0,-0.0,-0.0,-0.0,-0.0,-0.0,-0.0,-0.0,-0.0,-0.0,-0.0,-0.0,-0.0,-0.0,-0.0,-0.0,-0.0,-0.0,-0.1335,-0.2288,-0.2859,-0.3431,-0.5332,-0.704,-0.8936,-1.0077,-1.0455,-1.0829,-1.1222,-1.1805,-1.3346,-1.4323,-1.3388,-1.2259,-1.2292,-1.2341,-1.239,-1.246,-1.2703,-1.2909,-1.3349,-1.3828,-1.4323,-1.4806,-1.5254,-1.5645,-1.5433,-1.5605,-1.577,-1.5656,-1.573,-1.5615,-1.552,-1.5445,-1.5343,-1.5282,-1.5228,-1.5181,-1.5181,-1.5181,-1.5181,-1.5181,-1.5181,-1.5181,-1.5181,-1.5181,-1.5181,-1.5181,-1.5181,-1.5181,-1.5181,-1.5181,-1.5181,-1.5181,-1.5235,-1.5276,0.2565,0.0738,0.0186,-0.0,-0.0,-0.0,-0.0,-0.0,-0.0,-0.0,-0.0,-0.0,-0.0,-0.0,-0.0,-0.0,-0.0,-0.0,-0.0,-0.0,-0.0,-0.0,-0.0,-0.0,-0.0,-0.0,-0.0,-0.0,-0.0,-0.0,-0.0,-0.0,-0.0,-0.0,-0.0,-0.0,-0.0,-0.0,-0.0,-0.0,-0.0,-0.0,-0.0,-0.0,-0.0,-0.0,-0.0,-0.0,-0.0,-0.0,-0.0,-0.0,-0.0,-0.0,-0.0,-0.0,-0.0,-0.0382,-0.0,-0.2288,-0.3052,-0.2672,-0.3623,-0.495,-0.647,-0.7809,-0.8379,-0.9154,-0.9967,-1.1347,-1.2335,-1.1781,-1.0454,-0.9911,-1.0329,-1.0954,-1.1011,-1.1049,-1.1255,-1.1678,-1.2149,-1.2792,-1.3467,-1.4694,-1.5081,-1.4881,-1.5068,-1.5241,-1.5797,-1.5669,-1.5757,-1.5655,-1.556,-1.5466,-1.535,-1.5282,-1.5221,-1.5181,-1.5187,-1.5187,-1.5181,-1.5181,-1.5181,-1.5181,-1.5181,-1.5181,-1.5181,-1.5181,-1.5181,-1.5181,-1.5181,-1.5181,-1.5194,-1.5262,-1.5343,0.1112,-0.0,-0.0,-0.0,-0.0,-0.0,-0.0,-0.0,-0.0,-0.0,-0.0,-0.0,-0.0,-0.0,-0.0,-0.0,-0.0,-0.0,-0.0,-0.0,-0.0,-0.0,-0.0,-0.0,-0.0,-0.0,-0.0,-0.0,-0.0,-0.0,-0.0,-0.0,-0.0,-0.0,-0.0,-0.0,-0.0,-0.0,-0.0,-0.0,-0.0,-0.0,-0.0,-0.0,-0.0,-0.0,-0.0,-0.0,-0.0,-0.0,-0.0,-0.0,-0.0,-0.0,-0.0,-0.0,-0.0,-0.0,-0.0,-0.0,-0.1529,-0.1533,-0.1535,-0.2885,-0.4232,-0.5582,-0.6336,-0.6908,-0.8117,-0.9136,-0.9743,-1.0153,-0.8818,-0.7475,-0.8475,-0.9477,-0.9518,-0.9356,-0.9571,-0.9786,-1.0214,-1.0845,-1.1879,-1.3501,-1.4107,-1.3684,-1.3473,-1.3866,-1.4651,-1.5599,-1.5689,-1.5784,-1.5696,-1.5601,-1.5486,-1.5384,-1.533,-1.5269,-1.5201,-1.5201,-1.5187,-1.5181,-1.5181,-1.5181,-1.5181,-1.5181,-1.5181,-1.5181,-1.5181,-1.5181,-1.5201,-1.5228,-1.5269,-1.5526,-1.5418,-0.0,-0.0,-0.0,-0.0,-0.0,-0.0,-0.0,-0.0,-0.0,-0.0,-0.0,-0.0,-0.0,-0.0,-0.0,-0.0,-0.0,-0.0,-0.0,-0.0,-0.0,-0.0,-0.0,-0.0,-0.0,-0.0,-0.0,-0.0,-0.0,-0.0,-0.0,-0.0,-0.0,-0.0,-0.0,-0.0,-0.0,-0.0,-0.0,-0.0,-0.0,-0.0,-0.0,-0.0,-0.0,-0.0,-0.0,-0.0,-0.0,-0.0,-0.0,-0.0,-0.0,-0.0,-0.0,-0.0,-0.0,-0.0,-0.0,-0.0,-0.0,-0.0966,-0.1356,-0.1749,-0.2721,-0.3301,-0.3873,-0.4653,-0.5463,-0.7061,-0.7868,-0.7504,-0.6346,-0.5963,-0.6373,-0.6982,-0.7003,-0.702,-0.7424,-0.7631,-0.7834,-0.846,-0.9468,-1.0886,-1.1688,-1.1478,-1.1463,-1.1864,-1.2868,-1.4259,-1.5004,-1.5309,-1.5609,-1.5522,-1.5649,-1.5547,-1.5274,-1.5194,-1.5296,-1.5248,-1.5262,-1.5228,-1.5181,-1.5181,-1.5181,-1.5181,-1.5181,-1.5181,-1.5187,-1.5187,-1.5221,-1.5282,-1.5343,-1.5622,-1.5732,-0.0,-0.0,-0.0,-0.0,-0.0,-0.0,-0.0,-0.0,-0.0,-0.0,-0.0,-0.0,-0.0,-0.0,-0.0,-0.0,-0.0,-0.0,-0.0,-0.0,-0.0,-0.0,-0.0,-0.0,-0.0,-0.0,-0.0,-0.0,-0.0,-0.0,-0.0,-0.0,-0.0,-0.0,-0.0,-0.0,-0.0,-0.0,-0.0,-0.0,-0.0,-0.0,-0.0,-0.0,-0.0,-0.0,-0.0,-0.0,-0.0,-0.0,-0.0,-0.0,-0.0,-0.0,-0.0,-0.0,-0.0,-0.0,-0.0,-0.0,-0.0,-0.0,-0.0,-0.0,-0.0784,-0.0,-0.1567,-0.216,-0.3152,-0.4749,-0.5564,-0.4792,-0.4408,-0.4215,-0.4222,-0.443,-0.444,-0.4843,-0.5246,-0.5448,-0.5647,-0.6251,-0.7261,-0.8065,-0.8668,-0.8866,-0.8854,-0.9256,-1.0462,-1.1864,-1.3467,-1.3994,-1.5112,-1.5231,-1.5576,-1.5703,-1.5421,-1.5341,-1.5452,-1.5207,-1.5154,-1.5289,-1.5235,-1.5194,-1.5181,-1.5181,-1.5181,-1.5187,-1.5194,-1.5221,-1.5309,-1.5207,-1.5493,-1.5774,-1.589,0.038,-0.0,-0.0,-0.0,-0.0,-0.0,-0.0,-0.0,-0.0,-0.0,-0.0,-0.0,-0.0,-0.0,-0.0,-0.0,-0.0,-0.0,-0.0,-0.0,-0.0,-0.0,-0.0,-0.0,-0.0,-0.0,-0.0,-0.0,-0.0,-0.0,-0.0,-0.0,-0.0,-0.0,-0.0,-0.0,-0.0,-0.0,-0.0,-0.0,-0.0,-0.0,-0.0,-0.0,-0.0,-0.0,-0.0,-0.0,-0.0,-0.0,-0.0,-0.0,-0.0,-0.0,-0.0,-0.0,-0.0,-0.0,-0.0,-0.0,-0.0,-0.0,-0.0,-0.0,-0.0,-0.0,-0.0,-0.1192,-0.1197,-0.2404,-0.2605,-0.2011,-0.2013,-0.1813,-0.1814,-0.2018,-0.2019,-0.2221,-0.2826,-0.3231,-0.3431,-0.3632,-0.4438,-0.5043,-0.5848,-0.6452,-0.6447,-0.6843,-0.8052,-0.9263,-1.0868,-1.2258,-1.2985,-1.4564,-1.5348,-1.546,-1.536,-1.5482,-1.5415,-1.5499,-1.5418,-1.5343,-1.5282,-1.5255,-1.5221,-1.5181,-1.5187,-1.5242,-1.5276,-1.5316,-1.5227,-1.5341,-1.5628,-1.5918,-1.6021,0.1144,-0.0,-0.0,-0.0,-0.0,-0.0,-0.0,-0.0,-0.0,-0.0,-0.0,-0.0,-0.0,-0.0,-0.0,-0.0,-0.0,-0.0,-0.0,-0.0,-0.0,-0.0,-0.0,-0.0,-0.0,-0.0,-0.0,-0.0,-0.0,-0.0,-0.0,-0.0,-0.0,-0.0,-0.0,-0.0,-0.0,-0.0,-0.0,-0.0,-0.0,-0.0,-0.0,-0.0,-0.0,-0.0,-0.0,-0.0,-0.0,-0.0,-0.0,-0.0,-0.0,-0.0,-0.0,-0.0,-0.0,-0.0,-0.0,-0.0,-0.0,-0.0,-0.0,-0.0,-0.0,-0.0,-0.0,-0.0,-0.0,-0.0,-0.0,-0.0,-0.0,-0.0,-0.0,-0.0,-0.0,-0.0,-0.0,-0.0,-0.0,-0.0,-0.0,-0.0,-0.0,-0.0,-0.0,-0.0,-0.524,-0.6447,-0.7854,-0.926,-1.0236,-1.2038,-1.4253,-1.4991,-1.4687,-1.5649,-1.5569,-1.5615,-1.5499,-1.5459,-1.5404,-1.533,-1.5296,-1.5303,-1.533,-1.5391,-1.5418,-1.5438,-1.5361,-1.5482,-1.5744,-1.5839,-1.6131,0.2096,-0.0,-0.0,-0.0,-0.0,-0.0,-0.0,-0.0,-0.0,-0.0,-0.0,-0.0,-0.0,-0.0,-0.0,-0.0,-0.0,-0.0,-0.0,-0.0,-0.0,-0.0,-0.0,-0.0,-0.0,-0.0,-0.0,-0.0,-0.0,-0.0,-0.0,-0.0,-0.0,-0.0,-0.0,-0.0,-0.0,-0.0,-0.0,-0.0,-0.0,-0.0,-0.0,-0.0,-0.0,-0.0,-0.0,-0.0,-0.0,-0.0,-0.0,-0.0,-0.0,-0.0,-0.0,-0.0,-0.0,-0.0,-0.0,-0.0,-0.0,-0.0,-0.0,-0.0,-0.0,-0.0,-0.0,-0.0,-0.0,-0.0,-0.0,-0.0,-0.0,-0.0,-0.0,-0.0,-0.0,-0.0,-0.0,-0.0,-0.0,-0.0,-0.0,-0.0,-0.0,-0.0,-0.0,-0.0,-0.0,-0.4033,-0.0,-0.6246,-0.7248,-1.0062,-1.2468,-1.3467,-1.3802,-1.4985,-1.573,-1.5582,-1.5669,-1.5615,-1.5554,-1.5466,-1.5493,-1.5527,-1.5554,-1.5527,-1.5574,-1.5608,-1.5522,-1.5622,-1.5879,-1.5934,-1.6008]},{"header":{"parameterUnit":"m.s-1","parameterCategory":1,"la1":31.0,"la2":29.5877,"lo1":-88.7671,"lo2":-86.6584,"dy":0.0162,"dx":0.0185,"nx":115,"ny":88,"refTime":"2024-04-07T06:00:00:Z","depth":0,"parameterNumber":3,"parameterNumberName":"V-component_of_WINDS"},"data":[0.0,0.0,0.0,0.0,0.0,0.0,0.0,0.0,0.0,0.0,0.0,0.0,0.0,0.0,0.0,0.0,0.0,0.0,0.0,0.0,0.0,0.0,0.0,0.0,0.0,0.0,0.0,0.0,0.0,0.0,0.0,0.0,0.0,0.0,0.0,0.0,0.0,0.0,0.0,0.0,0.0,0.0,0.0,0.0,0.0,0.0,0.0,0.0,0.0,0.0,0.0,0.0,0.0,0.0,0.0,0.0,0.0,0.0,0.0,0.0,0.0,0.0,0.0,0.0,0.0,0.0,0.0,0.0,0.0,0.0,0.0,0.0,0.0,0.0,0.0,0.0,0.0,0.0,0.0,0.0,0.0,0.0,0.0,0.0,0.0,0.0,0.0,0.0,0.0,0.0,0.0,0.0,0.0,0.0,0.0,0.0,0.0,0.0,0.0,0.0,0.0,0.0,0.0,0.0,0.0,0.0,0.0,0.0,0.0,0.0,0.0,0.0,0.0,0.0,0.0,0.0,0.0,0.0,0.0,0.0,0.0,0.0,0.0,0.0,0.0,0.0,0.0,0.0,0.0,0.0,0.0,0.0,0.0,0.0,0.0,0.0,0.0,0.0,0.0,0.0,0.0,0.0,0.0,0.0,0.0,0.0,0.0,0.0,0.0,0.0,0.0,0.0,0.0,0.0,0.0,0.0,0.0,0.0,0.0,0.0,0.0,0.0,0.0,0.0,0.0,0.0,0.0,0.0,0.0,0.0,0.0,0.0,0.0,0.0,0.0,0.0,0.0,0.0,0.0,0.0,0.0,0.0,0.0,0.0,0.0,0.0,0.0,0.0,0.0,0.0,0.0,0.0,0.0,0.0,0.0,0.0,0.0,0.0,0.0,0.0,0.0,0.0,0.0,0.0,0.0,0.0,0.0,0.0,0.0,0.0,0.0,0.0,0.0,0.0,0.0,0.0,0.0,0.0,0.0,0.0,0.0,0.0,0.0,0.0,0.0,0.0,0.0,0.0,0.0,0.0,0.0,0.0,0.0,0.0,0.0,0.0,0.0,0.0,0.0,0.0,0.0,0.0,0.0,0.0,0.0,0.0,0.0,0.0,0.0,0.0,0.0,0.0,0.0,0.0,0.0,0.0,0.0,0.0,0.0,0.0,0.0,0.0,0.0,0.0,0.0,0.0,0.0,0.0,0.0,0.0,0.0,0.0,0.0,0.0,0.0,0.0,0.0,0.0,0.0,0.0,0.0,0.0,0.0,0.0,0.0,0.0,0.0,0.0,0.0,0.0,0.0,0.0,0.0,0.0,0.0,0.0,0.0,0.0,0.0,0.0,0.0,0.0,0.0,0.0,0.0,0.0,0.0,0.0,0.0,0.0,0.0,0.0,0.0,0.0,0.0,0.0,0.0,0.0,0.0,0.0,0.0,0.0,0.0,0.0,0.0,0.0,0.0,0.0,0.0,0.0,0.0,0.0,0.0,0.0,0.0,0.0,0.0,0.0,0.0,0.0,0.0,0.0,0.0,0.0,0.0,0.0,0.0,0.0,0.0,0.0,0.0,0.0,0.0,0.0,0.0,0.0,0.0,0.0,0.0,0.0,0.0,0.0,0.0,0.0,0.0,0.0,0.0,0.0,0.0,0.0,0.0,0.0,0.0,0.0,0.0,0.0,0.0,0.0,0.0,0.0,0.0,0.0,0.0,0.0,0.0,0.0,0.0,0.0,0.0,0.0,0.0,0.0,0.0,0.0,0.0,0.0,0.0,0.0,0.0,0.0,0.0,0.0,0.0,0.0,0.0,0.0,0.0,0.0,0.0,0.0,0.0,0.0,0.0,0.0,0.0,0.0,0.0,0.0,0.0,0.0,0.0,0.0,0.0,0.0,0.0,0.0,0.0,0.0,0.0,0.0,0.0,0.0,0.0,0.0,0.0,0.0,0.0,0.0,0.0,0.0,0.0,0.0,0.0,0.0,0.0,0.0,0.0,0.0,0.0,0.0,0.0,0.0,0.0,0.0,0.0,0.0,0.0,0.0,0.0,0.0,0.0,0.0,0.0,0.0,0.0,0.0,0.0,0.0,0.0,0.0,0.0,0.0,0.0,0.0,0.0,0.0,0.0,0.0,0.0,0.0,0.0,0.0,0.0,0.0,0.0,0.0,0.0,0.0,0.0,0.0,0.0,0.0,0.0,0.0,0.0,0.0,0.0,0.0,0.0,0.0,0.0,0.0,0.0,0.0,0.0,0.0,0.0,0.0,0.0,0.0,0.0,0.0,0.0,0.0,0.0,0.0,0.0,0.0,0.0,0.0,0.0,0.0,0.0,0.0,0.0,0.0,0.0,0.0,0.0,0.0,0.0,0.0,0.0,0.0,0.0,0.0,0.0,0.0,0.0,0.0,0.0,0.0,0.0,0.0,0.0,0.0,0.0,0.0,0.0,0.0,0.0,0.0,0.0,0.0,0.0,0.0,0.0,0.0,0.0,0.0,0.0,0.0,0.0,0.0,0.0,0.0,0.0,0.0,0.0,0.0,0.0,0.0,0.0,0.0,0.0,0.0,0.0,0.0,0.0,0.0,0.0,0.0,0.0,0.0,0.0,0.0,0.0,0.0,0.0,0.0,0.0,0.0,0.0,0.0,0.0,0.0,0.0,0.0,0.0,0.0,0.0,0.0,0.0,0.0,0.0,0.0,0.0,0.0,0.0,0.0,0.0,0.0,0.0,0.0,0.0,0.0,0.0,0.0,0.0,0.0,0.0,0.0,0.0,0.0,0.0,0.0,0.0,0.0,0.0,0.0,0.0,0.0,0.0,0.0,0.0,0.0,0.0,0.0,0.0,0.0,0.0,0.0,0.0,0.0,0.0,0.0,0.0,0.0,0.0,0.0,0.0,0.0,0.0,0.0,0.0,0.0,0.0,0.0,0.0,0.0,0.0,0.0,0.0,0.0,0.0,0.0,0.0,0.0,0.0,0.0,0.0,0.0,0.0,0.0,0.0,0.0,0.0,0.0,0.0,0.0,0.0,0.0,0.0,0.0,0.0,0.0,0.0,0.0,0.0,0.0,0.0,0.0,0.0,0.0,0.0,0.0,0.0,0.0,0.0,0.0,0.0,0.0,0.0,0.0,0.0,0.0,0.0,0.0,0.0,0.0,0.0,0.0,0.0,0.0,0.0,0.0,0.0,0.0,0.0,0.0,0.0,0.0,0.0,0.0,0.0,0.0,0.0,0.0,0.0,0.0,0.0,0.0,0.0,0.0,0.0,0.0,0.0,0.0,0.0,0.0,0.0,0.0,0.0,0.0,0.0,0.0,0.0,0.0,0.0,0.0,0.0,0.0,0.0,0.0,0.0,0.0,0.0,0.0,0.0,0.0,0.0,0.0,0.0,0.0,0.0,0.0,0.0,0.0,0.0,0.0,0.0,0.0,0.0,0.0,0.0,0.0,0.0,0.0,0.0,0.0,0.0,0.0,0.0,0.0,0.0,0.0,0.0,0.0,0.0,0.0,0.0,0.0,0.0,0.0,0.0,0.0,0.0,0.0,0.0,0.0,0.0,0.0,0.0,0.0,0.0,0.0,0.0,0.0,0.0,0.0,0.0,0.0,0.0,0.0,0.0,0.0,0.0,0.0,0.0,0.0,0.0,0.0,0.0,0.0,0.0,0.0,0.0,0.0,0.0,0.0,0.0,0.0,0.0,0.0,0.0,0.0,0.0,0.0,0.0,0.0,0.0,0.0,0.0,0.0,0.0,0.0,0.0,0.0,0.0,0.0,0.0,0.0,0.0,0.0,0.0,0.0,0.0,0.0,0.0,0.0,0.0,0.0,0.0,0.0,0.0,0.0,0.0,0.0,0.0,0.0,0.0,0.0,0.0,0.0,0.0,0.0,0.0,0.0,0.0,0.0,0.0,0.0,0.0,0.0,0.0,0.0,0.0,0.0,0.0,0.0,0.0,0.0,0.0,0.0,0.0,0.0,0.0,0.0,0.0,0.0,0.0,0.0,0.0,0.0,0.0,0.0,0.0,0.0,0.0,0.0,0.0,0.0,0.0,0.0,0.0,0.0,0.0,0.0,0.0,0.0,0.0,0.0,0.0,0.0,0.0,0.0,0.0,0.0,0.0,0.0,0.0,0.0,0.0,0.0,0.0,0.0,0.0,0.0,0.0,0.0,0.0,0.0,0.0,0.0,0.0,0.0,0.0,0.0,0.0,0.0,0.0,0.0,0.0,0.0,0.0,0.0,0.0,0.0,0.0,0.0,0.0,0.0,0.0,0.0,0.0,0.0,-7.3971,0.0,0.0,0.0,0.0,0.0,0.0,0.0,0.0,0.0,0.0,0.0,0.0,0.0,0.0,0.0,0.0,0.0,0.0,0.0,0.0,0.0,0.0,0.0,0.0,0.0,0.0,0.0,0.0,0.0,0.0,0.0,0.0,0.0,0.0,0.0,0.0,0.0,0.0,0.0,0.0,0.0,0.0,0.0,0.0,0.0,0.0,0.0,0.0,0.0,0.0,0.0,0.0,0.0,0.0,0.0,0.0,0.0,0.0,0.0,0.0,0.0,0.0,0.0,0.0,0.0,0.0,0.0,0.0,0.0,0.0,0.0,0.0,0.0,0.0,0.0,0.0,0.0,0.0,0.0,0.0,0.0,0.0,0.0,0.0,0.0,0.0,0.0,0.0,0.0,0.0,0.0,0.0,0.0,0.0,0.0,0.0,0.0,0.0,0.0,0.0,0.0,0.0,0.0,0.0,0.0,0.0,0.0,0.0,0.0,0.0,-7.7117,-7.7062,-7.6145,-7.5322,-7.4765,0.0,0.0,0.0,0.0,0.0,0.0,0.0,0.0,0.0,0.0,0.0,0.0,0.0,0.0,0.0,0.0,0.0,0.0,0.0,0.0,0.0,0.0,0.0,0.0,0.0,0.0,0.0,0.0,0.0,0.0,0.0,0.0,0.0,0.0,0.0,0.0,0.0,0.0,0.0,0.0,0.0,0.0,0.0,0.0,0.0,0.0,0.0,0.0,0.0,0.0,0.0,0.0,0.0,0.0,0.0,0.0,0.0,0.0,0.0,0.0,0.0,0.0,0.0,0.0,0.0,0.0,0.0,0.0,0.0,0.0,0.0,0.0,0.0,0.0,0.0,0.0,0.0,0.0,0.0,0.0,0.0,0.0,0.0,0.0,0.0,0.0,0.0,0.0,0.0,0.0,0.0,0.0,0.0,0.0,0.0,0.0,0.0,0.0,0.0,0.0,0.0,0.0,0.0,0.0,0.0,0.0,0.0,0.0,0.0,0.0,0.0,0.0,-7.6287,-7.5571,-7.4899,0.0,0.0,0.0,0.0,0.0,0.0,0.0,0.0,0.0,0.0,0.0,0.0,0.0,0.0,0.0,0.0,0.0,0.0,0.0,0.0,0.0,0.0,0.0,0.0,0.0,0.0,0.0,0.0,0.0,0.0,0.0,0.0,0.0,0.0,0.0,0.0,0.0,0.0,0.0,0.0,0.0,0.0,0.0,0.0,0.0,0.0,0.0,0.0,0.0,0.0,0.0,0.0,0.0,0.0,0.0,0.0,0.0,0.0,0.0,0.0,0.0,0.0,0.0,0.0,0.0,0.0,0.0,0.0,0.0,0.0,0.0,0.0,0.0,0.0,0.0,0.0,0.0,0.0,0.0,0.0,0.0,0.0,0.0,0.0,0.0,0.0,0.0,0.0,0.0,0.0,0.0,0.0,0.0,0.0,0.0,0.0,0.0,0.0,0.0,0.0,0.0,0.0,0.0,0.0,0.0,0.0,0.0,0.0,0.0,0.0,-7.7091,-7.7101,-7.6833,0.0,-7.3933,0.0,0.0,0.0,0.0,0.0,0.0,0.0,0.0,0.0,0.0,0.0,0.0,0.0,0.0,0.0,0.0,0.0,0.0,0.0,0.0,0.0,0.0,0.0,0.0,0.0,0.0,0.0,0.0,0.0,0.0,0.0,0.0,0.0,0.0,0.0,0.0,0.0,0.0,0.0,0.0,0.0,0.0,0.0,0.0,0.0,0.0,0.0,0.0,0.0,0.0,0.0,0.0,0.0,0.0,0.0,0.0,0.0,0.0,0.0,0.0,0.0,0.0,0.0,0.0,0.0,0.0,0.0,0.0,0.0,0.0,0.0,0.0,0.0,0.0,0.0,0.0,0.0,0.0,0.0,0.0,0.0,0.0,0.0,0.0,0.0,0.0,0.0,0.0,0.0,0.0,0.0,0.0,0.0,0.0,0.0,0.0,0.0,0.0,0.0,0.0,0.0,0.0,0.0,0.0,0.0,0.0,0.0,0.0,0.0,0.0,-7.7091,-7.7101,-7.6833,-7.5798,0.0,0.0,0.0,0.0,0.0,0.0,0.0,0.0,0.0,0.0,0.0,0.0,0.0,0.0,0.0,0.0,0.0,0.0,0.0,0.0,0.0,0.0,0.0,0.0,0.0,0.0,0.0,0.0,0.0,0.0,0.0,0.0,0.0,0.0,0.0,0.0,0.0,0.0,0.0,0.0,0.0,0.0,0.0,0.0,0.0,0.0,0.0,0.0,0.0,0.0,0.0,0.0,0.0,0.0,0.0,0.0,0.0,0.0,0.0,0.0,0.0,0.0,0.0,0.0,0.0,0.0,0.0,0.0,0.0,0.0,0.0,0.0,0.0,0.0,0.0,0.0,0.0,0.0,0.0,0.0,0.0,0.0,0.0,0.0,0.0,0.0,0.0,0.0,0.0,0.0,0.0,0.0,0.0,0.0,0.0,0.0,0.0,0.0,0.0,0.0,0.0,0.0,0.0,0.0,0.0,0.0,0.0,0.0,0.0,0.0,-7.7137,-7.7087,-7.7043,-7.6777,-7.5786,-7.4007,0.0,0.0,0.0,0.0,0.0,0.0,0.0,0.0,0.0,0.0,0.0,0.0,0.0,0.0,0.0,0.0,0.0,0.0,0.0,0.0,0.0,0.0,0.0,0.0,0.0,0.0,0.0,0.0,0.0,0.0,0.0,0.0,0.0,0.0,0.0,0.0,0.0,0.0,0.0,0.0,0.0,0.0,0.0,0.0,0.0,0.0,0.0,0.0,0.0,0.0,0.0,0.0,0.0,0.0,0.0,0.0,0.0,0.0,0.0,0.0,0.0,0.0,0.0,0.0,0.0,0.0,0.0,0.0,0.0,0.0,0.0,0.0,0.0,0.0,0.0,0.0,0.0,0.0,0.0,0.0,0.0,0.0,0.0,0.0,0.0,0.0,0.0,0.0,0.0,0.0,0.0,0.0,0.0,0.0,0.0,0.0,0.0,0.0,0.0,0.0,0.0,0.0,0.0,0.0,0.0,0.0,0.0,0.0,-7.7178,-7.7137,-7.7039,-7.6934,-7.6738,-7.5856,0.0,0.0,0.0,0.0,0.0,0.0,0.0,0.0,0.0,0.0,0.0,0.0,0.0,0.0,0.0,0.0,0.0,0.0,0.0,0.0,0.0,0.0,0.0,0.0,0.0,0.0,0.0,0.0,0.0,0.0,0.0,0.0,0.0,0.0,0.0,0.0,0.0,0.0,0.0,0.0,0.0,0.0,0.0,0.0,0.0,0.0,0.0,0.0,0.0,0.0,0.0,0.0,0.0,0.0,0.0,0.0,0.0,0.0,0.0,0.0,0.0,0.0,0.0,0.0,0.0,0.0,0.0,0.0,0.0,0.0,0.0,0.0,0.0,0.0,0.0,0.0,0.0,0.0,0.0,0.0,0.0,0.0,0.0,0.0,0.0,0.0,0.0,0.0,0.0,0.0,0.0,0.0,0.0,0.0,0.0,0.0,0.0,0.0,0.0,0.0,0.0,0.0,0.0,0.0,0.0,0.0,0.0,0.0,0.0,-7.7147,-7.7133,-7.7068,-7.6965,-7.6342,-7.5418,0.0,0.0,0.0,0.0,0.0,0.0,0.0,0.0,0.0,0.0,0.0,0.0,0.0,0.0,0.0,0.0,0.0,0.0,0.0,0.0,0.0,0.0,0.0,0.0,0.0,0.0,0.0,0.0,0.0,0.0,0.0,0.0,0.0,0.0,0.0,0.0,0.0,0.0,0.0,0.0,0.0,0.0,0.0,0.0,0.0,0.0,0.0,0.0,0.0,0.0,0.0,0.0,0.0,0.0,0.0,0.0,0.0,0.0,0.0,0.0,0.0,0.0,0.0,0.0,0.0,0.0,0.0,0.0,0.0,0.0,0.0,0.0,0.0,0.0,0.0,0.0,0.0,0.0,0.0,0.0,0.0,0.0,0.0,0.0,0.0,0.0,0.0,0.0,0.0,0.0,0.0,0.0,0.0,0.0,0.0,0.0,0.0,0.0,0.0,0.0,0.0,0.0,0.0,0.0,0.0,0.0,0.0,0.0,0.0,-7.7148,0.0,-7.7117,-7.7023,-7.6145,-7.5239,0.0,0.0,0.0,0.0,0.0,0.0,0.0,0.0,0.0,0.0,0.0,0.0,0.0,0.0,0.0,0.0,0.0,0.0,0.0,0.0,0.0,0.0,0.0,0.0,0.0,0.0,0.0,0.0,0.0,0.0,0.0,0.0,0.0,0.0,0.0,0.0,0.0,0.0,0.0,0.0,0.0,0.0,0.0,0.0,0.0,0.0,0.0,0.0,0.0,0.0,0.0,0.0,0.0,0.0,0.0,0.0,0.0,0.0,0.0,0.0,0.0,0.0,0.0,0.0,0.0,0.0,0.0,0.0,0.0,0.0,0.0,0.0,0.0,0.0,0.0,0.0,0.0,0.0,0.0,0.0,0.0,0.0,0.0,0.0,0.0,0.0,0.0,0.0,0.0,0.0,0.0,0.0,0.0,0.0,0.0,0.0,0.0,0.0,0.0,0.0,0.0,0.0,0.0,0.0,0.0,0.0,0.0,0.0,-7.5508,-7.7148,-7.7187,-7.7183,-7.7107,-7.6242,-7.5345,0.0,0.0,0.0,0.0,0.0,0.0,0.0,0.0,0.0,0.0,0.0,0.0,0.0,0.0,0.0,0.0,0.0,0.0,0.0,0.0,0.0,0.0,0.0,0.0,0.0,0.0,0.0,0.0,0.0,0.0,0.0,0.0,0.0,0.0,0.0,0.0,0.0,0.0,0.0,0.0,0.0,0.0,0.0,0.0,0.0,0.0,0.0,0.0,0.0,0.0,0.0,0.0,0.0,0.0,0.0,0.0,0.0,0.0,0.0,0.0,0.0,0.0,0.0,0.0,0.0,0.0,0.0,0.0,0.0,0.0,0.0,0.0,0.0,0.0,0.0,0.0,0.0,0.0,0.0,0.0,0.0,0.0,0.0,0.0,0.0,0.0,0.0,0.0,0.0,0.0,0.0,0.0,0.0,0.0,0.0,0.0,0.0,0.0,0.0,0.0,0.0,0.0,0.0,0.0,0.0,0.0,0.0,0.0,0.0,-7.8047,-7.75,-7.746,-7.7925,-7.6597,-7.5425,0.0,0.0,0.0,0.0,0.0,0.0,0.0,0.0,0.0,0.0,0.0,0.0,0.0,0.0,0.0,0.0,0.0,0.0,0.0,0.0,0.0,0.0,0.0,0.0,0.0,0.0,0.0,0.0,0.0,0.0,0.0,0.0,0.0,0.0,0.0,0.0,0.0,0.0,0.0,0.0,0.0,0.0,0.0,0.0,0.0,0.0,0.0,0.0,0.0,0.0,0.0,0.0,0.0,0.0,0.0,0.0,0.0,0.0,0.0,0.0,0.0,0.0,0.0,0.0,0.0,0.0,0.0,0.0,0.0,0.0,0.0,0.0,0.0,0.0,0.0,0.0,0.0,0.0,0.0,0.0,0.0,0.0,0.0,0.0,0.0,0.0,0.0,0.0,0.0,0.0,0.0,0.0,0.0,0.0,0.0,0.0,0.0,0.0,0.0,0.0,0.0,0.0,0.0,0.0,0.0,0.0,0.0,0.0,0.0,-7.8867,-7.8398,-7.8203,-7.8437,-7.7109,-7.5781,-7.457,0.0,0.0,0.0,0.0,0.0,0.0,0.0,0.0,0.0,0.0,0.0,0.0,0.0,0.0,0.0,0.0,0.0,0.0,0.0,0.0,0.0,0.0,0.0,0.0,0.0,0.0,0.0,0.0,0.0,0.0,0.0,0.0,0.0,0.0,0.0,0.0,0.0,0.0,0.0,0.0,0.0,0.0,0.0,0.0,0.0,0.0,0.0,0.0,0.0,0.0,0.0,0.0,0.0,0.0,0.0,0.0,0.0,0.0,0.0,0.0,0.0,0.0,0.0,0.0,0.0,0.0,0.0,0.0,0.0,0.0,0.0,0.0,0.0,0.0,0.0,0.0,0.0,0.0,0.0,0.0,0.0,0.0,0.0,0.0,0.0,0.0,0.0,0.0,0.0,0.0,0.0,0.0,0.0,0.0,0.0,0.0,0.0,0.0,0.0,0.0,0.0,0.0,0.0,0.0,0.0,0.0,0.0,0.0,-7.9765,-7.9844,-7.9531,-7.8672,-7.7773,-7.6484,0.0,0.0,0.0,0.0,0.0,0.0,0.0,0.0,0.0,0.0,0.0,0.0,0.0,0.0,0.0,0.0,0.0,0.0,0.0,0.0,0.0,0.0,0.0,0.0,0.0,0.0,0.0,0.0,0.0,0.0,0.0,0.0,0.0,0.0,0.0,0.0,0.0,0.0,0.0,0.0,0.0,0.0,0.0,0.0,0.0,0.0,0.0,0.0,0.0,0.0,0.0,0.0,0.0,0.0,0.0,0.0,0.0,0.0,0.0,0.0,0.0,0.0,0.0,0.0,0.0,0.0,0.0,0.0,0.0,0.0,0.0,0.0,0.0,0.0,0.0,0.0,0.0,0.0,0.0,0.0,0.0,0.0,0.0,0.0,0.0,0.0,0.0,0.0,0.0,0.0,0.0,0.0,0.0,0.0,0.0,0.0,0.0,0.0,0.0,0.0,0.0,0.0,0.0,0.0,0.0,0.0,0.0,0.0,0.0,-8.0664,-8.1914,-8.1875,-8.039,-7.8906,-7.7656,0.0,0.0,0.0,0.0,0.0,0.0,0.0,0.0,0.0,0.0,0.0,0.0,0.0,0.0,0.0,0.0,0.0,0.0,0.0,0.0,0.0,0.0,0.0,0.0,0.0,0.0,0.0,0.0,0.0,0.0,0.0,0.0,0.0,0.0,0.0,0.0,0.0,0.0,0.0,0.0,0.0,0.0,0.0,0.0,0.0,0.0,0.0,0.0,0.0,0.0,0.0,0.0,0.0,0.0,0.0,0.0,0.0,0.0,0.0,0.0,0.0,0.0,0.0,0.0,0.0,0.0,0.0,0.0,0.0,0.0,0.0,0.0,0.0,0.0,0.0,0.0,0.0,0.0,0.0,0.0,0.0,0.0,0.0,0.0,0.0,0.0,0.0,0.0,0.0,0.0,0.0,0.0,0.0,0.0,0.0,0.0,0.0,0.0,0.0,0.0,0.0,0.0,0.0,0.0,0.0,0.0,0.0,0.0,-8.0312,-8.1523,-8.289,-8.3125,-8.2109,-8.082,-7.918,0.0,0.0,0.0,0.0,0.0,0.0,0.0,0.0,0.0,0.0,0.0,0.0,0.0,0.0,0.0,0.0,0.0,0.0,0.0,0.0,0.0,0.0,0.0,0.0,0.0,0.0,0.0,0.0,0.0,0.0,0.0,0.0,0.0,0.0,0.0,0.0,0.0,0.0,0.0,0.0,0.0,0.0,0.0,0.0,0.0,0.0,0.0,0.0,0.0,0.0,0.0,0.0,0.0,0.0,0.0,0.0,0.0,0.0,0.0,0.0,0.0,0.0,0.0,0.0,0.0,0.0,0.0,0.0,0.0,0.0,0.0,0.0,0.0,0.0,0.0,0.0,0.0,0.0,0.0,0.0,0.0,0.0,0.0,0.0,0.0,0.0,0.0,0.0,0.0,0.0,0.0,0.0,0.0,0.0,0.0,0.0,0.0,0.0,0.0,0.0,0.0,0.0,0.0,0.0,0.0,0.0,0.0,0.0,-8.0664,-8.2422,-8.3398,-8.3828,-8.3711,-8.2812,-8.0781,0.0,0.0,0.0,0.0,0.0,0.0,0.0,0.0,0.0,0.0,0.0,0.0,0.0,0.0,0.0,0.0,0.0,0.0,0.0,0.0,0.0,0.0,0.0,0.0,0.0,0.0,0.0,0.0,0.0,0.0,0.0,0.0,0.0,0.0,0.0,0.0,0.0,0.0,0.0,0.0,0.0,0.0,0.0,0.0,0.0,0.0,0.0,0.0,0.0,0.0,0.0,0.0,0.0,0.0,0.0,0.0,0.0,0.0,0.0,0.0,0.0,0.0,0.0,0.0,0.0,0.0,0.0,0.0,0.0,0.0,0.0,0.0,0.0,0.0,0.0,0.0,0.0,0.0,0.0,0.0,0.0,0.0,0.0,0.0,0.0,0.0,0.0,0.0,0.0,0.0,0.0,0.0,0.0,0.0,0.0,0.0,0.0,0.0,0.0,0.0,0.0,0.0,0.0,0.0,0.0,0.0,0.0,0.0,-8.1562,-8.3281,-8.4844,-8.5312,-8.4648,-8.3125,-8.1328,0.0,0.0,0.0,0.0,0.0,0.0,0.0,0.0,0.0,0.0,0.0,0.0,0.0,0.0,0.0,0.0,0.0,0.0,0.0,0.0,0.0,0.0,0.0,0.0,0.0,0.0,0.0,0.0,0.0,0.0,0.0,0.0,0.0,0.0,0.0,0.0,0.0,0.0,0.0,0.0,0.0,0.0,0.0,0.0,0.0,0.0,0.0,0.0,-8.1631,0.0,0.0,0.0,0.0,0.0,0.0,0.0,0.0,0.0,0.0,0.0,0.0,0.0,0.0,0.0,0.0,0.0,0.0,0.0,0.0,0.0,0.0,0.0,0.0,0.0,0.0,0.0,0.0,0.0,0.0,0.0,0.0,0.0,0.0,0.0,0.0,0.0,0.0,0.0,0.0,0.0,0.0,0.0,0.0,0.0,0.0,0.0,0.0,0.0,0.0,0.0,0.0,0.0,0.0,0.0,0.0,0.0,0.0,0.0,-8.2031,-8.414,-8.5508,-8.5781,-8.4922,-8.3984,-8.2304,0.0,0.0,0.0,0.0,0.0,0.0,0.0,0.0,0.0,0.0,0.0,0.0,0.0,0.0,0.0,0.0,0.0,0.0,0.0,0.0,0.0,0.0,0.0,0.0,0.0,0.0,0.0,0.0,0.0,0.0,0.0,0.0,0.0,0.0,0.0,0.0,0.0,0.0,0.0,0.0,0.0,0.0,0.0,0.0,0.0,0.0,0.0,0.0,0.0,0.0,0.0,0.0,0.0,0.0,0.0,0.0,0.0,0.0,0.0,0.0,0.0,0.0,0.0,0.0,0.0,0.0,0.0,0.0,0.0,0.0,0.0,0.0,0.0,0.0,0.0,0.0,0.0,0.0,0.0,0.0,0.0,0.0,0.0,0.0,0.0,0.0,0.0,0.0,0.0,0.0,0.0,0.0,0.0,0.0,0.0,0.0,0.0,0.0,0.0,0.0,0.0,0.0,0.0,0.0,0.0,0.0,0.0,-8.0469,-8.2539,-8.4804,-8.5859,-8.5937,-8.4922,-8.4883,-8.3242,-7.9883,0.0,0.0,0.0,0.0,0.0,0.0,0.0,0.0,0.0,0.0,0.0,0.0,0.0,0.0,0.0,0.0,0.0,0.0,0.0,0.0,0.0,0.0,0.0,0.0,0.0,0.0,0.0,0.0,0.0,0.0,0.0,0.0,0.0,0.0,0.0,0.0,0.0,0.0,-7.8767,-8.0862,0.0,0.0,0.0,0.0,0.0,0.0,0.0,0.0,-8.3016,0.0,0.0,0.0,0.0,0.0,0.0,0.0,0.0,0.0,0.0,0.0,0.0,0.0,0.0,0.0,0.0,0.0,0.0,0.0,0.0,0.0,0.0,0.0,0.0,0.0,0.0,0.0,0.0,0.0,0.0,0.0,0.0,0.0,0.0,0.0,0.0,0.0,0.0,0.0,0.0,0.0,0.0,0.0,0.0,0.0,0.0,0.0,0.0,0.0,0.0,0.0,0.0,0.0,0.0,0.0,0.0,-7.9492,-8.1914,-8.375,-8.4883,-8.6445,-8.6523,-8.5,-8.4883,-8.3242,-7.9961,0.0,0.0,0.0,0.0,0.0,0.0,0.0,0.0,0.0,0.0,0.0,0.0,0.0,0.0,0.0,0.0,0.0,0.0,0.0,0.0,0.0,0.0,0.0,0.0,0.0,0.0,0.0,0.0,0.0,0.0,0.0,0.0,0.0,0.0,0.0,0.0,0.0,0.0,0.0,-8.1606,-8.2567,0.0,0.0,0.0,0.0,0.0,0.0,0.0,0.0,-8.2708,0.0,0.0,0.0,0.0,0.0,0.0,0.0,0.0,0.0,0.0,0.0,0.0,0.0,0.0,0.0,0.0,0.0,0.0,0.0,0.0,0.0,0.0,0.0,0.0,0.0,0.0,0.0,0.0,0.0,0.0,0.0,0.0,0.0,0.0,0.0,0.0,0.0,0.0,0.0,0.0,0.0,0.0,0.0,0.0,0.0,0.0,0.0,0.0,0.0,0.0,0.0,0.0,0.0,0.0,0.0,-8.0312,-8.25,-8.4258,-8.5547,-8.6836,-8.6679,-8.4961,-8.4453,-8.2812,0.0,0.0,0.0,0.0,0.0,0.0,0.0,0.0,0.0,0.0,0.0,0.0,0.0,0.0,0.0,0.0,0.0,0.0,0.0,0.0,0.0,0.0,0.0,0.0,0.0,0.0,0.0,0.0,0.0,0.0,0.0,0.0,0.0,0.0,0.0,0.0,0.0,0.0,0.0,0.0,-8.2413,-8.3297,-8.417,0.0,0.0,0.0,0.0,0.0,0.0,-8.3901,-8.3632,0.0,0.0,0.0,0.0,0.0,0.0,0.0,0.0,0.0,0.0,0.0,0.0,0.0,0.0,0.0,0.0,0.0,0.0,0.0,0.0,0.0,0.0,0.0,0.0,0.0,0.0,0.0,0.0,0.0,0.0,0.0,0.0,0.0,0.0,0.0,0.0,0.0,0.0,0.0,0.0,0.0,0.0,0.0,0.0,0.0,0.0,0.0,0.0,0.0,0.0,0.0,0.0,0.0,0.0,0.0,-8.0937,-8.289,-8.4609,-8.6172,-8.7031,-8.6679,-8.4961,-8.4023,-8.2344,0.0,0.0,0.0,0.0,0.0,0.0,0.0,0.0,0.0,0.0,0.0,0.0,0.0,0.0,0.0,0.0,0.0,0.0,0.0,0.0,0.0,0.0,0.0,0.0,0.0,0.0,0.0,0.0,0.0,0.0,0.0,0.0,0.0,0.0,0.0,0.0,0.0,0.0,0.0,0.0,0.0,-8.3912,-8.4786,-8.4286,0.0,0.0,0.0,0.0,-8.4824,-8.4747,0.0,0.0,0.0,0.0,0.0,0.0,0.0,0.0,0.0,0.0,0.0,0.0,0.0,0.0,0.0,0.0,0.0,0.0,0.0,0.0,0.0,0.0,0.0,0.0,0.0,0.0,0.0,0.0,0.0,0.0,0.0,0.0,0.0,0.0,0.0,0.0,0.0,0.0,0.0,0.0,0.0,0.0,0.0,0.0,0.0,0.0,0.0,0.0,0.0,0.0,0.0,0.0,0.0,0.0,0.0,0.0,-8.0976,-8.3476,-8.5234,-8.6172,-8.7031,-8.6679,-8.4961,-8.4062,-8.2383,0.0,0.0,0.0,0.0,0.0,0.0,0.0,0.0,0.0,0.0,0.0,0.0,0.0,0.0,0.0,0.0,0.0,0.0,0.0,0.0,0.0,0.0,0.0,0.0,0.0,0.0,0.0,0.0,0.0,0.0,0.0,0.0,0.0,0.0,0.0,0.0,0.0,0.0,0.0,0.0,0.0,-8.3912,-8.4786,-8.4824,-8.4747,0.0,0.0,-8.4786,-8.4901,-8.4247,0.0,0.0,0.0,0.0,0.0,0.0,0.0,0.0,0.0,0.0,0.0,0.0,0.0,0.0,0.0,0.0,0.0,0.0,0.0,0.0,0.0,0.0,0.0,0.0,0.0,0.0,0.0,0.0,0.0,0.0,0.0,0.0,0.0,0.0,0.0,0.0,0.0,0.0,0.0,0.0,0.0,0.0,0.0,0.0,0.0,0.0,0.0,0.0,0.0,0.0,0.0,0.0,0.0,0.0,0.0,-7.8711,-8.1679,-8.3828,-8.5547,-8.6875,-8.7304,-8.6679,-8.4961,-8.4062,-8.2383,0.0,0.0,0.0,0.0,0.0,0.0,0.0,0.0,0.0,0.0,0.0,0.0,0.0,0.0,0.0,0.0,0.0,0.0,0.0,0.0,0.0,0.0,0.0,0.0,0.0,0.0,0.0,0.0,0.0,0.0,0.0,0.0,0.0,0.0,0.0,0.0,0.0,0.0,0.0,0.0,0.0,0.0,-8.4709,-8.4901,0.0,0.0,0.0,-8.5055,-8.5517,0.0,0.0,0.0,0.0,0.0,0.0,0.0,0.0,0.0,0.0,0.0,0.0,0.0,0.0,0.0,0.0,0.0,0.0,0.0,0.0,0.0,0.0,0.0,0.0,0.0,0.0,0.0,0.0,0.0,0.0,0.0,0.0,0.0,0.0,0.0,0.0,0.0,0.0,0.0,0.0,0.0,0.0,0.0,0.0,0.0,0.0,0.0,0.0,0.0,0.0,0.0,0.0,0.0,0.0,0.0,0.0,0.0,-8.2265,-8.4023,-8.5742,-8.7422,-8.75,-8.6758,-8.5273,-8.4179,0.0,0.0,0.0,0.0,0.0,0.0,0.0,0.0,0.0,0.0,0.0,0.0,0.0,0.0,0.0,0.0,0.0,0.0,0.0,0.0,0.0,0.0,0.0,0.0,0.0,0.0,0.0,-7.3255,0.0,0.0,0.0,0.0,0.0,0.0,0.0,0.0,0.0,0.0,0.0,0.0,0.0,0.0,-8.3099,-8.4401,-8.4939,-8.5401,0.0,0.0,-8.5401,-8.6017,-8.5247,-8.4362,0.0,0.0,0.0,0.0,0.0,0.0,0.0,0.0,0.0,0.0,0.0,0.0,0.0,0.0,0.0,0.0,0.0,0.0,0.0,0.0,0.0,0.0,0.0,0.0,0.0,0.0,0.0,0.0,0.0,0.0,0.0,0.0,0.0,0.0,0.0,0.0,0.0,0.0,0.0,0.0,0.0,0.0,0.0,0.0,0.0,0.0,0.0,0.0,0.0,0.0,0.0,0.0,0.0,0.0,-7.8906,-8.2226,-8.4023,-8.5742,-8.7422,-8.75,-8.7031,-8.6133,-8.4492,-8.2773,0.0,0.0,0.0,0.0,0.0,0.0,0.0,0.0,0.0,0.0,0.0,0.0,0.0,0.0,0.0,0.0,0.0,0.0,0.0,0.0,0.0,0.0,0.0,0.0,0.0,0.0,0.0,0.0,0.0,0.0,0.0,0.0,0.0,0.0,0.0,0.0,0.0,0.0,0.0,0.0,0.0,-8.3555,-8.367,-8.5016,-8.6055,0.0,-8.6055,-8.6055,-8.6094,-8.4747,-8.367,-8.3605,0.0,0.0,0.0,0.0,0.0,0.0,0.0,0.0,0.0,0.0,0.0,0.0,0.0,0.0,0.0,0.0,0.0,0.0,0.0,0.0,0.0,0.0,0.0,0.0,0.0,0.0,0.0,0.0,0.0,0.0,0.0,0.0,0.0,0.0,0.0,0.0,0.0,0.0,0.0,0.0,0.0,0.0,0.0,0.0,0.0,0.0,0.0,0.0,0.0,0.0,0.0,0.0,0.0,-7.8906,-8.2265,-8.4023,-8.5742,-8.7422,-8.75,-8.707,-8.6211,-8.5547,-8.414,0.0,0.0,0.0,0.0,0.0,0.0,0.0,0.0,0.0,0.0,0.0,0.0,0.0,0.0,0.0,0.0,0.0,0.0,0.0,0.0,0.0,0.0,0.0,0.0,0.0,0.0,0.0,0.0,-7.8792,-7.9592,-7.9054,0.0,0.0,0.0,0.0,0.0,0.0,0.0,0.0,0.0,0.0,-8.3208,-8.4247,-8.5363,0.0,0.0,-8.6094,-8.6094,-8.6094,-8.517,-8.4209,-8.3708,-8.1946,0.0,0.0,0.0,0.0,0.0,0.0,0.0,0.0,0.0,0.0,0.0,0.0,0.0,0.0,0.0,0.0,0.0,0.0,0.0,0.0,0.0,0.0,0.0,0.0,0.0,0.0,0.0,0.0,0.0,0.0,0.0,0.0,0.0,0.0,0.0,0.0,0.0,0.0,0.0,0.0,0.0,0.0,0.0,0.0,0.0,0.0,0.0,0.0,0.0,0.0,0.0,0.0,-7.8867,-8.2265,-8.4023,-8.5742,-8.7461,-8.75,-8.7187,-8.6601,-8.6328,-8.5234,0.0,0.0,0.0,0.0,0.0,0.0,0.0,0.0,0.0,0.0,0.0,0.0,0.0,0.0,0.0,0.0,0.0,0.0,0.0,0.0,0.0,0.0,0.0,0.0,0.0,0.0,0.0,0.0,-7.9254,-7.9361,-7.8246,0.0,0.0,0.0,0.0,0.0,0.0,0.0,0.0,0.0,0.0,-8.3215,-8.4709,-8.5593,-8.6094,-8.6094,-8.6094,-8.6094,-8.6094,-8.544,-8.4709,-8.4087,0.0,0.0,0.0,0.0,0.0,0.0,0.0,0.0,0.0,0.0,0.0,0.0,0.0,0.0,0.0,0.0,0.0,0.0,0.0,0.0,0.0,0.0,0.0,0.0,0.0,0.0,0.0,-7.3275,0.0,0.0,-7.207,0.0,0.0,0.0,0.0,0.0,0.0,0.0,0.0,0.0,0.0,0.0,0.0,0.0,0.0,0.0,0.0,0.0,0.0,0.0,0.0,0.0,0.0,-7.8867,-8.2265,-8.4023,-8.5742,-8.7422,-8.75,-8.75,-8.7422,-8.664,-8.5781,-8.4804,0.0,0.0,0.0,0.0,0.0,0.0,0.0,0.0,0.0,0.0,0.0,0.0,0.0,0.0,0.0,0.0,0.0,0.0,0.0,0.0,0.0,0.0,0.0,0.0,0.0,0.0,-8.0631,-8.0246,-7.9092,0.0,0.0,0.0,0.0,0.0,0.0,0.0,0.0,0.0,-8.0862,-8.2522,-8.3874,-8.4824,-8.5593,-8.6094,-8.6094,-8.6094,-8.6094,-8.6094,-8.544,-8.4901,0.0,0.0,0.0,0.0,0.0,0.0,0.0,0.0,0.0,0.0,0.0,0.0,0.0,0.0,0.0,0.0,0.0,0.0,0.0,0.0,0.0,0.0,0.0,0.0,0.0,0.0,0.0,-7.5776,-7.5038,0.0,0.0,0.0,0.0,0.0,0.0,0.0,0.0,0.0,0.0,0.0,-8.1015,-8.1015,0.0,0.0,0.0,0.0,0.0,0.0,0.0,0.0,0.0,0.0,0.0,0.0,-7.8867,-8.2187,-8.3984,-8.5742,-8.7422,-8.75,-8.75,-8.75,-8.7226,-8.6367,-8.4922,0.0,0.0,0.0,0.0,0.0,0.0,0.0,0.0,0.0,0.0,0.0,0.0,0.0,0.0,0.0,0.0,0.0,0.0,0.0,0.0,0.0,0.0,0.0,0.0,0.0,-7.9054,0.0,0.0,0.0,0.0,0.0,0.0,0.0,0.0,0.0,0.0,0.0,-8.0846,-8.2554,-8.3753,-8.4753,-8.5593,-8.594,-8.6094,0.0,0.0,0.0,0.0,0.0,0.0,0.0,0.0,0.0,0.0,0.0,0.0,0.0,0.0,-8.1554,-8.0439,-8.0208,-8.0208,-8.0246,0.0,0.0,0.0,0.0,0.0,0.0,0.0,0.0,0.0,0.0,0.0,0.0,0.0,0.0,-7.8282,0.0,-7.7223,0.0,0.0,0.0,0.0,0.0,0.0,0.0,0.0,-8.1484,-8.2383,-8.3203,-8.3203,-8.289,0.0,-8.207,-8.0742,0.0,0.0,0.0,0.0,0.0,0.0,0.0,0.0,-7.9609,-8.2656,-8.4453,-8.6054,-8.7422,-8.75,-8.75,-8.75,-8.75,-8.6836,-8.539,-8.3398,-8.1406,0.0,0.0,0.0,0.0,0.0,0.0,0.0,0.0,0.0,0.0,0.0,0.0,0.0,0.0,0.0,0.0,0.0,0.0,0.0,0.0,0.0,0.0,0.0,-7.9477,0.0,0.0,0.0,0.0,0.0,0.0,0.0,0.0,0.0,-7.8515,-8.0046,-8.1816,-8.3785,-8.4286,-8.4714,-8.5593,0.0,0.0,0.0,0.0,0.0,0.0,0.0,-8.4555,-8.4863,-8.4439,-8.4055,-8.4055,-8.3824,-8.3708,-8.4016,0.0,0.0,-8.2247,-8.1977,-8.1977,-8.1977,-8.197,-8.197,-8.1977,-8.1984,-8.2106,0.0,0.0,0.0,0.0,0.0,0.0,0.0,0.0,-8.1587,-8.1373,0.0,-7.9801,0.0,0.0,0.0,0.0,0.0,-7.9453,0.0,0.0,-8.3281,-8.414,-8.4961,-8.5,-8.4961,-8.4883,-8.4062,-8.3633,-8.3398,-8.0312,0.0,0.0,0.0,0.0,0.0,0.0,-8.1015,-8.3554,-8.5312,-8.6601,-8.7461,-8.75,-8.75,-8.75,-8.75,-8.7109,-8.625,-8.5351,-8.375,-8.125,-7.9492,0.0,0.0,0.0,0.0,0.0,0.0,0.0,0.0,0.0,0.0,0.0,0.0,0.0,0.0,0.0,0.0,0.0,0.0,0.0,0.0,-7.9361,0.0,0.0,0.0,0.0,0.0,0.0,0.0,0.0,0.0,-8.0092,-8.0939,-8.1131,-8.2054,-8.4516,0.0,0.0,0.0,0.0,-8.3593,-8.3632,-8.3593,-8.3632,-8.3632,-8.3593,-8.3901,-8.4709,0.0,0.0,-8.4945,-8.4286,-8.3978,-8.4786,-8.4939,-8.467,-8.3824,-8.367,-8.367,-8.367,-8.367,-8.367,-8.367,-8.3676,-8.3682,-8.3564,0.0,0.0,0.0,0.0,-8.1937,-8.2419,-8.2534,-8.3666,-8.3516,-8.2497,-8.25,0.0,0.0,0.0,0.0,0.0,0.0,-8.3437,-8.5078,-8.5351,-8.5898,-8.6758,-8.6758,-8.6445,-8.582,-8.5586,-8.5156,-8.4492,-8.3554,-8.1562,-7.8672,0.0,0.0,0.0,0.0,-8.1601,-8.3554,-8.5312,-8.664,-8.75,-8.75,-8.75,-8.75,-8.75,-8.7383,-8.7148,-8.6289,-8.5195,-8.3828,-8.1562,0.0,0.0,0.0,0.0,0.0,0.0,0.0,0.0,0.0,0.0,0.0,0.0,0.0,0.0,0.0,0.0,0.0,0.0,0.0,-8.1054,-8.0939,-8.0131,0.0,0.0,0.0,0.0,0.0,0.0,0.0,0.0,0.0,-8.1747,-8.1977,-8.2446,0.0,0.0,-8.367,-8.3939,-8.3747,-8.3593,-8.3593,-8.3593,0.0,-8.3593,-8.3593,-8.367,-8.3939,-8.4478,-8.5093,-8.567,-8.5555,-8.5478,-8.5709,-8.5747,-8.567,-8.5478,-8.5401,-8.5363,-8.5401,-8.5401,-8.5363,-8.5401,-8.5401,-8.533,-8.5767,-8.4841,-8.3726,-8.3263,-8.3421,-8.4217,-8.4609,-8.4687,-8.5576,-8.5422,-8.4648,-8.4609,-8.414,-8.3281,-8.2226,0.0,0.0,0.0,-8.5195,-8.6211,-8.6562,-8.6992,-8.7461,-8.75,-8.7226,-8.6719,-8.6719,-8.6445,-8.5937,-8.5586,-8.4375,-8.2304,0.0,0.0,-8.0547,-8.1875,-8.3242,-8.4648,-8.6015,-8.6992,-8.75,-8.75,-8.75,-8.75,-8.75,-8.75,-8.75,-8.6992,-8.6289,-8.5429,-8.3594,-8.1758,0.0,0.0,0.0,0.0,0.0,0.0,0.0,0.0,0.0,0.0,0.0,-7.4256,-7.4925,0.0,0.0,0.0,-7.9045,-8.0862,-8.217,-8.1593,0.0,0.0,0.0,0.0,0.0,0.0,0.0,-7.9708,-8.0092,-8.0669,-8.167,-8.1823,-8.2285,-8.3439,-8.3285,-8.3054,-8.3093,0.0,-8.2593,-8.2593,-8.2593,-8.2593,-8.2593,-8.2593,-8.2708,-8.3048,-8.3824,-8.4516,-8.4978,-8.5363,-8.5632,-8.567,-8.5863,-8.6094,-8.6094,-8.6094,-8.6094,-8.6094,-8.6094,-8.6094,-8.6094,-8.6094,-8.6094,-8.6974,-8.7,-8.5439,-8.4917,-8.5156,-8.5976,-8.6289,-8.6367,-8.7148,-8.707,-8.6289,-8.6289,-8.582,-8.5,-8.5078,0.0,-8.5039,-8.5898,-8.6289,-8.6328,-8.7148,-8.75,-8.75,-8.75,-8.75,-8.75,-8.75,-8.75,-8.7422,-8.6679,-8.6289,-8.6172,-8.4609,-8.375,-8.3672,-8.4453,-8.5273,-8.5976,-8.6875,-8.7422,-8.75,-8.75,-8.75,-8.75,-8.7422,-8.7383,-8.7383,-8.7344,-8.6914,-8.6133,-8.5273,-8.4023,-8.2344,0.0,0.0,0.0,0.0,0.0,0.0,0.0,0.0,0.0,0.0,0.0,0.0,0.0,0.0,-7.8816,-8.0384,0.0,-8.2439,-8.1823,0.0,0.0,0.0,-7.8861,-7.8784,-7.9515,-7.9977,-7.99,0.0,0.0,-8.1093,-8.1093,-8.167,-8.317,-8.2701,-8.2201,-8.2208,-8.1593,-8.1093,-8.1208,-8.1131,-8.1131,-8.1246,-8.1246,-8.1516,-8.2278,-8.2971,-8.3516,-8.367,-8.4286,-8.4747,-8.4786,-8.5478,-8.5978,-8.5978,-8.6017,-8.6094,-8.6094,-8.6094,-8.6094,-8.6094,-8.6094,-8.6094,-8.5234,-8.5351,-8.5005,-8.5659,-8.6914,-8.7109,-8.7187,-8.7187,-8.7422,-8.7383,-8.7187,-8.7187,-8.6719,-8.5937,-8.6601,-8.6523,-8.5937,-8.6797,-8.7187,-8.7187,-8.7422,-8.75,-8.75,-8.75,-8.75,-8.75,-8.75,-8.75,-8.75,-8.7304,-8.6875,-8.6211,-8.5781,-8.4922,-8.3672,-8.4453,-8.4687,-8.4219,-8.5742,-8.6836,-8.7461,-8.75,-8.75,-8.75,-8.6836,-8.6523,-8.6484,-8.5859,-8.5429,-8.5195,-8.4375,-8.3437,-8.2344,-7.9883,0.0,0.0,0.0,0.0,0.0,0.0,0.0,0.0,0.0,-7.6077,-7.7487,0.0,-8.0087,0.0,-8.2686,-8.4093,-8.4247,-8.4093,0.0,0.0,-8.2516,-8.2131,-8.1477,-8.1593,-8.1477,-8.0862,-8.0977,-8.1093,-8.1093,-8.1093,-8.1246,-8.1631,-8.1516,-8.1362,-8.1362,-8.1246,-8.1093,-8.1093,-8.1093,-8.1093,-8.1093,-8.1093,-8.1362,-8.2163,-8.2471,-8.2855,-8.3503,-8.374,-8.3901,-8.3978,-8.4593,-8.5132,-8.517,-8.567,-8.6055,-8.6094,-8.6094,-8.6094,-8.6094,-8.6094,-8.6094,-8.465,-8.4805,-8.4888,-8.5463,-8.6328,-8.6367,-8.6328,-8.6328,-8.6367,-8.6328,-8.6328,-8.6367,-8.6054,-8.5664,-8.6133,-8.6094,-8.5664,-8.6133,-8.6328,-8.6328,-8.6328,-8.6328,-8.6328,-8.6328,-8.6328,-8.6328,-8.6328,-8.6328,-8.6328,-8.6328,-8.6094,-8.5625,-8.5625,-8.4961,-8.3711,-8.4453,-8.4648,-8.4179,-8.5117,-8.5859,-8.6328,-8.6328,-8.6328,-8.6328,-8.5898,-8.5625,-8.5625,-8.5156,-8.4883,-8.4883,-8.4453,-8.3789,-8.289,-8.1172,-7.9648,0.0,0.0,0.0,0.0,0.0,0.0,0.0,0.0,0.0,0.0,0.0,-8.1813,-8.2844,-8.4119,-8.4901,-8.4901,-8.4555,-8.3978,-8.3093,-8.2708,-8.2285,-8.1823,-8.1747,-8.1593,-8.117,-8.1093,-8.1093,-8.1093,-8.1093,-8.1093,-8.1093,-8.1093,-8.1093,-8.1093,-8.1093,-8.1093,-8.1093,-8.1093,-8.1093,-8.1093,-8.1093,-8.1246,-8.1631,-8.1747,-8.1939,-8.2394,-8.2778,-8.3016,-8.3054,-8.3747,-8.4324,-8.4362,-8.4978,-8.5555,-8.5632,-8.5863,-8.6055,-8.6094,-8.6094,-8.6094,-8.4362,-8.4493,-8.4531,-8.4563,-8.457,-8.457,-8.4687,-8.4883,-8.4883,-8.4883,-8.4883,-8.4883,-8.4883,-8.4883,-8.4883,-8.4883,-8.4883,-8.4883,-8.4883,-8.4883,-8.4883,-8.4883,-8.4883,-8.4883,-8.4883,-8.4883,-8.4883,-8.4883,-8.4883,-8.4883,-8.4844,-8.4726,-8.4726,-8.4297,-8.3515,-8.4179,-8.4609,-8.4726,-8.4726,-8.4804,-8.4883,-8.4883,-8.4883,-8.4883,-8.4687,-8.457,-8.457,-8.4336,-8.4258,-8.4258,-8.4336,-8.4062,-8.3281,-8.2539,-8.1445,0.0,-7.9101,0.0,0.0,0.0,0.0,0.0,0.0,0.0,0.0,-8.2143,-8.3641,-8.4905,-8.4927,-8.4901,-8.4907,-8.4132,-8.3285,-8.2554,-8.1862,-8.1362,-8.1285,-8.1246,-8.1208,-8.1131,-8.1093,-8.1093,-8.1093,-8.1093,-8.1093,-8.1093,-8.1093,-8.1093,-8.1093,-8.1093,-8.1093,-8.1093,-8.1093,-8.1093,-8.1093,-8.1093,-8.1093,-8.1093,-8.1131,-8.1093,-8.117,-8.1708,-8.217,-8.2247,-8.2862,-8.3401,-8.3439,-8.4132,-8.4709,-8.4747,-8.5324,-8.5901,-8.6055,-8.6094,-8.6094,-8.2686,-8.2764,-8.278,-8.2796,-8.2812,-8.2773,-8.3594,-8.4883,-8.4883,-8.4883,-8.4883,-8.4883,-8.4883,-8.4883,-8.4883,-8.4883,-8.4883,-8.4883,-8.4883,-8.4883,-8.4883,-8.4883,-8.4883,-8.4883,-8.4883,-8.4883,-8.4883,-8.4883,-8.4883,-8.4883,-8.4531,-8.3867,-8.3828,-8.3398,-8.2578,0.0,0.0,0.0,-8.3828,-8.4179,-8.4844,-8.4883,-8.4883,-8.4883,-8.3515,0.0,-8.2773,-8.1445,-8.0703,-8.0703,-8.1367,0.0,0.0,0.0,0.0,0.0,0.0,0.0,0.0,0.0,0.0,0.0,-8.0763,-8.1232,-8.1602,-8.3513,-8.485,-8.5043,-8.4997,-8.4901,-8.4907,-8.4132,-8.3548,-8.3387,-8.3202,-8.2862,-8.2208,-8.2054,-8.1823,-8.117,-8.1093,-8.1093,-8.1093,-8.1093,-8.1093,-8.1093,-8.1093,-8.1093,-8.1093,-8.1093,-8.1093,-8.1093,-8.1093,-8.1093,-8.1093,-8.1093,-8.1093,-8.1093,-8.1093,-8.1093,-8.1093,-8.1208,-8.1323,-8.1362,-8.2016,-8.2554,-8.2554,-8.3247,-8.3824,-8.3824,-8.4555,-8.533,-8.5978,-8.6094,-8.6094,-8.2231,-8.2309,-8.2319,-8.2324,0.0,-8.2304,-8.2812,-8.3594,-8.3633,-8.3633,-8.3633,-8.3594,-8.3633,-8.3633,-8.3633,-8.3633,-8.3633,-8.3594,-8.3633,-8.3633,-8.3633,-8.3594,-8.3594,-8.3594,-8.3594,-8.3594,-8.3633,-8.3633,-8.3633,-8.3594,-8.3398,-8.2969,-8.2969,-8.2734,-8.2304,-8.2304,-8.25,-8.2969,-8.2969,-8.3203,-8.3594,-8.3633,-8.3594,-8.3594,-8.2773,0.0,0.0,0.0,0.0,0.0,0.0,0.0,0.0,-8.164,0.0,-8.164,-8.1211,-8.0976,-8.0964,-8.1243,-8.1359,-8.1271,-8.1829,-8.2189,-8.2189,-8.3205,-8.3963,-8.4357,-8.4311,-8.4247,-8.4247,-8.3478,-8.2971,-8.2964,-8.2624,-8.217,-8.1785,-8.1708,-8.1554,-8.1208,-8.1093,-8.1093,-8.1093,-8.1093,-8.1093,-8.1093,-8.1093,-8.1093,-8.1093,-8.1093,-8.1093,-8.1093,-8.1093,-8.1093,-8.1093,-8.1093,-8.1093,-8.1093,-8.1093,-8.1093,-8.1093,-8.1093,-8.1093,-8.1131,-8.1439,-8.1708,-8.1785,-8.2362,-8.2939,-8.3016,-8.367,-8.433,-8.483,-8.5522,-8.6094,-8.2248,-8.231,-8.231,-8.2292,-8.2304,-8.2304,-8.2304,-8.2304,0.0,0.0,0.0,-8.2304,-8.2304,-8.2304,-8.2304,-8.2304,-8.2304,-8.2304,-8.2304,-8.2304,-8.2304,-8.2304,-8.2304,-8.2304,-8.2304,-8.2304,-8.2304,-8.2304,-8.2304,-8.2304,-8.2304,-8.2304,-8.2304,-8.2304,-8.2304,-8.2304,-8.2304,-8.2304,-8.2304,-8.2304,-8.2304,-8.2304,-8.2304,-8.2304,-8.2148,-8.207,-8.207,-8.1914,-8.1836,-8.1836,-8.1992,-8.207,-8.207,-8.2226,-8.2304,-8.2303,-8.2264,-8.2256,-8.2176,-8.2178,-8.2106,-8.191,-8.2186,-8.2416,-8.2571,-8.2613,-8.2948,-8.3641,-8.3503,-8.3362,-8.3362,-8.2593,-8.2093,-8.2086,-8.1477,-8.1093,-8.1093,-8.1093,-8.1131,-8.1093,-8.1093,-8.1093,-8.1093,-8.1093,-8.1093,-8.1093,-8.1093,-8.1093,-8.1093,-8.1093,-8.1093,-8.1093,-8.1093,-8.1093,-8.1093,-8.1093,-8.1093,-8.1093,-8.1093,-8.1093,-8.1093,-8.1093,-8.1093,-8.1093,-8.1093,-8.1131,-8.117,-8.167,-8.2054,-8.2093,-8.2747,-8.3362,-8.3522,-8.4561,-8.5593,-8.2256,-8.2304,-8.2304,-8.2304,-8.2304,-8.2304,-8.2304,-8.2304,-8.2304,-8.2304,-8.2304,-8.2304,-8.2304,-8.2304,-8.2304,-8.2304,-8.2304,-8.2304,-8.2304,-8.2304,-8.2304,-8.2304,-8.2304,-8.2304,-8.2304,-8.2304,-8.2304,-8.2304,-8.2304,-8.2304,-8.2304,-8.2304,-8.2304,-8.2304,-8.2304,-8.2304,-8.2304,-8.2304,-8.2304,-8.2304,-8.2304,-8.2304,-8.2304,-8.2265,-8.1601,-8.1172,-8.1172,-8.0508,-8.0078,-8.0078,-8.0781,-8.1172,-8.1211,-8.1875,-8.2301,-8.231,-8.2266,-8.2143,-8.2053,-8.2587,-8.2805,-8.2405,-8.1793,-8.1735,-8.2526,-8.3162,-8.3564,-8.3641,-8.2964,-8.2477,-8.2407,-8.1785,-8.1323,-8.1285,-8.117,-8.1093,-8.1093,-8.1093,-8.1093,-8.1093,-8.1093,-8.1093,-8.1093,-8.1093,-8.1093,-8.1093,-8.1093,-8.1093,-8.1093,-8.1093,-8.1093,-8.1093,-8.1093,-8.1093,-8.1093,-8.1093,-8.1093,-8.1093,-8.1093,-8.1093,-8.1093,-8.1093,-8.1093,-8.1093,-8.1093,-8.1093,-8.1093,-8.117,-8.1323,-8.14,-8.1977,-8.2471,-8.2516,-8.3356,-8.4202,-8.2221,-8.2304,-8.2304,-8.2304,-8.2304,-8.2304,-8.2304,-8.2304,-8.2304,-8.2304,-8.2304,-8.2304,-8.2304,-8.2304,-8.2304,-8.2304,-8.2304,-8.2304,-8.2304,-8.2304,-8.2304,-8.2304,-8.2304,-8.2304,-8.2304,-8.2304,-8.2304,-8.2304,-8.2304,-8.2304,-8.2304,-8.2304,-8.2304,-8.2304,-8.2304,-8.2304,-8.2304,-8.2304,-8.2304,-8.2304,-8.2304,-8.2304,-8.2304,-8.2304,-8.1914,-8.1719,-8.1719,-8.1328,-8.1094,-8.1094,-8.1484,-8.1717,-8.1706,-8.2093,-8.2281,-8.2254,-8.2215,-8.2117,-8.1958,-8.2083,-8.2063,-8.1813,-8.1377,-8.1308,-8.1754,-8.2109,-8.2309,-8.2271,-8.1893,-8.1631,-8.167,-8.1323,-8.1093,-8.1093,-8.1093,-8.1093,-8.1093,-8.1093,-8.1093,-8.1093,-8.1093,-8.1093,-8.1093,-8.1093,-8.1093,-8.1093,-8.1093,-8.1093,-8.1093,-8.1093,-8.1093,-8.1093,-8.1093,-8.1093,-8.1093,-8.1093,-8.1093,-8.1093,-8.1093,-8.1093,-8.1093,-8.1093,-8.1093,-8.1093,-8.1093,-8.1093,-8.1093,-8.1093,-8.1093,-8.1131,-8.1323,-8.1631,-8.1739,-8.2317,-8.3317,-8.2217,-8.2304,-8.2304,-8.2304,-8.2304,-8.2304,-8.2304,-8.2304,-8.2304,-8.2304,-8.2304,-8.2304,-8.2304,-8.2304,-8.2304,-8.2304,-8.2304,-8.2304,-8.2304,-8.2304,-8.2304,-8.2304,-8.2304,-8.2304,-8.2304,-8.2304,-8.2304,-8.2304,-8.2304,-8.2304,-8.2304,-8.2304,-8.2304,-8.2304,-8.2304,-8.2304,-8.2304,-8.2304,-8.2304,-8.2304,-8.2304,-8.2304,-8.2304,-8.2304,-8.2304,-8.2304,-8.2304,-8.2304,-8.2304,-8.2304,-8.2304,-8.23,-8.2299,-8.2319,-8.2265,-8.2187,-8.2148,-8.2055,-8.1781,-8.1517,-8.1316,-8.1184,-8.1124,-8.1093,-8.1093,-8.1093,-8.1093,-8.1093,-8.1131,-8.1131,-8.1131,-8.1093,-8.1093,-8.1093,-8.1093,-8.1093,-8.1093,-8.1093,-8.1093,-8.1093,-8.1093,-8.1093,-8.1093,-8.1093,-8.1093,-8.1093,-8.1093,-8.1093,-8.1093,-8.1093,-8.1093,-8.1093,-8.1093,-8.1093,-8.1093,-8.1093,-8.1093,-8.1093,-8.1093,-8.1093,-8.1093,-8.1093,-8.1093,-8.1093,-8.1093,-8.1093,-8.1093,-8.1093,-8.1093,-8.1093,-8.117,-8.1131,-8.1208,-8.1855,-8.2778,-8.2188,-8.2304,-8.2304,-8.2304,-8.2304,-8.2304,-8.2304,-8.2304,-8.2304,-8.2304,-8.2304,-8.2304,-8.2304,-8.2304,-8.2304,-8.2304,-8.2304,-8.2304,-8.2304,-8.2304,-8.2304,-8.2304,-8.2304,-8.2304,-8.2304,-8.2304,-8.2304,-8.2304,-8.2304,-8.2304,-8.2304,-8.2304,-8.2304,-8.2304,-8.2304,-8.2304,-8.2304,-8.2304,-8.2304,-8.2304,-8.2304,-8.2304,-8.2304,-8.2304,-8.2304,-8.2304,-8.2304,-8.2304,-8.2304,-8.2304,-8.2304,-8.23,-8.2299,-8.2299,-8.2245,-8.2128,-8.205,-8.1859,-8.1478,-8.1291,-8.117,-8.1131,-8.1093,-8.1093,-8.1093,-8.1093,-8.1093,-8.1093,-8.1093,-8.1093,-8.1093,-8.1093,-8.1093,-8.1093,-8.1093,-8.1093,-8.1093,-8.1093,-8.1093,-8.1093,-8.1093,-8.1093,-8.1093,-8.1093,-8.1093,-8.1093,-8.1093,-8.1093,-8.1093,-8.1093,-8.1093,-8.1093,-8.1093,-8.1093,-8.1093,-8.1093,-8.1093,-8.1093,-8.1093,-8.1093,-8.1093,-8.1093,-8.1093,-8.1093,-8.1093,-8.1093,-8.1093,-8.1093,-8.1093,-8.1093,-8.1093,-8.1093,-8.117,-8.167,-8.2586,-8.2104,-8.2262,-8.2265,-8.2304,-8.2304,-8.2304,-8.2304,-8.2304,-8.2304,-8.2304,-8.2304,-8.2304,-8.2304,-8.2304,-8.2304,-8.2304,-8.2304,-8.2304,-8.2304,-8.2304,-8.2304,-8.2304,-8.2304,-8.2304,-8.2304,-8.2304,-8.2304,-8.2304,-8.2304,-8.2304,-8.2304,-8.2304,-8.2304,-8.2304,-8.2304,-8.2304,-8.2304,-8.2304,-8.2304,-8.2304,-8.2304,-8.2304,-8.2304,-8.2304,-8.2304,-8.2304,-8.2304,-8.2304,-8.2304,-8.2304,-8.2304,-8.23,-8.2215,-8.225,-8.2169,-8.2012,-8.1758,-8.1543,-8.1359,-8.1239,-8.117,-8.1093,-8.1093,-8.1093,-8.1093,-8.1093,-8.1093,-8.1093,-8.1093,-8.1093,-8.1093,-8.1093,-8.1093,-8.1093,-8.1093,-8.1093,-8.1093,-8.1093,-8.1093,-8.1093,-8.1093,-8.1093,-8.1093,-8.1093,-8.1093,-8.1093,-8.1093,-8.1093,-8.1093,-8.1093,-8.1093,-8.1093,-8.1093,-8.1093,-8.1093,-8.1093,-8.1093,-8.1093,-8.1093,-8.1093,-8.1093,-8.1093,-8.1093,-8.1093,-8.1093,-8.1093,-8.1093,-8.1093,-8.1093,-8.1093,-8.1093,-8.1093,-8.1093,-8.1362,-8.1747,-8.2078,-8.2207,-8.2264,-8.2304,-8.2304,-8.2304,-8.2304,-8.2304,-8.2304,-8.2304,-8.2304,-8.2304,-8.2304,-8.2304,-8.2304,-8.2304,-8.2304,-8.2304,-8.2304,-8.2304,-8.2304,-8.2304,-8.2304,-8.2304,-8.2304,-8.2304,-8.2304,-8.2304,-8.2304,-8.2304,-8.2304,-8.2304,-8.2304,-8.2304,-8.2304,-8.2304,-8.2304,-8.2304,-8.2304,-8.2304,-8.2304,-8.2304,-8.2304,-8.2304,-8.2304,-8.2304,-8.2304,-8.2304,-8.2304,-8.2304,-8.2303,-8.2292,-8.2215,-8.219,-8.2061,-8.1813,-8.1504,-8.132,-8.1278,-8.1208,-8.117,-8.1093,-8.1093,-8.1093,-8.1093,-8.1093,-8.1093,-8.1093,-8.1093,-8.1093,-8.1093,-8.1093,-8.1093,-8.1093,-8.1246,-8.14,-8.1439,-8.1593,-8.1862,-8.1785,-8.1939,-8.167,-8.1516,-8.1439,-8.14,-8.117,-8.1093,-8.1093,-8.1093,-8.1093,-8.1093,-8.1093,-8.1093,-8.1093,-8.1093,-8.1093,-8.1093,-8.1093,-8.1093,-8.1093,-8.1093,-8.1093,-8.1093,-8.1093,-8.1093,-8.1093,-8.1093,-8.1093,-8.1131,-8.1093,-8.1131,-8.1131,-8.1093,-8.1131,-8.1131,-8.2104,-8.2221,-8.2262,-8.2304,-8.2304,-8.2304,-8.2304,-8.2226,-8.2265,-8.2265,-8.2187,-8.2187,-8.2265,-8.2265,-8.2226,-8.2265,-8.2304,-8.2304,-8.2304,-8.2304,-8.2304,-8.2304,-8.2304,-8.2304,-8.2304,-8.2304,-8.2304,-8.2304,-8.2304,-8.2304,-8.2304,-8.2304,-8.2304,-8.2304,-8.2304,-8.2304,-8.2304,-8.2304,-8.2304,-8.2304,-8.2304,-8.2304,-8.2304,-8.2304,-8.2304,-8.2304,-8.2304,-8.2304,-8.2304,-8.2304,-8.2328,-8.226,-8.2209,-8.2155,-8.1911,-8.1639,-8.1388,-8.1224,-8.1201,-8.1131,-8.1093,-8.1093,-8.117,-8.1131,-8.1208,-8.1323,-8.1323,-8.117,-8.1323,-8.1285,-8.1285,-8.1285,-8.1246,-8.1323,-8.1862,-8.2208,-8.2247,-8.2862,-8.3401,-8.3362,-8.3247,-8.2939,-8.2324,-8.224,-8.1932,-8.1477,-8.117,-8.117,-8.1208,-8.117,-8.1093,-8.1093,-8.1093,-8.1093,-8.1093,-8.1093,-8.1093,-8.1093,-8.1093,-8.1093,-8.1093,-8.1093,-8.1093,-8.1093,-8.1093,-8.1093,-8.1093,-8.1131,-8.117,-8.117,-8.1246,-8.1246,-8.167,-8.1285,-8.1362,-8.1933,-8.2207,-8.2264,-8.2304,-8.2304,-8.2304,-8.1992,-8.1484,-8.1445,-8.1133,-8.0703,-8.0625,-8.0937,-8.1445,-8.1484,-8.1758,-8.2265,-8.2304,-8.2304,-8.2304,-8.2304,-8.2304,-8.2304,-8.2304,-8.2304,-8.2304,-8.2304,-8.2304,-8.2304,-8.2304,-8.2304,-8.2304,-8.2304,-8.2304,-8.2304,-8.2304,-8.2304,-8.2304,-8.2304,-8.2304,-8.2344,-8.2304,-8.2304,-8.2304,-8.2304,-8.2304,-8.2304,-8.2304,-8.2304,-8.2304,-8.2324,-8.2254,-8.2202,-8.1944,-8.1713,-8.153,-8.1301,-8.1154,-8.1131,-8.1131,-8.1093,-8.1131,-8.1593,-8.1862,-8.1977,-8.2362,-8.2708,-8.267,-8.267,-8.267,-8.2586,-8.224,-8.2093,-8.2631,-8.2939,-8.3131,-8.317,-8.3401,-8.3593,-8.3593,-8.3593,-8.3439,-8.3247,-8.3125,-8.3009,-8.2708,-8.2208,-8.19,-8.1747,-8.1477,-8.1131,-8.1093,-8.1093,-8.1093,-8.1093,-8.1093,-8.1093,-8.1093,-8.1093,-8.1093,-8.1093,-8.1093,-8.1093,-8.1093,-8.1093,-8.1093,-8.1093,-8.1246,-8.1285,-8.1708,-8.1747,-8.2093,-8.2593,-8.2324,-8.2439,-8.1945,-8.2171,-8.2265,-8.2304,-8.2304,-8.2304,-8.1797,-8.1054,-8.0976,-8.0508,-7.9844,-8.0,-8.0469,-8.1015,-8.1289,-8.1719,-8.2265,-8.2304,-8.2304,-8.2304,-8.2304,-8.2304,-8.2304,-8.2304,-8.2304,-8.2304,-8.2304,-8.2304,-8.2304,-8.2304,-8.2304,-8.2304,-8.2304,-8.2304,-8.2304,-8.2304,-8.2304,-8.2344,-8.2578,-8.2734,-8.2773,-8.3008,-8.3125,-8.3125,-8.3125,-8.2851,-8.2344,-8.2304,-8.2304,-8.2304,-8.2289,-8.2248,-8.2143,-8.1843,-8.1569,-8.1504,-8.1514,-8.1516,-8.1516,-8.1747,-8.1939,-8.19,-8.2401,-8.2708,-8.2747,-8.3247,-8.3516,-8.3593,-8.3593,-8.3664,-8.3817,-8.3471,-8.3285,-8.3632,-8.3862,-8.4016,-8.4016,-8.4286,-8.4401,-8.4478,-8.4516,-8.4362,-8.4093,-8.4048,-8.3856,-8.367,-8.3054,-8.2747,-8.2631,-8.2016,-8.1477,-8.1477,-8.1246,-8.1131,-8.1093,-8.1093,-8.1093,-8.1093,-8.1093,-8.1093,-8.1093,-8.1093,-8.1093,-8.1093,-8.1093,-8.1093,-8.117,-8.1323,-8.1747,-8.2247,-8.2593,-8.2862,-8.3208,-8.3439,-8.3439,-8.2084,-8.2211,-8.2265,-8.2304,-8.2304,-8.2304,-8.1797,-8.1094,-8.0976,-8.0508,-7.9844,-8.0508,-8.082,-8.1133,-8.1679,-8.2187,-8.2304,-8.2304,-8.2304,-8.2304,-8.2304,-8.2304,-8.2304,-8.2304,-8.2304,-8.2304,-8.2304,-8.2304,-8.2304,-8.2304,-8.2304,-8.2304,-8.2304,-8.2304,-8.2304,-8.2304,-8.2344,-8.2539,-8.3125,-8.3554,-8.3672,-8.4297,-8.4648,-8.4726,-8.4687,-8.3984,-8.2539,-8.2461,-8.2539,-8.25,-8.2495,-8.228,-8.2337,-8.2064,-8.1755,-8.1813,-8.215,-8.2317,-8.2401,-8.2978,-8.3324,-8.3362,-8.3555,-8.3593,-8.3632,-8.3747,-8.3862,-8.3901,-8.3901,-8.4087,-8.478,-8.4786,-8.4522,-8.3912,-8.4484,-8.4901,-8.5016,-8.5593,-8.6055,-8.5901,-8.5824,-8.5709,-8.517,-8.4901,-8.467,-8.4132,-8.3753,-8.3638,-8.3516,-8.2862,-8.2362,-8.217,-8.1785,-8.14,-8.1246,-8.1131,-8.1093,-8.1093,-8.1093,-8.1093,-8.1093,-8.1093,-8.1093,-8.1093,-8.1093,-8.1131,-8.1516,-8.1747,-8.2285,-8.2785,-8.317,-8.3708,-8.4093,-8.4324,-8.4099,-8.2045,-8.2124,-8.2261,-8.2304,-8.2304,-8.2304,-8.1797,-8.1054,-8.0976,-8.0508,-7.9883,-7.9961,-8.0429,-8.0976,-8.1328,-8.1758,-8.2265,-8.2304,-8.2304,-8.2304,-8.2304,-8.2304,-8.2304,-8.2304,-8.2304,-8.2304,-8.2304,-8.2304,-8.2304,-8.2304,-8.2304,-8.2304,-8.2304,-8.2304,-8.2304,-8.2304,-8.2539,-8.3164,-8.3437,-8.3867,-8.4414,-8.4765,-8.4922,-8.4883,-8.4883,-8.4609,-8.414,-8.4101,-8.4101,-8.4062,-8.4096,-8.4011,-8.3858,-8.3654,-8.3423,-8.327,-8.323,-8.324,-8.3208,-8.3445,-8.3676,-8.3747,-8.4132,-8.4439,-8.4555,-8.4978,-8.5209,-8.5286,-8.5324,-8.5478,-8.567,-8.5709,-8.5555,-8.533,-8.5593,-8.567,-8.567,-8.594,-8.6055,-8.6094,-8.6094,-8.594,-8.5786,-8.5709,-8.5555,-8.5247,-8.4791,-8.4522,-8.4362,-8.3747,-8.3208,-8.3131,-8.2477,-8.1862,-8.1708,-8.1477,-8.1246,-8.117,-8.1093,-8.1093,-8.1093,-8.1093,-8.1093,-8.1131,-8.1131,-8.1362,-8.1785,-8.2362,-8.2939,-8.3593,-8.4209,-8.4709,-8.517,-8.517,-8.4939,-8.1987,-8.2123,-8.2211,-8.2265,-8.2304,-8.2304,-8.1836,-8.1054,-8.0976,-8.0508,-7.9883,-8.0078,-8.0469,-8.0976,-8.1328,-8.1758,-8.2265,-8.2304,-8.2304,-8.2304,-8.2304,-8.2304,-8.2304,-8.2304,-8.2304,-8.2304,-8.2304,-8.2304,-8.2304,-8.2304,-8.2304,-8.2304,-8.2304,-8.2304,-8.2344,-8.2617,-8.3086,-8.3594,-8.4258,-8.4844,-8.5351,-8.5703,-8.5859,-8.5859,-8.5859,-8.5859,-8.5859,-8.5859,-8.5547,-8.5039,-8.4917,-8.4831,-8.4689,-8.4427,-8.4262,-8.4107,-8.4137,-8.4181,-8.4125,-8.4407,-8.4522,-8.4632,-8.5055,-8.5324,-8.544,-8.5901,-8.6055,-8.6094,-8.6055,-8.6094,-8.6094,-8.6094,-8.6094,-8.6094,-8.6055,-8.6094,-8.6094,-8.6094,-8.6094,-8.6094,-8.6094,-8.6094,-8.6094,-8.6094,-8.6094,-8.6017,-8.567,-8.533,-8.5209,-8.4593,-8.4286,-8.3901,-8.3324,-8.2747,-8.2285,-8.19,-8.1477,-8.1246,-8.1093,-8.1093,-8.1093,-8.1093,-8.1093,-8.1285,-8.1323,-8.1708,-8.217,-8.3131,-8.3862,-8.4555,-8.5093,-8.544,-8.5747,-8.5824,-8.567,-8.1851,-8.2114,-8.2154,-8.2261,-8.2304,-8.2304,-8.1875,-8.1211,-8.1133,-8.0742,-8.0273,-8.0781,-8.1094,-8.1289,-8.1875,-8.2226,-8.2304,-8.2304,-8.2304,-8.2304,-8.2304,-8.2304,-8.2304,-8.2304,-8.2304,-8.2304,-8.2304,-8.2304,-8.2304,-8.2304,-8.2304,-8.2304,-8.2304,-8.2383,-8.2578,-8.3203,-8.3633,-8.4179,-8.5351,-8.6054,-8.6289,-8.6953,-8.7383,-8.7344,-8.7304,-8.7265,-8.7226,-8.7187,-8.6601,-8.5312,-8.5266,-8.5215,-8.4935,-8.4669,-8.4612,-8.443,-8.4811,-8.5013,-8.5126,-8.5478,-8.5863,-8.5824,-8.5901,-8.6094,-8.6017,-8.6017,-8.6094,-8.6094,-8.6094,-8.6094,-8.6094,-8.6094,-8.6094,-8.6094,-8.6094,-8.6094,-8.6094,-8.6094,-8.6094,-8.6094,-8.6094,-8.6094,-8.6094,-8.6094,-8.6094,-8.6094,-8.6017,-8.594,-8.5863,-8.5363,-8.5055,-8.4632,-8.417,-8.3708,-8.3247,-8.2708,-8.2324,-8.2093,-8.1708,-8.1323,-8.117,-8.1093,-8.1323,-8.1477,-8.1785,-8.217,-8.2824,-8.3824,-8.4555,-8.5093,-8.5555,-8.594,-8.6094,-8.6094,-8.6094,-8.1865,-8.2117,-8.2176,-8.2221,-8.2304,-8.2304,-8.2187,-8.1953,-8.1914,-8.1758,-8.1679,-8.1836,-8.1914,-8.1953,-8.2148,-8.2304,-8.2304,-8.2304,-8.2304,-8.2304,-8.2304,-8.2304,-8.2304,-8.2304,-8.2304,-8.2304,-8.2304,-8.2304,-8.2304,-8.2304,-8.2304,-8.2304,-8.2344,-8.2656,-8.3203,-8.3515,-8.4297,-8.5351,-8.5859,-8.6562,-8.707,-8.7304,-8.75,-8.75,-8.75,-8.75,-8.75,-8.75,-8.7383,-8.6914,-8.678,-8.6675,-8.6429,-8.6216,-8.5949,-8.581,-8.5815,-8.5861,-8.5819,-8.594,-8.6094,-8.6094,-8.6094,-8.6094,-8.6094,-8.6094,-8.6094,-8.6094,-8.6094,-8.6094,-8.6094,-8.6094,-8.6094,-8.6094,-8.6094,-8.6094,-8.6094,-8.6094,-8.6094,-8.6094,-8.6094,-8.6094,-8.6094,-8.6094,-8.6094,-8.6094,-8.6094,-8.6094,-8.6017,-8.5978,-8.5555,-8.5478,-8.5132,-8.467,-8.4209,-8.3632,-8.3247,-8.3048,-8.2509,-8.1747,-8.1439,-8.117,-8.1516,-8.19,-8.2401,-8.2824,-8.3708,-8.467,-8.517,-8.5593,-8.5824,-8.6094,-8.6094,-8.6094,-8.6094,-8.1833,-8.21,-8.2195,-8.2256,-8.2304,-8.2304,-8.2304,-8.2304,-8.2304,-8.2304,-8.2304,-8.2304,-8.2304,-8.2304,-8.2304,-8.2304,-8.2304,-8.2304,-8.2304,-8.2304,-8.2304,-8.2304,-8.2304,-8.2304,-8.2304,-8.2304,-8.2304,-8.2304,-8.2304,-8.2304,-8.2304,-8.2383,-8.2656,-8.3086,-8.3594,-8.4453,-8.5117,-8.6094,-8.6523,-8.7031,-8.7461,-8.75,-8.75,-8.75,-8.75,-8.75,-8.75,-8.75,-8.75,-8.7461,-8.7401,-8.7321,-8.7181,-8.6959,-8.6722,-8.6597,-8.6356,-8.6138,-8.6126,-8.6094,-8.6094,-8.6094,-8.6094,-8.6094,-8.6094,-8.6094,-8.6094,-8.6094,-8.6094,-8.6094,-8.6094,-8.6094,-8.6094,-8.6094,-8.6094,-8.6094,-8.6094,-8.6094,-8.6094,-8.6094,-8.6094,-8.6094,-8.6094,-8.6094,-8.6094,-8.6094,-8.6094,-8.6094,-8.6094,-8.6094,-8.6055,-8.5901,-8.5747,-8.5286,-8.4863,-8.4362,-8.3824,-8.3632,-8.3362,-8.2554,-8.1862,-8.1477,-8.1862,-8.2401,-8.2939,-8.3632,-8.4478,-8.517,-8.5593,-8.5901,-8.6055,-8.6094,-8.6094,-8.6094,-8.6094,-8.1776,-8.2085,-8.2162,-8.2246,-8.2304,-8.2304,-8.2304,-8.2304,-8.2304,-8.2304,-8.2304,-8.2304,-8.2304,-8.2304,-8.2304,-8.2304,-8.2304,-8.2304,-8.2304,-8.2304,-8.2304,-8.2304,-8.2304,-8.2304,-8.2304,-8.2304,-8.2304,-8.2304,-8.2383,-8.2383,-8.25,-8.2734,-8.3359,-8.3789,-8.4336,-8.539,-8.6133,-8.6523,-8.7031,-8.7344,-8.75,-8.75,-8.75,-8.75,-8.75,-8.75,-8.75,-8.75,-8.75,-8.75,-8.7461,-8.7312,-8.7176,-8.6923,-8.676,-8.6597,-8.6366,-8.6184,-8.6126,-8.6094,-8.6094,-8.6094,-8.6094,-8.6094,-8.6094,-8.6094,-8.6094,-8.6094,-8.6094,-8.6094,-8.6094,-8.6094,-8.6094,-8.6094,-8.6094,-8.6094,-8.6094,-8.6094,-8.6094,-8.6094,-8.6094,-8.6094,-8.6094,-8.6094,-8.6094,-8.6094,-8.6094,-8.6094,-8.6094,-8.6094,-8.6094,-8.6055,-8.5901,-8.5786,-8.544,-8.5055,-8.4516,-8.4099,-8.4016,-8.3439,-8.2516,-8.2176,-8.2477,-8.2901,-8.367,-8.4362,-8.4978,-8.5593,-8.594,-8.6055,-8.6094,-8.6094,-8.6094,-8.6094,-8.6094,-8.1815,-8.2085,-8.2201,-8.2246,-8.2304,-8.2304,-8.2304,-8.2304,-8.2304,-8.2304,-8.2304,-8.2304,-8.2304,-8.2304,-8.2304,-8.2304,-8.2304,-8.2304,-8.2304,-8.2304,-8.2304,-8.2304,-8.2304,-8.2304,-8.2304,-8.2304,-8.2304,-8.2304,-8.2422,-8.2929,-8.332,-8.3437,-8.4179,-8.4961,-8.5586,-8.5937,-8.6601,-8.7109,-8.7422,-8.7461,-8.75,-8.75,-8.75,-8.75,-8.75,-8.75,-8.75,-8.75,-8.75,-8.7461,-8.7411,-8.7347,-8.7206,-8.6962,-8.6722,-8.6597,-8.6354,-8.6165,-8.6094,-8.6094,-8.6094,-8.6094,-8.6094,-8.6094,-8.6094,-8.6094,-8.6094,-8.6094,-8.6094,-8.6094,-8.6094,-8.6094,-8.6094,-8.6094,-8.6094,-8.6094,-8.6094,-8.6094,-8.6094,-8.6094,-8.6094,-8.6094,-8.6094,-8.6094,-8.6094,-8.6094,-8.6094,-8.6094,-8.6094,-8.6094,-8.6094,-8.6094,-8.6055,-8.594,-8.5824,-8.5517,-8.5209,-8.4791,-8.4676,-8.4522,-8.3561,-8.3176,-8.3555,-8.4016,-8.4516,-8.5132,-8.5555,-8.5747,-8.6094,-8.6094,-8.6094,-8.6094,-8.6094,-8.6094,-8.6094,-8.1776,-8.2085,-8.2162,-8.2246,-8.2304,-8.2304,-8.2304,-8.2304,-8.2304,-8.2304,-8.2304,-8.2304,-8.2304,-8.2304,-8.2304,-8.2304,-8.2304,-8.2304,-8.2304,-8.2304,-8.2304,-8.2304,-8.2304,-8.2304,-8.2304,-8.2344,-8.2304,-8.2461,-8.2929,-8.3398,-8.3789,-8.4258,-8.5078,-8.5625,-8.625,-8.6562,-8.7031,-8.7344,-8.75,-8.75,-8.75,-8.75,-8.75,-8.75,-8.75,-8.75,-8.75,-8.75,-8.75,-8.7461,-8.7416,-8.7375,-8.7222,-8.6977,-8.6743,-8.6584,-8.6392,-8.6203,-8.6132,-8.6094,-8.6094,-8.6094,-8.6094,-8.6094,-8.6094,-8.6094,-8.6094,-8.6094,-8.6094,-8.6094,-8.6094,-8.6094,-8.6094,-8.6094,-8.6094,-8.6094,-8.6094,-8.6094,-8.6094,-8.6094,-8.6094,-8.6094,-8.6094,-8.6094,-8.6094,-8.6094,-8.6094,-8.6094,-8.6094,-8.6094,-8.6094,-8.6094,-8.6094,-8.6055,-8.6055,-8.594,-8.5824,-8.5593,-8.5517,-8.5401,-8.4978,-8.4824,-8.4824,-8.5016,-8.5132,-8.5517,-8.5901,-8.6055,-8.6094,-8.6094,-8.6094,-8.6094,-8.6094,-8.6094,-8.6094,-8.1776,-8.2085,-8.2162,-8.2246,-8.2304,-8.2304,-8.2304,-8.2304,-8.2304,-8.2304,-8.2304,-8.2304,-8.2304,-8.2304,-8.2304,-8.2304,-8.2304,-8.2304,-8.2304,-8.2304,-8.2304,-8.2461,-8.2539,-8.2617,-8.2773,-8.2656,-8.2656,-8.3008,-8.3633,-8.3984,-8.457,-8.5156,-8.5976,-8.6406,-8.6601,-8.7031,-8.7422,-8.75,-8.75,-8.75,-8.75,-8.75,-8.75,-8.75,-8.75,-8.75,-8.75,-8.75,-8.75,-8.75,-8.7418,-8.7353,-8.7243,-8.7035,-8.6726,-8.6621,-8.6384,-8.6236,-8.6132,-8.6094,-8.6094,-8.6094,-8.6094,-8.6094,-8.6094,-8.6094,-8.6094,-8.6094,-8.6094,-8.6094,-8.6094,-8.6094,-8.6094,-8.6094,-8.6094,-8.6094,-8.6094,-8.6094,-8.6094,-8.6094,-8.6094,-8.6094,-8.6094,-8.6094,-8.6094,-8.6094,-8.6094,-8.6094,-8.6094,-8.6094,-8.6094,-8.6094,-8.6094,-8.6094,-8.6094,-8.6094,-8.6017,-8.5978,-8.5978,-8.594,-8.5863,-8.5709,-8.544,-8.5401,-8.5593,-8.5901,-8.6055,-8.6094,-8.6094,-8.6094,-8.6094,-8.6094,-8.6094,-8.6094,-8.6094,-8.1815,-8.2085,-8.2162,-8.2246,-8.2304,-8.2304,-8.2304,-8.2304,-8.2304,-8.2304,-8.2304,-8.2304,-8.2304,-8.2304,-8.2304,-8.2304,-8.2304,-8.2304,-8.2344,-8.2383,-8.2461,-8.2695,-8.332,-8.3398,-8.375,-8.4101,-8.3906,-8.3945,-8.4687,-8.539,-8.5625,-8.6094,-8.6797,-8.7187,-8.7187,-8.7461,-8.75,-8.75,-8.75,-8.75,-8.75,-8.75,-8.75,-8.75,-8.75,-8.75,-8.75,-8.75,-8.75,-8.75,-8.7422,-8.7416,-8.7347,-8.7153,-8.6899,-8.6669,-8.65,-8.63,-8.6165,-8.6094,-8.6094,-8.6094,-8.6094,-8.6094,-8.6094,-8.6094,-8.6094,-8.6094,-8.6094,-8.6094,-8.6094,-8.6094,-8.6094,-8.6094,-8.6094,-8.6094,-8.6094,-8.6094,-8.6094,-8.6094,-8.6094,-8.6094,-8.6094,-8.6094,-8.6094,-8.6094,-8.6094,-8.6094,-8.6094,-8.6094,-8.6094,-8.6094,-8.6094,-8.6094,-8.6094,-8.6094,-8.6055,-8.6055,-8.6055,-8.6055,-8.6017,-8.6055,-8.5978,-8.5824,-8.5786,-8.5978,-8.6094,-8.6094,-8.6094,-8.6094,-8.6094,-8.6094,-8.6094,-8.6094,-8.6094,-8.1815,-8.2085,-8.2162,-8.2246,-8.2304,-8.2304,-8.2304,-8.2304,-8.2304,-8.2304,-8.2304,-8.2304,-8.2304,-8.2304,-8.2304,-8.2304,-8.2344,-8.2304,-8.2539,-8.2812,-8.3008,-8.3437,-8.4179,-8.4258,-8.4804,-8.5234,-8.5156,-8.5078,-8.5547,-8.5937,-8.6445,-8.6875,-8.7344,-8.75,-8.75,-8.75,-8.75,-8.75,-8.75,-8.75,-8.75,-8.75,-8.75,-8.75,-8.75,-8.75,-8.75,-8.75,-8.75,-8.75,-8.7461,-8.7461,-8.7362,-8.7252,-8.7035,-8.6743,-8.6583,-8.6401,-8.623,-8.6126,-8.6094,-8.6094,-8.6094,-8.6094,-8.6094,-8.6094,-8.6094,-8.6094,-8.6094,-8.6094,-8.6094,-8.6094,-8.6094,-8.6094,-8.6094,-8.6094,-8.6094,-8.6094,-8.6094,-8.6094,-8.6094,-8.6094,-8.6094,-8.6094,-8.6094,-8.6094,-8.6094,-8.6094,-8.6094,-8.6094,-8.6094,-8.6094,-8.6094,-8.6094,-8.6094,-8.6094,-8.6094,-8.6094,-8.6094,-8.6094,-8.6094,-8.6094,-8.6094,-8.6017,-8.6094,-8.6094,-8.6094,-8.6094,-8.6094,-8.6094,-8.6094,-8.6094,-8.6094,-8.6094,-8.6094,-8.1776,-8.2085,-8.2162,-8.2246,-8.2304,-8.2304,-8.2304,-8.2304,-8.2304,-8.2304,-8.2304,-8.2304,-8.2304,-8.2304,-8.2344,-8.2383,-8.25,-8.2617,-8.3086,-8.3711,-8.3867,-8.4336,-8.4961,-8.5273,-8.5625,-8.6328,-8.6406,-8.6445,-8.6445,-8.6562,-8.6914,-8.7226,-8.7461,-8.75,-8.75,-8.75,-8.75,-8.75,-8.75,-8.75,-8.75,-8.75,-8.75,-8.75,-8.75,-8.75,-8.75,-8.75,-8.75,-8.75,-8.75,-8.746,-8.7408,-8.7323,-8.7169,-8.6921,-8.666,-8.6433,-8.6223,-8.6126,-8.6094,-8.6094,-8.6094,-8.6094,-8.6094,-8.6094,-8.6094,-8.6094,-8.6094,-8.6094,-8.6094,-8.6094,-8.6094,-8.6094,-8.6094,-8.6094,-8.6094,-8.6094,-8.6094,-8.6094,-8.6094,-8.6094,-8.6094,-8.6094,-8.6094,-8.6094,-8.6094,-8.6094,-8.6094,-8.6094,-8.6094,-8.6094,-8.6094,-8.6094,-8.6094,-8.6094,-8.6094,-8.6094,-8.6094,-8.6094,-8.6094,-8.6094,-8.6094,-8.6094,-8.6094,-8.6094,-8.6094,-8.6094,-8.6094,-8.6094,-8.6094,-8.6094,-8.6094,-8.6094,-8.6094,-8.1776,-8.2085,-8.2162,-8.2246,-8.2304,-8.2304,-8.2304,-8.2304,-8.2304,-8.2304,-8.2304,-8.2304,-8.2304,-8.2383,-8.2383,-8.2773,-8.3242,-8.3476,-8.3906,-8.4648,-8.4765,-8.5195,-8.5937,-8.6054,-8.6445,-8.707,-8.7226,-8.7344,-8.7226,-8.7187,-8.7304,-8.75,-8.75,-8.75,-8.75,-8.75,-8.75,-8.75,-8.75,-8.75,-8.75,-8.75,-8.75,-8.75,-8.75,-8.75,-8.75,-8.75,-8.75,-8.75,-8.75,-8.7461,-8.7408,-8.7342,-8.7291,-8.7092,-8.6807,-8.6481,-8.6277,-8.6159,-8.6094,-8.6094,-8.6094,-8.6094,-8.6094,-8.6094,-8.6094,-8.6094,-8.6094,-8.6094,-8.6094,-8.6094,-8.6094,-8.6094,-8.6094,-8.6094,-8.6094,-8.6094,-8.6094,-8.6094,-8.6094,-8.6094,-8.6094,-8.6094,-8.6094,-8.6094,-8.6094,-8.6094,-8.6094,-8.6094,-8.6094,-8.6094,-8.6094,-8.6094,-8.6094,-8.6094,-8.6094,-8.6094,-8.6094,-8.6094,-8.6094,-8.6094,-8.6094,-8.6094,-8.6094,-8.6094,-8.6094,-8.6094,-8.6094,-8.6094,-8.6094,-8.6094,-8.6094,-8.6094,-8.6094,-8.1833,-8.2085,-8.2162,-8.2246,-8.2304,-8.2304,-8.2304,-8.2304,-8.2304,-8.2304,-8.2304,-8.2304,-8.2539,-8.2929,-8.3047,-8.3515,-8.4179,-8.4336,-8.4804,-8.5469,-8.5703,-8.6094,-8.6758,-8.6953,-8.7226,-8.7344,-8.75,-8.7422,-8.75,-8.75,-8.75,-8.75,-8.75,-8.75,-8.75,-8.75,-8.75,-8.75,-8.75,-8.75,-8.75,-8.75,-8.75,-8.75,-8.75,-8.75,-8.75,-8.75,-8.75,-8.75,-8.75,-8.7461,-8.7418,-8.7366,-8.7297,-8.7213,-8.6948,-8.6669,-8.6467,-8.6285,-8.6159,-8.6126,-8.6126,-8.6094,-8.6094,-8.6094,-8.6094,-8.6094,-8.6094,-8.6094,-8.6094,-8.6094,-8.6094,-8.6094,-8.6094,-8.6094,-8.6094,-8.6094,-8.6094,-8.6094,-8.6094,-8.6094,-8.6094,-8.6094,-8.6094,-8.6094,-8.6094,-8.6094,-8.6094,-8.6094,-8.6094,-8.6094,-8.6094,-8.6094,-8.6094,-8.6094,-8.6094,-8.6094,-8.6094,-8.6094,-8.6094,-8.6094,-8.6094,-8.6094,-8.6094,-8.6094,-8.6094,-8.6094,-8.6094,-8.6094,-8.6094,-8.6094,-8.6094,-8.6094,-8.6094,-8.1848,-8.2075,-8.2171,-8.2246,-8.2304,-8.2304,-8.2304,-8.2304,-8.2304,-8.2304,-8.2383,-8.2578,-8.3125,-8.375,-8.3984,-8.4414,-8.5195,-8.5234,-8.5781,-8.625,-8.6601,-8.6875,-8.7226,-8.7422,-8.7422,-8.75,-8.75,-8.75,-8.75,-8.75,-8.75,-8.75,-8.75,-8.75,-8.75,-8.75,-8.75,-8.75,-8.75,-8.75,-8.75,-8.75,-8.75,-8.75,-8.75,-8.75,-8.75,-8.75,-8.75,-8.75,-8.75,-8.7461,-8.7461,-8.7418,-8.7362,-8.7251,-8.7047,-8.6903,-8.6661,-8.6451,-8.6254,-8.6191,-8.6159,-8.6094,-8.6094,-8.6094,-8.6094,-8.6094,-8.6094,-8.6094,-8.6094,-8.6094,-8.6094,-8.6094,-8.6094,-8.6094,-8.6094,-8.6094,-8.6094,-8.6094,-8.6094,-8.6094,-8.6094,-8.6094,-8.6094,-8.6094,-8.6094,-8.6094,-8.6094,-8.6094,-8.6094,-8.6094,-8.6094,-8.6094,-8.6094,-8.6094,-8.6094,-8.6094,-8.6094,-8.6094,-8.6094,-8.6094,-8.6094,-8.6094,-8.6094,-8.6094,-8.6094,-8.6094,-8.6094,-8.6094,-8.6094,-8.6094,-8.6094,-8.6094,-8.6094,-8.1843,-8.2116,-8.2179,-8.2246,-8.2304,-8.2304,-8.2304,-8.2304,-8.2344,-8.2422,-8.2656,-8.3164,-8.3984,-8.4648,-8.4883,-8.5273,-8.6094,-8.6133,-8.6601,-8.7109,-8.7422,-8.7383,-8.75,-8.75,-8.75,-8.75,-8.75,-8.75,-8.75,-8.75,-8.75,-8.75,-8.75,-8.75,-8.75,-8.75,-8.75,-8.75,-8.75,-8.75,-8.75,-8.75,-8.75,-8.75,-8.75,-8.75,-8.75,-8.75,-8.75,-8.75,-8.75,-8.75,-8.7461,-8.7422,-8.7383,-8.7314,-8.7198,-8.7114,-8.6955,-8.6596,-8.6307,-8.6184,-8.612,-8.6094,-8.6094,-8.6094,-8.6094,-8.6094,-8.6094,-8.6094,-8.6094,-8.6094,-8.6094,-8.6094,-8.6094,-8.6094,-8.6094,-8.6094,-8.6094,-8.6094,-8.6094,-8.6094,-8.6286,-8.6324,-8.617,-8.617,-8.6094,-8.6094,-8.6094,-8.6094,-8.6094,-8.6094,-8.6094,-8.6094,-8.6094,-8.6094,-8.6094,-8.6094,-8.6094,-8.6094,-8.6094,-8.6094,-8.6094,-8.6094,-8.6094,-8.6094,-8.6094,-8.6094,-8.6094,-8.6094,-8.6094,-8.6094,-8.6094,-8.6094,-8.6094,-8.1991,-8.2155,-8.2226,-8.2285,-8.2304,-8.2304,-8.2304,-8.2422,-8.2851,-8.3437,-8.3906,-8.4297,-8.4883,-8.5508,-8.5742,-8.6172,-8.6914,-8.6992,-8.7226,-8.7383,-8.75,-8.75,-8.75,-8.75,-8.75,-8.75,-8.75,-8.75,-8.75,-8.75,-8.75,-8.75,-8.75,-8.75,-8.75,-8.75,-8.75,-8.75,-8.75,-8.75,-8.75,-8.75,-8.75,-8.75,-8.75,-8.75,-8.75,-8.75,-8.75,-8.75,-8.75,-8.75,-8.75,-8.7422,-8.7422,-8.7383,-8.7314,-8.7221,-8.713,-8.6765,-8.6472,-8.6254,-8.6159,-8.6094,-8.6094,-8.6094,-8.6094,-8.6094,-8.6094,-8.6094,-8.6094,-8.6094,-8.6094,-8.6094,-8.6094,-8.6094,-8.6094,-8.6094,-8.6094,-8.6094,-8.6094,-8.6094,-8.6363,-8.6632,-8.644,-8.6247,-8.617,-8.6132,-8.6209,-8.6094,-8.6094,-8.6094,-8.6094,-8.6094,-8.6094,-8.6094,-8.6094,-8.6094,-8.6094,-8.6094,-8.6094,-8.6094,-8.6094,-8.6094,-8.6094,-8.6094,-8.6094,-8.6094,-8.6094,-8.6094,-8.6094,-8.6094,-8.6094,-8.6094,-8.6094,-8.209,-8.2201,-8.2273,-8.2324,-8.2344,-8.2578,-8.2695,-8.2851,-8.3594,-8.4492,-8.5273,-8.5312,-8.5781,-8.6406,-8.6601,-8.6836,-8.7304,-8.7422,-8.7461,-8.75,-8.75,-8.75,-8.75,-8.75,-8.75,-8.75,-8.75,-8.75,-8.75,-8.75,-8.75,-8.75,-8.75,-8.75,-8.75,-8.75,-8.75,-8.75,-8.75,-8.75,-8.75,-8.75,-8.75,-8.75,-8.75,-8.75,-8.75,-8.75,-8.75,-8.75,-8.75,-8.75,-8.7461,-8.7461,-8.7422,-8.7422,-8.7366,-8.729,-8.7185,-8.6903,-8.6556,-8.6285,-8.6191,-8.6126,-8.6094,-8.6094,-8.6094,-8.6094,-8.6094,-8.6094,-8.6094,-8.6094,-8.6094,-8.6094,-8.6094,-8.6094,-8.6094,-8.6094,-8.6094,-8.6094,-8.6247,-8.6594,-8.694,-8.7325,-8.7555,-8.7209,-8.6863,-8.6786,-8.6671,-8.6478,-8.6094,-8.6094,-8.6094,-8.6094,-8.6094,-8.6094,-8.6094,-8.6094,-8.6094,-8.6094,-8.6094,-8.6094,-8.6094,-8.6094,-8.6094,-8.6094,-8.6094,-8.6094,-8.6094,-8.6094,-8.6094,-8.6094,-8.6094,-8.6094,-8.6094,-8.2101,-8.2209,-8.2293,-8.2363,-8.25,-8.3203,-8.3554,-8.3672,-8.4492,-8.539,-8.6133,-8.6172,-8.6601,-8.7226,-8.7265,-8.7344,-8.7422,-8.75,-8.75,-8.75,-8.75,-8.75,-8.75,-8.75,-8.75,-8.75,-8.75,-8.75,-8.75,-8.75,-8.75,-8.75,-8.75,-8.75,-8.75,-8.75,-8.75,-8.75,-8.75,-8.75,-8.75,-8.75,-8.75,-8.75,-8.75,-8.75,-8.75,-8.75,-8.75,-8.75,-8.75,-8.75,-8.75,-8.75,-8.75,-8.7461,-8.7422,-8.7368,-8.7269,-8.6885,-8.661,-8.6394,-8.6307,-8.6254,-8.6159,-8.6126,-8.6126,-8.6126,-8.6126,-8.6094,-8.6094,-8.6094,-8.6094,-8.6094,-8.6094,-8.6094,-8.6094,-8.6401,-8.6478,-8.6632,-8.7017,-8.744,-8.7709,-8.8055,-8.8556,-8.8402,-8.7825,-8.7478,-8.7325,-8.6901,-8.6517,-8.6324,-8.6324,-8.6094,-8.6094,-8.6094,-8.6094,-8.6094,-8.6094,-8.6094,-8.6094,-8.6094,-8.6094,-8.6094,-8.6094,-8.6094,-8.6094,-8.6094,-8.6094,-8.6094,-8.6094,-8.6094,-8.6094,-8.6094,-8.6094,-8.2201,-8.2332,-8.2918,-8.3183,-8.3203,-8.3437,-8.3906,-8.457,-8.539,-8.625,-8.6953,-8.707,-8.7148,-8.7461,-8.75,-8.75,-8.75,-8.75,-8.75,-8.75,-8.75,-8.75,-8.75,-8.75,-8.75,-8.75,-8.75,-8.75,-8.75,-8.75,-8.75,-8.75,-8.75,-8.75,-8.75,-8.75,-8.75,-8.75,-8.75,-8.75,-8.75,-8.75,-8.75,-8.75,-8.75,-8.75,-8.75,-8.75,-8.75,-8.75,-8.75,-8.75,-8.75,-8.75,-8.75,-8.75,-8.744,-8.7368,-8.7315,-8.7092,-8.6884,-8.6654,-8.6505,-8.6394,-8.6345,-8.6345,-8.6285,-8.6184,-8.6223,-8.6191,-8.6126,-8.6094,-8.6094,-8.6094,-8.6094,-8.6094,-8.6209,-8.6786,-8.7094,-8.7325,-8.7671,-8.8479,-8.8979,-8.9094,-8.9517,-8.9556,-8.9056,-8.8479,-8.8248,-8.7594,-8.7094,-8.6824,-8.6632,-8.6286,-8.6094,-8.6094,-8.6094,-8.6094,-8.6094,-8.6094,-8.6094,-8.6094,-8.6094,-8.6094,-8.6094,-8.6094,-8.6094,-8.6094,-8.6094,-8.6094,-8.6094,-8.6094,-8.6094,-8.6094,-8.6094,-8.2679,-8.284,-8.3682,-8.425,-8.4492,-8.4492,-8.5,-8.582,-8.6406,-8.6992,-8.7383,-8.75,-8.75,-8.75,-8.75,-8.75,-8.75,-8.75,-8.75,-8.75,-8.75,-8.75,-8.75,-8.75,-8.75,-8.75,-8.75,-8.75,-8.75,-8.75,-8.75,-8.75,-8.75,-8.75,-8.75,-8.75,-8.75,-8.75,-8.75,-8.75,-8.75,-8.75,-8.75,-8.75,-8.75,-8.75,-8.75,-8.75,-8.75,-8.75,-8.75,-8.75,-8.75,-8.75,-8.75,-8.75,-8.7456,-8.7392,-8.7323,-8.7269,-8.7092,-8.6938,-8.676,-8.6635,-8.6597,-8.6544,-8.6451,-8.6394,-8.6336,-8.6331,-8.6351,-8.6313,-8.6485,-8.6516,-8.6709,-8.6748,-8.721,-8.7788,-8.7988,-8.822,-8.8694,-8.9503,-9.0129,-9.0287,-9.0479,-9.0402,-9.0287,-8.971,-8.9094,-8.8402,-8.7748,-8.7401,-8.7017,-8.6632,-8.6324,-8.6094,-8.6094,-8.6094,-8.6094,-8.6094,-8.6094,-8.6094,-8.6094,-8.6094,-8.6094,-8.6094,-8.6094,-8.6094,-8.6094,-8.6094,-8.6094,-8.6094,-8.6094,-8.617,-8.6247,-8.3547,-8.3783,-8.4606,-8.539,-8.6094,-8.6094,-8.664,-8.7422,-8.7461,-8.7461,-8.75,-8.75,-8.75,-8.75,-8.75,-8.75,-8.75,-8.75,-8.75,-8.75,-8.75,-8.75,-8.75,-8.75,-8.75,-8.75,-8.75,-8.75,-8.75,-8.75,-8.75,-8.75,-8.75,-8.75,-8.75,-8.75,-8.75,-8.75,-8.75,-8.75,-8.75,-8.75,-8.75,-8.75,-8.75,-8.75,-8.75,-8.75,-8.75,-8.75,-8.75,-8.75,-8.75,-8.75,-8.75,-8.75,-8.7461,-8.7411,-8.7392,-8.7336,-8.7315,-8.7181,-8.702,-8.6846,-8.676,-8.6716,-8.663,-8.6698,-8.6739,-8.6713,-8.6755,-8.6983,-8.7228,-8.7461,-8.7809,-8.8157,-8.866,-8.898,-8.903,-8.932,-8.984,-9.0435,-9.0911,-9.1154,-9.1048,-9.1005,-9.0817,-9.0591,-8.9936,-8.921,-8.8556,-8.8017,-8.7594,-8.7017,-8.6671,-8.6363,-8.6094,-8.6094,-8.6094,-8.6094,-8.6094,-8.6094,-8.6094,-8.6094,-8.6094,-8.6094,-8.6094,-8.6094,-8.6094,-8.6094,-8.6094,-8.6094,-8.6094,-8.6401,-8.6632,-8.3945,-8.4606,-8.5468,-8.5976,-8.625,-8.6875,-8.7265,-8.75,-8.75,-8.75,-8.75,-8.75,-8.75,-8.75,-8.75,-8.75,-8.75,-8.75,-8.75,-8.75,-8.75,-8.75,-8.75,-8.75,-8.75,-8.75,-8.75,-8.75,-8.75,-8.75,-8.75,-8.75,-8.75,-8.75,-8.75,-8.75,-8.75,-8.75,-8.75,-8.75,-8.75,-8.75,-8.75,-8.75,-8.75,-8.75,-8.75,-8.75,-8.75,-8.75,-8.75,-8.75,-8.75,-8.75,-8.75,-8.75,-8.7461,-8.746,-8.7422,-8.7392,-8.7407,-8.7459,-8.7347,-8.7164,-8.7064,-8.7072,-8.7019,-8.7098,-8.7481,-8.7667,-8.777,-8.8004,-8.8329,-8.8706,-8.8933,-8.9213,-8.9678,-8.9988,-9.0041,-9.0224,-9.0753,-9.1019,-9.1475,-9.1483,-9.1341,-9.1374,-9.1264,-9.1077,-9.0744,-9.0013,-8.9363,-8.8786,-8.8248,-8.7709,-8.7055,-8.6671,-8.6324,-8.6094,-8.6132,-8.6132,-8.6094,-8.6094,-8.6094,-8.6094,-8.6094,-8.6094,-8.6094,-8.6094,-8.6094,-8.6094,-8.6094,-8.6094,-8.617,-8.6555,-8.7017,-8.4914,-8.5508,-8.6367,-8.6719,-8.6797,-8.7265,-8.75,-8.75,-8.75,-8.75,-8.75,-8.75,-8.75,-8.75,-8.75,-8.75,-8.75,-8.75,-8.75,-8.75,-8.75,-8.75,-8.75,-8.75,-8.75,-8.75,-8.75,-8.75,-8.75,-8.75,-8.75,-8.75,-8.75,-8.75,-8.75,-8.75,-8.75,-8.75,-8.75,-8.75,-8.75,-8.75,-8.75,-8.75,-8.75,-8.75,-8.75,-8.75,-8.75,-8.75,-8.75,-8.75,-8.75,-8.75,-8.75,-8.75,-8.75,-8.7461,-8.7461,-8.7461,-8.7604,-8.7838,-8.7916,-8.8117,-8.8101,-8.8104,-8.7858,-8.7775,-8.8339,-8.8789,-8.896,-8.9111,-8.9528,-8.9963,-9.0071,-9.0167,-9.0556,-9.0926,-9.1061,-9.1195,-9.1423,-9.1626,-9.1773,-9.1707,-9.1655,-9.1561,-9.1513,-9.1415,-9.1213,-9.0779,-9.0129,-8.9517,-8.9017,-8.8479,-8.7825,-8.7248,-8.694,-8.6594,-8.6209,-8.6209,-8.6132,-8.6094,-8.6094,-8.6094,-8.6094,-8.6094,-8.6094,-8.6094,-8.6094,-8.6094,-8.6209,-8.6363,-8.6594,-8.6945,-8.744,-8.6211,-8.6367,-8.7187,-8.7422,-8.75,-8.75,-8.75,-8.75,-8.75,-8.75,-8.75,-8.75,-8.75,-8.75,-8.75,-8.75,-8.75,-8.75,-8.75,-8.75,-8.75,-8.75,-8.75,-8.75,-8.75,-8.75,-8.75,-8.75,-8.75,-8.75,-8.75,-8.75,-8.75,-8.7578,-8.7773,-8.7773,-8.7929,-8.8203,-8.8086,-8.7969,-8.7578,-8.75,-8.75,-8.75,-8.75,-8.75,-8.75,-8.75,-8.75,-8.75,-8.7617,-8.7656,-8.789,-8.7929,-8.7929,-8.7929,-8.8086,-8.8086,-8.8086,-8.8125,-8.832,-8.8588,-8.8818,-8.9045,-8.906,-8.8962,-8.8704,-8.8784,-8.9325,-8.9722,-8.993,-9.0314,-9.0755,-9.0976,-9.1144,-9.1257,-9.1529,-9.1763,-9.177,-9.1832,-9.1854,-9.2073,-9.2014,-9.1975,-9.1876,-9.1824,-9.1708,-9.1657,-9.1561,-9.1315,-9.0879,-9.0273,-8.9667,-8.9167,-8.8748,-8.8171,-8.7743,-8.7281,-8.6748,-8.6478,-8.6555,-8.6363,-8.6094,-8.6094,-8.6094,-8.6094,-8.6094,-8.6094,-8.6132,-8.6132,-8.6324,-8.6671,-8.7017,-8.7483,-8.8098,-8.6601,-8.7187,-8.7422,-8.75,-8.75,-8.75,-8.75,-8.75,-8.75,-8.75,-8.75,-8.75,-8.75,-8.75,-8.75,-8.75,-8.75,-8.75,-8.75,-8.75,-8.75,-8.75,-8.75,-8.75,-8.75,-8.75,-8.75,-8.75,-8.75,-8.75,-8.75,-8.7539,-8.7578,-8.7812,-8.8398,-8.8437,-8.8633,-8.9023,-8.9062,-8.8554,-8.7851,-8.7578,-8.75,-8.7578,-8.7617,-8.7695,-8.7695,-8.7617,-8.7539,-8.7539,-8.8164,-8.8711,-8.9336,-8.9336,-8.9375,-8.9375,-8.9219,-8.914,-8.914,-8.9101,-8.9336,-8.9492,-8.9687,-8.9804,-8.984,-8.9726,-8.9791,-8.9974,-9.0257,-9.0618,-9.0963,-9.1437,-9.1769,-9.1934,-9.2091,-9.2237,-9.2432,-9.2412,-9.239,-9.2378,-9.2327,-9.2288,-9.2254,-9.2187,-9.2132,-9.2074,-9.1957,-9.1918,-9.1828,-9.1657,-9.1475,-9.0921,-9.0307,-8.9811,-8.9475,-8.9056,-8.8589,-8.8128,-8.7632,-8.7358,-8.705,-8.6709,-8.6401,-8.617,-8.6094,-8.6094,-8.6094,-8.6132,-8.617,-8.6324,-8.6824,-8.7358,-8.7863,-8.8329,-8.8983,-8.6991,-8.7461,-8.75,-8.75,-8.75,-8.75,-8.75,-8.75,-8.75,-8.75,-8.75,-8.75,-8.75,-8.75,-8.75,-8.75,-8.75,-8.75,-8.75,-8.75,-8.75,-8.75,-8.75,-8.75,-8.75,-8.75,-8.75,-8.75,-8.75,-8.7539,-8.7578,-8.7929,-8.8047,-8.8437,-8.914,-8.9336,-8.9492,-8.9922,-9.0078,-8.9531,-8.8594,-8.8554,-8.8594,-8.8594,-8.8594,-8.8554,-8.8594,-8.8594,-8.8633,-8.8672,-8.9101,-8.9336,-8.9765,-8.9844,-8.9922,-8.9922,-8.9883,-9.0,-9.0039,-9.0117,-9.0273,-9.0429,-9.0586,-9.0664,-9.1328,-9.125,-9.0898,-9.1086,-9.1437,-9.1804,-9.1838,-9.2165,-9.2243,-9.2326,-9.2365,-9.2478,-9.2517,-9.2512,-9.2496,-9.2522,-9.2475,-9.2428,-9.2393,-9.2362,-9.2315,-9.2274,-9.2197,-9.209,-9.2031,-9.1996,-9.182,-9.1566,-9.0953,-9.0674,-9.0504,-8.997,-8.9393,-8.8936,-8.8551,-8.7902,-8.744,-8.7017,-8.6671,-8.6517,-8.6324,-8.6094,-8.6132,-8.644,-8.6632,-8.6863,-8.7473,-8.8128,-8.8632,-8.9137,-8.9713,-8.7375,-8.7422,-8.7461,-8.75,-8.75,-8.75,-8.75,-8.75,-8.75,-8.75,-8.75,-8.75,-8.75,-8.75,-8.75,-8.75,-8.75,-8.75,-8.75,-8.75,-8.75,-8.75,-8.75,-8.75,-8.75,-8.75,-8.75,-8.75,-8.75,-8.7695,-8.8125,-8.8633,-8.8984,-8.9297,-8.9883,-9.0195,-9.0351,-9.0625,-9.0703,-9.0508,-9.0273,-9.0078,-8.9844,-8.9883,-9.0,-9.0,-9.0,-8.9961,-8.9961,-9.0039,-9.0,-9.039,-9.0586,-9.0742,-9.0664,-9.0703,-9.0742,-9.0703,-9.0586,-9.0703,-9.0976,-9.125,-9.1367,-9.1719,-9.2344,-9.2304,-9.1992,-9.2031,-9.2383,-9.25,-9.2539,-9.2539,-9.2578,-9.2578,-9.2578,-9.2578,-9.2578,-9.2578,-9.2578,-9.2578,-9.2578,-9.2539,-9.2539,-9.25,-9.25,-9.2461,-9.2383,-9.2344,-9.2273,-9.2197,-9.2087,-9.1957,-9.1617,-9.1437,-9.1277,-9.0802,-9.0179,-8.9898,-8.9436,-8.8556,-8.7902,-8.7671,-8.7363,-8.694,-8.6748,-8.6786,-8.694,-8.7286,-8.744,-8.7555,-8.8243,-8.8936,-8.9286,-8.9825,-9.0329,-8.7318,-8.7422,-8.7422,-8.7422,-8.7422,-8.75,-8.75,-8.75,-8.75,-8.75,-8.75,-8.75,-8.75,-8.75,-8.75,-8.75,-8.75,-8.75,-8.75,-8.75,-8.75,-8.75,-8.75,-8.75,-8.75,-8.7539,-8.7578,-8.7539,-8.7851,-8.8242,-8.8554,-8.8867,-8.9609,-9.0156,-9.0898,-9.1133,-9.1289,-9.1562,-9.1797,-9.1797,-9.1484,-9.1015,-9.0117,-9.0,-9.0,-9.0,-9.0,-9.0,-9.0,-9.0195,-9.0703,-9.1289,-9.1601,-9.1758,-9.1758,-9.164,-9.1679,-9.1719,-9.1679,-9.1679,-9.1992,-9.2031,-9.2148,-9.2187,-9.2539,-9.2539,-9.2344,-9.2344,-9.2539,-9.2539,-9.2578,-9.2578,-9.2578,-9.2578,-9.2578,-9.2578,-9.2578,-9.2578,-9.2578,-9.2578,-9.2578,-9.2578,-9.2578,-9.2578,-9.2578,-9.2539,-9.25,-9.2422,-9.2422,-9.2373,-9.2344,-9.221,-9.2098,-9.1872,-9.1616,-9.1475,-9.099,-9.0763,-9.036,-8.9513,-8.8863,-8.8556,-8.8209,-8.7709,-8.7863,-8.8055,-8.8209,-8.8055,-8.8325,-8.8517,-8.9167,-8.9744,-9.0056,-9.0364,-9.0787]}]]